[[[{"header":{"parameterUnit":"kt","parameterCategory":2,"dx":1,"dy":1,"la1":29.587661999999998,"la2":31.0,"lo1":-88.76705300000003,"lo2":-86.6583820000003,"nx":115,"ny":88,"refTime":"2022-10-06T00:00:00:Z","depth":0,"parameterNumber":1,"parameterNumberName":"U-component_of_WINDS"},"data":[13.7021,13.8158,13.7081,13.7709,13.9205,13.8637,13.9594,14.1659,14.1898,14.1898,14.1898,14.1898,14.1898,14.1898,14.1898,14.1898,14.1898,14.1898,14.262,14.3836,14.5122,14.6416,14.7883,14.9574,15.0253,15.1239,15.1972,15.1644,15.1669,15.1603,15.1728,15.2189,15.3414,15.4335,15.565,15.5913,15.5913,15.5913,15.5913,15.5913,15.5872,15.5872,15.5913,15.5987,15.5987,15.606,15.6256,15.6669,15.715,15.7722,15.8493,15.8844,15.896,15.896,15.896,15.896,15.896,15.7931,15.6568,15.525,15.3842,15.2144,15.0804,15.0133,15.0066,15.0066,15.0066,15.0066,15.0066,15.0066,15.0066,15.0066,15.0066,15.0066,15.0066,15.0066,15.0066,15.0066,15.0066,15.0066,15.0066,15.0066,15.0066,15.0066,15.0066,15.0066,15.0066,15.0066,15.0066,15.0066,15.0066,15.0066,15.0066,15.0066,15.0066,15.0066,15.0066,15.0066,15.0066,15.0066,15.0066,15.0066,15.0305,15.0586,15.1099,15.1538,15.1997,15.2368,15.2634,15.2756,15.2756,15.2756,15.2756,15.2756,15.2756,13.8338,13.9624,13.9444,13.8936,13.8278,13.9145,14.0552,14.1778,14.1898,14.1898,14.1898,14.1898,14.1898,14.1898,14.1898,14.1898,14.1898,14.1898,14.3335,14.4631,14.5386,14.6705,14.828,15.0009,15.1048,15.2033,15.2952,15.2995,15.2715,15.2301,15.2428,15.3324,15.3916,15.4442,15.5453,15.5913,15.5913,15.5913,15.5913,15.5913,15.5913,15.5913,15.5962,15.6109,15.6304,15.6572,15.6886,15.7341,15.7911,15.8333,15.8656,15.8867,15.896,15.896,15.896,15.896,15.896,15.8199,15.697,15.5629,15.4088,15.2568,15.0938,15.0133,15.0133,15.0066,15.0066,15.0066,15.0066,15.0066,15.0066,15.0066,15.0066,15.0066,15.0066,15.0066,15.0066,15.0066,15.0066,15.0066,15.0066,15.0066,15.0066,15.0066,15.0066,15.0066,15.0066,15.0066,15.0066,15.0066,15.0066,15.0066,15.0066,15.0066,15.0066,15.0066,15.0066,15.0066,15.0066,15.0066,15.0066,15.0066,15.0262,15.0694,15.1163,15.1627,15.2086,15.2471,15.2634,15.2756,15.2756,15.2756,15.2756,15.2756,15.2756,13.9056,14.0851,14.0312,13.9983,14.0013,13.9953,14.0701,14.1719,14.1898,14.1898,14.1898,14.1898,14.1898,14.1898,14.1898,14.1898,14.1898,14.1898,14.3187,14.4455,14.5209,14.6819,14.8273,14.9892,15.1446,15.2587,15.3472,15.3937,15.3508,15.3086,15.2954,15.3522,15.3785,15.4442,15.5716,15.5913,15.5913,15.5913,15.5913,15.5913,15.5913,15.5962,15.6011,15.6329,15.6596,15.6838,15.7222,15.7745,15.8146,15.8333,15.8749,15.8981,15.896,15.896,15.896,15.896,15.8893,15.8669,15.7864,15.6657,15.5227,15.3842,15.2233,15.0557,15.0402,15.0066,15.0066,15.0066,15.0066,15.0066,15.0066,15.0066,15.0066,15.0066,15.0066,15.0066,15.0066,15.0066,15.0066,15.0066,15.0066,15.0066,15.0066,15.0066,15.0066,15.0066,15.0066,15.0066,15.0066,15.0066,15.0066,15.0066,15.0066,15.0066,15.0066,15.0066,15.0066,15.0066,15.0066,15.0066,15.0066,15.0088,15.024,15.0715,15.1184,15.1669,15.2106,15.2539,15.2675,15.2756,15.2756,15.2756,15.2756,15.2756,15.2756,13.9415,14.1719,14.0492,14.0462,14.124,14.0701,14.106,14.1898,14.1898,14.1898,14.1898,14.1898,14.1898,14.1898,14.1898,14.1898,14.1898,14.1989,14.2829,14.4338,14.5581,14.7147,14.8605,15.1021,15.2157,15.3091,15.3881,15.4575,15.4517,15.4376,15.4245,15.4335,15.4466,15.4861,15.5872,15.5913,15.5913,15.5913,15.5913,15.5913,15.5913,15.5987,15.6158,15.6547,15.6958,15.7198,15.765,15.8122,15.8333,15.8403,15.8842,15.8981,15.896,15.896,15.896,15.896,15.896,15.8893,15.8333,15.7328,15.5853,15.4512,15.3105,15.1697,15.0692,15.0267,15.0066,15.0066,15.0066,15.0066,15.0066,15.0066,15.0066,15.0066,15.0066,15.0066,15.0066,15.0066,15.0066,15.0066,15.0066,15.0066,15.0066,15.0066,15.0066,15.0066,15.0066,15.0066,15.0066,15.0066,15.0066,15.0066,15.0066,15.0066,15.0066,15.0066,15.0066,15.0066,15.0066,15.0066,15.0066,15.0153,15.0305,15.0758,15.1227,15.1815,15.2292,15.2621,15.2695,15.2736,15.2756,15.2756,15.2756,15.2756,15.2756,13.9415,14.1719,14.0552,14.0133,14.0282,14.13,14.1809,14.1898,14.1898,14.1898,14.1928,14.1898,14.1959,14.214,14.1928,14.1898,14.22,14.226,14.3276,14.5473,14.6524,14.812,15.0261,15.2652,15.3297,15.4138,15.4916,15.5396,15.5535,15.5453,15.5387,15.5716,15.5584,15.5584,15.5872,15.5913,15.5913,15.5913,15.5913,15.5913,15.5913,15.5987,15.6182,15.6669,15.715,15.7603,15.8099,15.861,15.8891,15.8891,15.896,15.8937,15.896,15.896,15.896,15.896,15.896,15.896,15.8624,15.7864,15.6322,15.4714,15.3239,15.1831,15.0759,15.0133,15.0066,15.0066,15.0066,15.0066,15.0066,15.0066,15.0066,15.0066,15.0066,15.0066,15.0066,15.0066,15.0066,15.0066,15.0066,15.0066,15.0066,15.0066,15.0066,15.0066,15.0066,15.0066,15.0066,15.0066,15.0066,15.0066,15.0066,15.0066,15.0066,15.0066,15.0066,15.0066,15.0066,15.0066,15.0066,15.0219,15.0346,15.0779,15.1184,15.1815,15.2224,15.2552,15.2736,15.2756,15.2756,15.2756,15.2756,15.2756,15.2756,13.8218,14.0462,14.0192,14.0402,14.115,14.1689,14.214,14.241,14.2049,14.214,14.241,14.214,14.235,14.2799,14.235,14.235,14.2949,14.3068,14.3925,14.5954,14.7422,14.9303,15.1,15.282,15.4011,15.4541,15.5156,15.5913,15.5847,15.5847,15.5913,15.5913,15.5913,15.5847,15.5913,15.5913,15.5913,15.5913,15.5913,15.5913,15.5913,15.5938,15.6256,15.6693,15.7198,15.7674,15.8169,15.8749,15.8981,15.896,15.896,15.896,15.896,15.896,15.896,15.896,15.896,15.896,15.8893,15.8266,15.6792,15.5183,15.4043,15.2367,15.1161,15.0066,15.0066,15.0066,15.0066,15.0066,15.0066,15.0066,15.0066,15.0066,15.0066,15.0066,15.0066,15.0066,15.0066,15.0066,15.0066,15.0066,15.0066,15.0066,15.0066,15.0066,15.0066,15.0066,15.0066,15.0066,15.0066,15.0066,15.0066,15.0066,15.0066,15.0066,15.0066,15.0066,15.0066,15.0066,15.0066,15.0153,15.0284,15.0651,15.1074,15.1391,15.1768,15.2245,15.2756,15.2756,15.2756,15.2756,15.2756,15.2756,15.2756,13.7469,13.9893,14.0132,14.0851,14.1839,14.229,14.268,14.3098,14.3038,14.3157,14.3633,14.3423,14.4011,14.4304,14.3571,14.3718,14.4013,14.4394,14.5177,14.6684,14.8665,15.0242,15.1976,15.3692,15.4415,15.5031,15.5379,15.5913,15.5913,15.5913,15.5913,15.5913,15.5913,15.5913,15.5913,15.5913,15.5913,15.5913,15.5913,15.5913,15.5913,15.6109,15.6547,15.6982,15.7484,15.7981,15.838,15.8888,15.8981,15.896,15.896,15.896,15.896,15.896,15.896,15.896,15.896,15.896,15.896,15.896,15.7686,15.525,15.3976,15.2501,15.1005,15.0066,15.0066,15.0066,15.0066,15.0066,15.0066,15.0066,15.0066,15.0066,15.0066,15.0066,15.0066,15.0066,15.0066,15.0066,15.0066,15.0066,15.0066,15.0066,15.0066,15.0066,15.0066,15.0066,15.0066,15.0066,15.0066,15.0066,15.0066,15.0066,15.0066,15.0066,15.0066,15.0066,15.0066,15.0066,15.0132,15.0197,15.0197,15.05,15.1078,15.1307,15.1517,15.2059,15.2715,15.2756,15.2756,15.2756,15.2756,15.2756,15.2756,13.7469,13.9833,14.0486,14.1089,14.199,14.3067,14.3541,14.3689,14.4712,14.5177,14.535,14.6263,14.6377,14.624,14.6097,14.5839,14.5728,14.5732,14.7034,14.8783,15.0295,15.2028,15.3718,15.5031,15.5354,15.5716,15.5889,15.5913,15.5913,15.5913,15.5913,15.5913,15.5913,15.5913,15.5913,15.5913,15.5913,15.5962,15.6011,15.6085,15.6207,15.645,15.6886,15.7294,15.7769,15.833,15.8633,15.8934,15.8937,15.896,15.896,15.896,15.896,15.896,15.896,15.896,15.896,15.896,15.896,15.8669,15.7194,15.4915,15.344,15.1831,15.0603,15.0066,15.0066,15.0066,15.0066,15.0066,15.0066,15.0066,15.0066,15.0066,15.0066,15.0066,15.0066,15.0066,15.0066,15.0066,15.0066,15.0066,15.0066,15.0066,15.0066,15.0066,15.0066,15.0066,15.0066,15.0066,15.0066,15.0066,15.0066,15.0066,15.0066,15.0066,15.0066,15.0066,15.0066,15.0088,15.0262,15.0327,15.037,15.0586,15.1078,15.1522,15.1899,15.2266,15.2695,15.2756,15.2756,15.2756,15.2756,15.2756,15.2756,13.5674,13.7408,13.8833,14.0093,14.1386,14.3415,14.4013,14.3895,14.4858,14.5667,14.6149,14.6825,14.7366,14.7372,14.695,14.6581,14.7876,14.7904,14.912,15.1159,15.2367,15.3641,15.4766,15.5716,15.5913,15.5913,15.5913,15.5913,15.5913,15.5913,15.5913,15.5913,15.5913,15.5913,15.5913,15.5913,15.5913,15.6011,15.6256,15.6377,15.6547,15.691,15.7317,15.7579,15.7958,15.8376,15.852,15.8752,15.896,15.896,15.896,15.896,15.896,15.896,15.896,15.896,15.896,15.896,15.8624,15.8333,15.659,15.4512,15.3239,15.1697,15.0469,15.0133,15.0066,15.0066,15.0066,15.0066,15.0066,15.0066,15.0066,15.0066,15.0066,15.0066,15.0066,15.0066,15.0066,15.0066,15.0066,15.0066,15.0066,15.0066,15.0066,15.0066,15.0066,15.0066,15.0066,15.0066,15.0066,15.0066,15.0066,15.0066,15.0066,15.0066,15.0066,15.0066,15.0066,15.0066,15.024,15.0543,15.0586,15.0761,15.1206,15.169,15.2127,15.2436,15.2682,15.2736,15.2756,15.2756,15.2756,15.2756,15.2756,13.4802,13.638,13.8309,13.9772,14.0999,14.3294,14.4291,14.4508,14.5523,14.678,14.7786,14.87,14.9284,14.9265,14.8983,14.9175,14.9964,15.0153,15.1,15.2924,15.3539,15.4791,15.5527,15.5864,15.5913,15.5913,15.5913,15.5913,15.5913,15.5913,15.5913,15.5913,15.5913,15.5913,15.5913,15.5913,15.5913,15.6011,15.6402,15.6717,15.6789,15.7341,15.7722,15.7745,15.8239,15.8563,15.8656,15.8888,15.9027,15.896,15.896,15.896,15.896,15.896,15.896,15.896,15.896,15.896,15.8557,15.706,15.5428,15.3842,15.2367,15.1094,15.0335,15.0133,15.0066,15.0066,15.0066,15.0066,15.0066,15.0066,15.0066,15.0066,15.0066,15.0066,15.0066,15.0066,15.0066,15.0066,15.0066,15.0066,15.0066,15.0066,15.0066,15.0066,15.0066,15.0066,15.0066,15.0066,15.0066,15.0066,15.0066,15.0066,15.0066,15.0066,15.0066,15.0066,15.0066,15.0066,15.0392,15.0736,15.0801,15.0847,15.129,15.1795,15.2065,15.2313,15.258,15.2784,15.2736,15.2756,15.2756,15.2756,15.2756,13.5029,13.6923,13.885,14.0026,14.0871,14.2753,14.4241,14.5191,14.6424,14.8306,15.053,15.1973,15.2235,15.1921,15.1894,15.1868,15.2026,15.234,15.3091,15.3935,15.4465,15.4957,15.5552,15.5913,15.5913,15.5913,15.5913,15.5913,15.5913,15.5913,15.5913,15.5913,15.5913,15.5913,15.5913,15.5913,15.5913,15.6011,15.6499,15.6741,15.7006,15.7745,15.8146,15.831,15.8636,15.8865,15.8865,15.9004,15.9027,15.896,15.896,15.896,15.896,15.896,15.896,15.896,15.896,15.896,15.8826,15.6188,15.4378,15.2904,15.1474,15.0469,15.02,15.0066,15.0066,15.0066,15.0066,15.0066,15.0066,15.0066,15.0066,15.0066,15.0066,15.0066,15.0066,15.0066,15.0066,15.0066,15.0066,15.0133,15.0133,15.0133,15.0133,15.02,15.0133,15.0066,15.0066,15.0066,15.0066,15.0066,15.0066,15.0066,15.0066,15.0066,15.0066,15.0066,15.0066,15.0066,15.0305,15.0694,15.0886,15.1018,15.1396,15.2003,15.2148,15.2231,15.2518,15.2736,15.2756,15.2824,15.2756,15.2756,15.2756,13.4946,13.5743,13.7975,13.9312,14.0088,14.1511,14.2947,14.4281,14.5534,14.8058,15.2002,15.3895,15.4516,15.4062,15.3884,15.3681,15.3833,15.3859,15.4506,15.4932,15.528,15.5552,15.5815,15.5913,15.5913,15.5913,15.5913,15.5913,15.5913,15.5913,15.5913,15.5913,15.5913,15.5913,15.5913,15.5913,15.5913,15.6158,15.6693,15.7222,15.7341,15.8146,15.8705,15.8752,15.8844,15.896,15.896,15.896,15.896,15.896,15.896,15.896,15.896,15.896,15.896,15.896,15.896,15.896,15.8534,15.6993,15.4982,15.277,15.1005,15.0267,15.0066,15.0066,15.0066,15.0066,15.0066,15.0066,15.0066,15.0066,15.0066,15.0066,15.0066,15.0066,15.0066,15.0066,15.0066,15.0402,15.02,15.0267,15.0335,15.049,15.0536,15.0737,15.067,15.0469,15.0267,15.0066,15.0066,15.0066,15.0066,15.0066,15.0066,15.0066,15.0066,15.0066,15.0066,15.0066,15.0197,15.0653,15.0911,15.1163,15.1648,15.2189,15.2436,15.2518,15.2593,15.2804,15.2893,15.2981,15.2913,15.2756,15.2756,13.5324,13.5753,13.7463,13.8718,13.9663,14.04,14.1595,14.3101,14.5545,14.8488,15.1063,15.419,15.5495,15.5273,15.5041,15.519,15.5214,15.5065,15.5404,15.5774,15.5913,15.5913,15.5913,15.5913,15.5913,15.5913,15.5913,15.5913,15.5913,15.5913,15.5913,15.5913,15.5913,15.5913,15.5913,15.5913,15.5913,15.6182,15.6862,15.7437,15.7674,15.8403,15.896,15.896,15.896,15.896,15.896,15.896,15.896,15.896,15.896,15.896,15.896,15.896,15.896,15.896,15.896,15.896,15.8692,15.6926,15.5183,15.2971,15.134,15.0066,15.0066,15.0066,15.0066,15.0066,15.0066,15.0066,15.0066,15.0066,15.0066,15.0066,15.0066,15.0066,15.0066,15.0066,15.02,15.1273,15.1161,15.096,15.096,15.1027,15.1273,15.1474,15.1139,15.0804,15.0402,15.0066,15.0066,15.0066,15.0066,15.0066,15.0066,15.0066,15.0066,15.0066,15.0066,15.0066,15.011,15.0567,15.1036,15.1501,15.1873,15.2354,15.2573,15.2715,15.2893,15.3029,15.3097,15.3323,15.3049,15.2756,15.2756,13.6105,13.6774,13.7384,13.8394,13.9549,13.9638,14.0515,14.2523,14.6649,14.8695,15.032,15.3462,15.5763,15.6124,15.6506,15.6409,15.5994,15.6433,15.619,15.6011,15.5913,15.5913,15.5913,15.5913,15.5913,15.5913,15.5913,15.5913,15.5913,15.5913,15.5913,15.5913,15.5913,15.5913,15.5938,15.6036,15.6109,15.6304,15.7102,15.7579,15.7887,15.8403,15.8937,15.896,15.896,15.896,15.896,15.896,15.896,15.896,15.896,15.896,15.896,15.896,15.896,15.896,15.896,15.8759,15.8021,15.6322,15.4714,15.3552,15.1943,15.0066,15.0066,15.0066,15.0066,15.0066,15.0066,15.0066,15.0066,15.0066,15.0066,15.0066,15.0066,15.0267,15.067,15.0603,15.1228,15.2166,15.2501,15.2501,15.2501,15.3038,15.3351,15.3038,15.277,15.2032,15.1407,15.0335,15.0267,15.02,15.0133,15.0066,15.0066,15.0066,15.0066,15.0066,15.0066,15.0066,15.0132,15.0629,15.1163,15.1606,15.194,15.2348,15.2736,15.2893,15.3097,15.3302,15.3712,15.4258,15.4258,15.4305,15.4101,13.674,13.735,13.7514,13.8269,13.9325,14.008,14.1658,14.3851,14.6734,14.9458,15.2186,15.4213,15.6355,15.7762,15.7797,15.7508,15.7054,15.6789,15.6402,15.6085,15.5913,15.5913,15.5913,15.5913,15.5913,15.5913,15.5913,15.5913,15.5913,15.5913,15.5913,15.5913,15.5913,15.5913,15.6011,15.6231,15.645,15.6523,15.7413,15.7887,15.8099,15.8636,15.8891,15.896,15.896,15.896,15.896,15.896,15.896,15.896,15.896,15.896,15.896,15.896,15.896,15.896,15.896,15.8557,15.7194,15.5786,15.4177,15.277,15.1161,15.0066,15.0066,15.0066,15.0066,15.0066,15.0066,15.0066,15.0066,15.0066,15.02,15.0267,15.0267,15.096,15.1496,15.1898,15.2434,15.3373,15.3976,15.4043,15.4579,15.5116,15.5116,15.4714,15.4043,15.3306,15.2233,15.0893,15.0692,15.0423,15.0335,15.0066,15.0066,15.0066,15.0066,15.0066,15.0066,15.011,15.0305,15.0736,15.129,15.1606,15.192,15.2626,15.3828,15.3507,15.337,15.4462,15.5329,15.5602,15.5739,15.6196,15.608,13.7806,13.8927,13.8927,13.9817,14.1208,14.1809,14.2925,14.4557,14.7006,14.9496,15.1566,15.3738,15.5975,15.7634,15.8572,15.8239,15.7769,15.727,15.6765,15.6353,15.6036,15.5913,15.5913,15.5913,15.5913,15.5913,15.5913,15.5913,15.5913,15.5913,15.5913,15.5913,15.5913,15.5938,15.5962,15.6426,15.6644,15.6958,15.746,15.7981,15.8286,15.8659,15.896,15.896,15.896,15.896,15.896,15.896,15.896,15.896,15.896,15.896,15.896,15.896,15.896,15.896,15.896,15.8199,15.6769,15.5361,15.3976,15.2501,15.1094,15.0133,15.0066,15.0066,15.0066,15.0066,15.0066,15.0066,15.0066,15.0066,15.0423,15.0893,15.1273,15.2099,15.2904,15.3194,15.3797,15.4646,15.5518,15.6188,15.6792,15.706,15.7082,15.6613,15.5987,15.5183,15.3976,15.2568,15.1898,15.1161,15.0624,15.0335,15.0335,15.04,15.0489,15.0596,15.0596,15.0572,15.0656,15.0932,15.1396,15.1795,15.2467,15.3573,15.4748,15.5077,15.537,15.6169,15.7104,15.681,15.6605,15.724,15.7942,13.8847,14.0719,14.0822,14.2113,14.3855,14.4108,14.4319,14.4973,14.7892,14.9274,15.0305,15.2876,15.4959,15.6501,15.7908,15.8458,15.8102,15.7627,15.7078,15.6572,15.6134,15.5913,15.5913,15.5913,15.5913,15.5913,15.5913,15.5913,15.5913,15.5913,15.5913,15.5962,15.6011,15.6036,15.6207,15.6789,15.6796,15.6982,15.7437,15.7911,15.8333,15.8752,15.8937,15.896,15.896,15.896,15.896,15.896,15.896,15.896,15.896,15.896,15.896,15.896,15.896,15.896,15.8669,15.7998,15.6389,15.4848,15.3373,15.1898,15.0804,15.0267,15.0066,15.0066,15.0066,15.0066,15.0066,15.0066,15.0066,15.0267,15.1072,15.1675,15.2367,15.3373,15.4401,15.4848,15.5518,15.6322,15.6926,15.7797,15.8222,15.8624,15.896,15.849,15.7931,15.7127,15.6121,15.4982,15.4177,15.2367,15.1429,15.1094,15.1027,15.1046,15.1176,15.1323,15.1256,15.1143,15.1667,15.2254,15.2316,15.2812,15.341,15.4401,15.6082,15.708,15.7413,15.7995,15.8745,15.8415,15.7933,15.8647,15.9849,13.9131,14.0796,14.1618,14.3203,14.5043,14.597,14.6831,14.7903,14.9252,15.0431,15.1678,15.2525,15.3574,15.5049,15.6388,15.7611,15.8169,15.7722,15.7222,15.6741,15.6231,15.5913,15.5913,15.5913,15.5913,15.5938,15.5962,15.5913,15.5987,15.6036,15.5962,15.6109,15.6426,15.6547,15.6741,15.7341,15.7816,15.8052,15.838,15.8726,15.8865,15.8981,15.896,15.896,15.896,15.896,15.896,15.896,15.896,15.896,15.896,15.896,15.896,15.896,15.896,15.8759,15.7797,15.6523,15.5116,15.3663,15.2434,15.1027,15.0335,15.0133,15.0066,15.0066,15.0066,15.0066,15.0066,15.0066,15.0402,15.1161,15.2032,15.2703,15.3641,15.4557,15.5719,15.6456,15.706,15.7596,15.8333,15.8669,15.8692,15.896,15.896,15.8624,15.8557,15.7797,15.7261,15.6456,15.5585,15.373,15.2635,15.23,15.2141,15.2227,15.2378,15.2725,15.2787,15.2783,15.3193,15.3625,15.4124,15.4579,15.5356,15.6965,15.7869,15.8979,15.9714,16.027,16.0517,16.0717,16.0937,16.1473,16.1603,14.0552,14.3104,14.4124,14.5776,14.7542,14.8247,14.8808,14.9408,14.9848,15.0536,15.1072,15.134,15.2099,15.3574,15.4982,15.6812,15.8005,15.8052,15.7556,15.7054,15.6547,15.6182,15.5913,15.5913,15.5913,15.5987,15.6182,15.6304,15.6304,15.6523,15.6717,15.6717,15.691,15.7078,15.727,15.7863,15.8122,15.831,15.8659,15.8937,15.896,15.896,15.896,15.896,15.896,15.896,15.896,15.896,15.896,15.896,15.896,15.896,15.896,15.8893,15.8692,15.7864,15.7127,15.5853,15.3708,15.2926,15.1697,15.0335,15.0066,15.0066,15.0066,15.0066,15.0066,15.0066,15.0066,15.0356,15.1094,15.1831,15.3038,15.411,15.5049,15.6255,15.7328,15.773,15.8199,15.8669,15.8803,15.8893,15.896,15.896,15.896,15.896,15.896,15.8557,15.8065,15.7596,15.7217,15.5719,15.4915,15.4445,15.4039,15.4059,15.4167,15.4644,15.4835,15.4781,15.5083,15.5393,15.5829,15.6872,15.8739,16.0552,16.1266,16.1236,16.2178,16.2962,16.2726,16.2738,16.3461,16.3749,16.3314,14.2326,14.5776,14.6808,14.8292,14.9914,15.0045,14.9979,15.0066,15.0045,15.0066,15.0133,15.0133,15.0871,15.2099,15.3507,15.5451,15.69,15.7555,15.7534,15.7556,15.7054,15.6547,15.6207,15.6134,15.6036,15.6019,15.6312,15.6554,15.6765,15.7198,15.727,15.7437,15.7532,15.7579,15.7722,15.8075,15.8403,15.852,15.8775,15.896,15.896,15.896,15.896,15.896,15.896,15.896,15.896,15.896,15.896,15.896,15.896,15.8826,15.8534,15.849,15.773,15.659,15.5853,15.4714,15.2904,15.2166,15.1295,15.0469,15.0066,15.0066,15.0066,15.0066,15.0066,15.0066,15.02,15.067,15.2233,15.3105,15.4378,15.5853,15.6859,15.7596,15.849,15.8826,15.8893,15.896,15.896,15.896,15.896,15.896,15.896,15.896,15.896,15.8759,15.849,15.8356,15.8046,15.7465,15.6905,15.6393,15.6007,15.598,15.624,15.6801,15.6926,15.6939,15.6594,15.6956,15.8322,16.0037,16.1869,16.2994,16.3464,16.3734,16.4121,16.4261,16.437,16.4409,16.4785,16.5001,16.4625,14.379,14.6788,14.7951,14.903,14.9979,15.0066,15.0066,15.0066,15.0066,15.0066,15.0066,15.0066,15.0267,15.0737,15.2144,15.2837,15.3998,15.5175,15.6992,15.7581,15.7266,15.6831,15.6644,15.6547,15.6475,15.6011,15.6506,15.6723,15.6934,15.7198,15.765,15.7579,15.7863,15.8075,15.8193,15.8566,15.8842,15.8842,15.8891,15.896,15.896,15.896,15.896,15.896,15.896,15.896,15.896,15.896,15.896,15.896,15.896,15.8289,15.7462,15.6993,15.6367,15.4982,15.3909,15.306,15.2166,15.1228,15.0536,15.02,15.0066,15.0066,15.0066,15.0066,15.0066,15.0066,15.02,15.0737,15.2367,15.4177,15.5853,15.6859,15.7954,15.8624,15.896,15.896,15.896,15.896,15.896,15.9098,15.9098,15.9213,15.9052,15.896,15.896,15.896,15.8893,15.8828,15.8476,15.8007,15.8052,15.7644,15.8015,15.8162,15.8571,15.9024,15.9087,15.8579,15.7891,15.9141,16.0984,16.2941,16.3804,16.4409,16.4892,16.5059,16.5176,16.5331,16.5459,16.5389,16.5709,16.607,16.5792,14.4488,14.678,14.8673,14.9474,14.9671,14.989,15.0066,15.0066,15.0066,15.0066,15.0066,15.0066,15.0066,15.02,15.163,15.2389,15.2859,15.4309,15.5843,15.6635,15.6848,15.6616,15.6645,15.7126,15.727,15.691,15.7246,15.7484,15.7627,15.8005,15.8193,15.831,15.854,15.8566,15.8682,15.8888,15.896,15.896,15.896,15.896,15.896,15.896,15.896,15.896,15.896,15.896,15.896,15.896,15.896,15.8624,15.7485,15.6188,15.5652,15.5518,15.4781,15.3641,15.2635,15.2166,15.1295,15.0469,15.02,15.0066,15.0066,15.0066,15.0066,15.0066,15.0066,15.0066,15.0267,15.1072,15.3306,15.5562,15.697,15.773,15.8624,15.896,15.896,15.896,15.896,15.896,15.8941,15.9147,15.951,15.9782,15.9737,15.9758,15.9736,15.9938,15.9894,15.9669,15.9239,15.9191,15.921,15.9383,15.9904,16.0401,16.0777,16.1008,16.1086,16.0593,16.0392,16.1958,16.3563,16.4091,16.4811,16.5447,16.5842,16.5957,16.6051,16.6108,16.6235,16.631,16.6423,16.6497,16.6404,14.5156,14.7051,14.9053,14.965,14.9451,14.9803,15.0066,15.0066,15.0066,15.0066,15.0066,15.0066,15.0066,15.0155,15.1228,15.1898,15.1965,15.3261,15.44,15.5217,15.5595,15.6152,15.6128,15.708,15.7264,15.7161,15.7668,15.8169,15.8286,15.8566,15.8937,15.8981,15.8867,15.896,15.8914,15.9004,15.896,15.896,15.896,15.896,15.896,15.896,15.896,15.896,15.896,15.896,15.896,15.8692,15.849,15.8088,15.6859,15.5987,15.5451,15.525,15.4579,15.3507,15.2971,15.2434,15.1429,15.134,15.1072,15.134,15.1407,15.1027,15.1072,15.0938,15.067,15.0536,15.0335,15.1228,15.344,15.5518,15.6993,15.7931,15.8624,15.8828,15.8407,15.8296,15.8276,15.8389,15.8501,15.8793,15.9437,15.9276,15.9628,16.0485,16.0725,16.0994,16.0883,16.0703,16.0537,16.0503,16.0498,16.0609,16.1256,16.2139,16.2553,16.286,16.3132,16.2968,16.3754,16.502,16.5118,16.5517,16.5862,16.6127,16.6535,16.6665,16.6535,16.6721,16.692,16.6828,16.6702,16.6865,16.6846,14.6214,14.8514,14.9119,14.9318,14.9363,14.987,15.0023,15.0045,15.0066,15.0066,15.0066,15.0066,15.0066,15.0066,15.049,15.0402,15.049,15.1965,15.2614,15.3462,15.4868,15.5444,15.4516,15.5591,15.5939,15.5859,15.7382,15.7949,15.8136,15.8595,15.887,15.896,15.896,15.896,15.896,15.896,15.896,15.896,15.896,15.896,15.896,15.896,15.896,15.896,15.896,15.896,15.8692,15.7931,15.6993,15.6926,15.7998,15.7127,15.6255,15.6255,15.5451,15.4177,15.3574,15.3641,15.3775,15.3172,15.3641,15.3306,15.344,15.411,15.3172,15.2144,15.163,15.1563,15.0826,15.1094,15.277,15.5049,15.6389,15.6948,15.827,15.7939,15.6791,15.6245,15.6503,15.7164,15.7317,15.7291,15.735,15.7392,15.7613,15.9776,16.0098,16.0222,16.0139,16.0496,16.0887,16.12,16.1537,16.1711,16.2665,16.364,16.3943,16.4558,16.4725,16.4909,16.5671,16.5917,16.6357,16.6609,16.646,16.6628,16.6994,16.6994,16.6939,16.6994,16.6994,16.6994,16.6994,16.6994,16.6994,14.6308,14.7422,14.8493,14.8762,14.8605,14.9297,14.9606,14.965,14.9936,15.0066,15.0066,15.0066,15.0066,15.0066,15.0066,15.0066,15.0155,15.0737,15.1094,15.1429,15.3239,15.373,15.3529,15.4398,15.4976,15.4927,15.5668,15.6539,15.7254,15.7548,15.8199,15.8759,15.896,15.896,15.896,15.896,15.896,15.896,15.896,15.896,15.896,15.896,15.896,15.896,15.896,15.896,15.896,15.8333,15.7127,15.5786,15.5183,15.4848,15.4177,15.3351,15.2546,15.2077,15.1943,15.2032,15.1965,15.1965,15.1943,15.201,15.1943,15.1965,15.1965,15.1496,15.1027,15.1139,15.0469,15.0893,15.2233,15.344,15.4445,15.5519,15.6904,15.7489,15.6679,15.6514,15.6751,15.6962,15.7151,15.7297,15.8162,15.8223,15.8627,15.9085,15.9539,15.9559,15.9459,16.0209,16.077,16.1283,16.1684,16.2311,16.318,16.3803,16.4195,16.5447,16.5828,16.5622,16.5977,16.6069,16.6391,16.6743,16.6887,16.6994,16.6994,16.6994,16.6994,16.6994,16.6994,16.6994,16.6994,16.6994,16.6994,14.635,14.6725,14.7969,14.8288,14.8106,14.8941,14.9296,14.9318,14.9892,15.0066,15.0066,15.0066,15.0066,15.0066,15.0066,15.0066,15.0066,15.0133,15.0066,15.0267,15.1362,15.1764,15.2032,15.3239,15.3954,15.3998,15.4512,15.5116,15.6032,15.6099,15.6859,15.8333,15.8266,15.8467,15.896,15.896,15.896,15.896,15.896,15.896,15.896,15.896,15.896,15.896,15.8557,15.8333,15.8423,15.8065,15.6792,15.5116,15.4043,15.3373,15.3172,15.2278,15.1876,15.1742,15.1541,15.1407,15.1496,15.1563,15.1407,15.1206,15.1898,15.1206,15.1273,15.096,15.067,15.0624,15.0289,15.0645,15.1779,15.2248,15.3095,15.4345,15.527,15.5923,15.611,15.6438,15.6581,15.6845,15.6869,15.726,15.778,15.8141,15.841,15.9193,15.966,15.9976,15.9311,15.9632,16.0279,16.0992,16.1369,16.2447,16.3295,16.379,16.453,16.5656,16.5638,16.502,16.4916,16.5023,16.5586,16.6431,16.622,16.6783,16.6853,16.6712,16.6924,16.6994,16.6994,16.6994,16.6994,16.6994,16.6994,14.6214,14.7144,14.7763,14.7946,14.806,14.8897,14.9319,14.9341,14.9825,15.0066,15.0066,15.0066,15.0066,15.0066,15.0066,15.0066,15.0066,15.0066,15.0066,15.0133,15.0267,15.0402,15.0603,15.1831,15.2456,15.2635,15.3641,15.4378,15.4646,15.4646,15.5361,15.6725,15.6926,15.7462,15.8356,15.8893,15.8624,15.8557,15.8692,15.8692,15.8669,15.8736,15.8759,15.8669,15.7462,15.6769,15.659,15.5518,15.525,15.63,15.5853,15.5049,15.4512,15.4311,15.3641,15.344,15.4088,15.3708,15.3976,15.3306,15.344,15.3306,15.3306,15.4289,15.3306,15.2233,15.163,15.163,15.0846,15.0546,15.1277,15.1645,15.2718,15.4316,15.4312,15.4194,15.46,15.4874,15.549,15.6206,15.6534,15.6626,15.6791,15.6868,15.6978,15.7388,15.8334,15.8516,15.831,15.8805,15.9563,15.9829,15.9935,16.0904,16.203,16.2506,16.2788,16.3562,16.3333,16.2963,16.27,16.2999,16.3492,16.4689,16.5393,16.622,16.6572,16.6149,16.6079,16.6308,16.659,16.6924,16.6994,16.6994,16.6994,14.6776,14.719,14.7352,14.7649,14.8015,14.8583,14.9075,14.9318,14.9825,15.0066,15.0066,15.0066,15.0066,15.0066,15.0066,15.0066,15.0066,15.0066,15.0066,15.0066,15.0066,15.0066,15.02,15.0737,15.0938,15.1072,15.1496,15.2233,15.3105,15.3239,15.3931,15.5116,15.5317,15.5719,15.6121,15.6188,15.6188,15.6188,15.6255,15.6188,15.6188,15.6188,15.6188,15.6121,15.5652,15.5317,15.5116,15.3015,15.2434,15.3708,15.3976,15.3775,15.3172,15.23,15.1764,15.1697,15.1764,15.1809,15.1764,15.1898,15.1764,15.1742,15.1742,15.1742,15.1675,15.1362,15.096,15.1069,15.0922,15.1032,15.1433,15.1873,15.3103,15.4956,15.465,15.4606,15.4844,15.5016,15.5387,15.5705,15.6039,15.6222,15.6477,15.6658,15.6927,15.714,15.7754,15.7773,15.7755,15.7931,15.8142,15.8458,15.8687,15.9549,16.0605,16.1045,16.1257,16.1239,16.1239,16.0957,16.0887,16.1239,16.1873,16.307,16.3633,16.4337,16.483,16.4689,16.49,16.5182,16.5393,16.5816,16.629,16.6501,16.622,14.7102,14.7102,14.7102,14.7375,14.7786,14.8424,14.8807,14.9164,14.9848,15.0066,15.0066,15.0066,15.0066,15.0066,15.0066,15.0066,15.0066,15.0066,15.0066,15.0066,15.0066,15.0066,15.0066,15.0066,15.0066,15.0066,15.0066,15.067,15.1563,15.1697,15.2367,15.3574,15.3842,15.411,15.4646,15.4512,15.4512,15.4579,15.4982,15.5183,15.525,15.5719,15.601,15.5786,15.4982,15.4043,15.3105,15.1139,15.0893,15.2389,15.1898,15.1697,15.1496,15.0603,15.0133,15.0066,15.0066,15.0066,15.0066,15.0133,15.02,15.0133,15.0133,15.0066,15.0066,15.0133,15.0133,15.0221,15.0908,15.158,15.1914,15.2634,15.4013,15.5766,15.5817,15.5687,15.5872,15.578,15.5798,15.5983,15.6259,15.6513,15.6819,15.7033,15.7316,15.7509,15.7614,15.7684,15.7649,15.7702,15.7596,15.7596,15.7737,15.8317,15.8898,15.932,15.9461,15.9531,15.9461,15.925,15.9391,15.976,16.0605,16.138,16.1591,16.1961,16.2454,16.2788,16.3281,16.3633,16.3844,16.4478,16.5234,16.5234,16.4759,14.7036,14.6904,14.7102,14.6885,14.7026,14.7847,14.8561,14.8741,14.9561,14.9932,15.0066,15.0066,15.0066,15.0066,15.0066,14.9932,14.9731,14.9798,14.9865,14.9932,14.9999,15.0066,15.0066,15.0066,15.0066,15.0066,15.0066,15.0133,15.0289,15.0335,15.1005,15.2166,15.2456,15.2904,15.4356,15.411,15.4244,15.4378,15.5183,15.6121,15.6769,15.7418,15.7954,15.7954,15.5719,15.3172,15.0536,15.02,15.0759,15.1898,15.096,15.0133,15.0267,15.0133,15.0066,15.0066,15.0066,15.0066,15.0066,15.0066,15.0088,15.0219,15.0132,15.0305,15.0476,15.0454,15.0476,15.0755,15.1391,15.2039,15.289,15.3551,15.4802,15.6894,15.6856,15.6712,15.6891,15.673,15.6766,15.7334,15.7456,15.7578,15.7649,15.7597,15.7526,15.7578,15.7596,15.7596,15.7596,15.7596,15.7596,15.7596,15.7666,15.7737,15.7684,15.7684,15.7842,15.7895,15.8036,15.8106,15.8405,15.8546,15.9391,15.9743,15.9971,16.0183,16.0658,16.0869,16.1432,16.2084,16.2242,16.2595,16.321,16.3703,16.3281,14.4231,14.4231,14.4231,14.4412,14.4838,14.5396,14.6435,14.7719,14.8332,14.9195,14.9999,15.0066,15.0066,15.0066,15.0066,14.9061,14.7251,14.8123,14.8613,14.8726,14.9597,15.0066,15.0066,15.0066,15.0066,15.0066,15.0066,15.0066,15.0066,15.0066,15.0356,15.0826,15.0804,15.1094,15.1407,15.1496,15.1474,15.1563,15.1943,15.2747,15.3708,15.4244,15.4535,15.4401,15.3663,15.2591,15.1719,15.0624,15.0335,15.0692,15.0335,15.0066,15.0066,15.0066,15.0066,15.0066,15.0066,15.0066,15.0066,15.0066,15.0282,15.0883,15.0989,15.1492,15.245,15.2551,15.2786,15.3384,15.4195,15.4751,15.5046,15.4872,15.5577,15.7365,15.7663,15.768,15.7917,15.7779,15.783,15.7912,15.7898,15.7716,15.7386,15.7579,15.7684,15.7596,15.7596,15.7596,15.7596,15.7596,15.7596,15.7596,15.7596,15.7596,15.7596,15.77,15.784,15.7789,15.7824,15.7754,15.7895,15.7824,15.8036,15.8264,15.8475,15.8669,15.888,15.9021,15.9672,16.0535,16.0746,16.0957,16.1591,16.2013,16.2013,14.285,14.285,14.285,14.3095,14.343,14.4004,14.4951,14.6143,14.6793,14.7654,14.8391,14.8458,14.8458,14.8458,14.8458,14.7364,14.5777,14.6581,14.7117,14.7184,14.7989,14.8458,14.8525,14.9061,14.9262,14.9418,14.9798,15.0066,15.0066,15.0066,15.0066,15.0066,15.0066,15.0066,15.0066,15.0066,15.0066,15.0133,15.0692,15.1362,15.2456,15.2904,15.2904,15.2456,15.2389,15.2121,15.1541,15.0603,15.0066,15.0066,14.953,14.9262,14.9262,14.8793,14.8458,14.8458,14.8436,14.8458,14.8479,14.8737,14.9332,15.0052,15.0422,15.1025,15.2213,15.2558,15.268,15.3207,15.4014,15.5105,15.5398,15.5429,15.5669,15.6717,15.6809,15.6684,15.7033,15.7033,15.7016,15.7152,15.7623,15.7893,15.7929,15.8027,15.8027,15.7993,15.7769,15.7631,15.7596,15.7596,15.7596,15.7596,15.7596,15.7596,15.7596,15.7769,15.7873,15.7752,15.7596,15.7596,15.7596,15.7596,15.7596,15.7965,15.7895,15.8036,15.8176,15.8388,15.8388,15.9039,15.9109,15.9531,16.0447,15.9954,16.0165,14.2652,14.2652,14.2652,14.2543,14.2742,14.3497,14.3979,14.4242,14.5105,14.5555,14.5823,14.5777,14.5488,14.5241,14.5354,14.5354,14.5287,14.5421,14.5509,14.5509,14.5689,14.5622,14.571,14.705,14.7788,14.7922,14.8927,14.9597,14.9865,14.9999,15.0066,15.0066,15.0066,15.0066,15.0066,15.0066,15.0066,15.02,15.1295,15.2255,15.2524,15.3574,15.3462,15.23,15.2166,15.1362,15.0155,14.9865,14.9798,14.9798,14.8525,14.7809,14.7721,14.6514,14.5756,14.5756,14.5689,14.571,14.5861,14.6667,14.7435,14.8153,14.9033,14.9654,15.0913,15.1164,15.1237,15.0726,15.1725,15.2786,15.4644,15.494,15.5033,15.538,15.4943,15.4958,15.515,15.5327,15.4729,15.5333,15.6419,15.7436,15.8909,15.8839,15.8134,15.7993,15.7798,15.7543,15.7525,15.7596,15.7596,15.7596,15.7665,15.7648,15.7753,15.7924,15.7991,15.7855,15.7596,15.7596,15.7596,15.7596,15.7596,15.7596,15.7596,15.7596,15.7596,15.7666,15.7737,15.7807,15.7965,15.7965,15.874,15.7965,15.8106,13.978,13.9802,13.9715,13.9737,13.9846,14.0326,14.1354,14.2649,14.3317,14.4364,14.5488,14.5555,14.39,14.126,14.1998,14.2488,14.2668,14.354,14.4009,14.4143,14.5107,14.5555,14.5622,14.6112,14.6225,14.6313,14.6694,14.7452,14.8525,14.953,15.0066,15.0066,15.0066,15.0066,15.0066,15.0066,15.0066,15.0133,15.0423,15.1295,15.2099,15.1697,15.1161,15.067,14.9731,14.8949,14.8525,14.7431,14.6828,14.6828,14.6426,14.6225,14.6246,14.5823,14.5555,14.5555,14.5555,14.5555,14.5576,14.6459,14.7535,14.8797,14.9654,15.0855,15.2485,15.2924,15.3174,15.3285,15.2095,15.1762,15.3663,15.4038,15.4628,15.591,15.5995,15.6068,15.6185,15.6286,15.6055,15.6286,15.6166,15.6487,15.671,15.6185,15.5834,15.6323,15.6163,15.6276,15.7332,15.7631,15.7613,15.7613,15.8042,15.811,15.7735,15.8044,15.7838,15.7631,15.7717,15.7735,15.7596,15.7684,15.7684,15.7821,15.7665,15.7596,15.7596,15.7596,15.7666,15.7666,15.7666,15.7737,15.7596,15.7596,15.7666,13.6822,13.6822,13.6822,13.6822,13.6929,13.744,13.8348,13.946,14.0132,14.1014,14.1957,14.2024,14.059,13.8263,13.9088,13.9491,13.9537,14.0362,14.0765,14.0878,14.2245,14.2916,14.3029,14.4055,14.4726,14.4726,14.5375,14.6112,14.6983,14.7766,14.8257,14.8257,14.8927,14.9195,14.9262,14.9798,15.0066,15.0066,15.0066,14.9887,14.9574,14.8748,14.8257,14.8123,14.7452,14.6983,14.6849,14.6091,14.5555,14.5555,14.4436,14.3854,14.3854,14.2647,14.2044,14.2044,14.2044,14.2121,14.2448,14.3274,14.4555,14.6385,14.7831,14.9422,15.1251,15.2094,15.2026,15.1401,15.0009,14.9479,15.0496,15.1271,15.2118,15.3208,15.4069,15.4498,15.4708,15.4818,15.4987,15.4959,15.5159,15.535,15.5307,15.5227,15.5318,15.5457,15.5959,15.6011,15.6064,15.7285,15.7535,15.7167,15.8375,15.9004,15.868,15.8631,15.8801,15.8547,15.843,15.843,15.843,15.8333,15.8008,15.8095,15.7838,15.7631,15.7595,15.7596,15.7735,15.801,15.7976,15.7596,15.7596,15.7596,15.6909,13.4344,13.4279,13.441,13.4279,13.4495,13.5203,13.5595,13.58,13.6483,13.6614,13.6185,13.6319,13.6453,13.6473,13.6607,13.6721,13.6741,13.652,13.6587,13.6922,13.7995,13.8666,13.9202,14.1549,14.2911,14.3158,14.4189,14.4839,14.5375,14.5442,14.5555,14.5777,14.6983,14.7654,14.7855,14.8927,14.9597,14.9664,14.9664,14.8345,14.5773,14.5576,14.5555,14.5555,14.5488,14.5375,14.5086,14.5107,14.4906,14.4637,14.2199,14.0899,14.0631,13.8283,13.6694,13.684,13.6706,13.6964,13.7831,13.8696,14.0443,14.24,14.4777,14.6508,14.7736,14.8926,14.8588,14.7131,14.6623,14.6861,14.6731,14.8065,14.9041,14.9384,15.0427,15.1257,15.1326,15.1647,15.1967,15.1967,15.3357,15.4337,15.4327,15.5013,15.5709,15.4926,15.5497,15.568,15.4997,15.6602,15.7556,15.624,15.7791,15.9348,15.898,15.9686,15.9096,15.8854,15.898,15.8656,15.8354,15.819,15.8179,15.7317,15.7501,15.7338,15.7394,15.7627,15.7793,15.8406,15.8245,15.7752,15.7717,15.7454,15.6291,13.4279,13.4279,13.4279,13.4279,13.4408,13.4846,13.5467,13.608,13.6215,13.3995,13.0734,13.243,13.3349,13.3503,13.4642,13.5179,13.5064,13.3991,13.4039,13.5131,13.5534,13.6252,13.7325,13.7928,13.8934,13.994,14.0322,14.1663,14.3741,14.3963,14.4524,14.5509,14.5957,14.6112,14.6179,14.6426,14.6581,14.6627,14.656,14.6292,14.5576,14.5555,14.5555,14.5509,14.4524,14.3426,14.2287,14.1059,13.9986,13.8847,13.8196,13.7861,13.7794,13.6204,13.5385,13.5771,13.4903,13.4809,13.6033,13.8327,14.0756,14.3075,14.4264,14.5285,14.597,14.573,14.5691,14.6567,14.6531,14.6738,14.6852,14.7397,14.7712,14.7712,14.8139,14.8454,14.8467,14.9544,15.0378,15.0523,15.175,15.2689,15.2667,15.2639,15.2561,15.2549,15.3084,15.4003,15.4831,15.6281,15.6265,15.462,15.4909,15.6288,15.6006,15.6303,15.639,15.6062,15.6118,15.641,15.6292,15.6025,15.5782,15.5964,15.5735,15.6074,15.7078,15.7291,15.7782,15.8733,15.8453,15.8218,15.8076,15.7016,15.53,13.1274,13.132,13.1254,13.1274,13.1274,13.1001,13.1381,13.2086,13.1699,12.9722,12.7315,12.9412,13.0418,13.0485,13.129,13.1711,13.1644,13.082,13.1223,13.2631,13.3301,13.4441,13.5782,13.6587,13.7258,13.7908,13.7995,13.8867,14.0342,14.0409,14.1126,14.2513,14.258,14.3251,14.4591,14.5308,14.5555,14.5555,14.2962,14.1575,14.1575,14.1575,14.1642,14.1575,14.0878,14.0027,13.9289,13.8465,13.766,13.6855,13.5514,13.4777,13.4777,13.2832,13.1967,13.2543,13.2183,13.2391,13.3404,13.5588,13.766,13.9545,14.0878,14.135,14.0653,14.084,14.1444,14.2464,14.275,14.2879,14.296,14.4298,14.5178,14.5237,14.6537,14.7331,14.7489,14.8211,14.8717,14.8789,14.9511,15.0004,14.9931,15.0371,15.0612,15.0656,15.167,15.2591,15.3128,15.4768,15.5347,15.3984,15.4758,15.5691,15.5849,15.5835,15.5835,15.5835,15.5835,15.5835,15.5835,15.5523,15.5474,15.5358,15.5099,15.5318,15.5898,15.6214,15.6655,15.7605,15.7436,15.7214,15.7222,15.6239,15.4726,12.748,12.7394,12.7394,12.7303,12.7119,12.6281,12.6265,12.6586,12.539,12.4853,12.4969,12.6462,12.7285,12.7468,12.7486,12.7535,12.7755,12.7535,12.8272,12.9681,13.0869,13.2296,13.379,13.5266,13.5984,13.6252,13.6473,13.6654,13.6855,13.6942,13.7459,13.8599,13.8666,14.0007,14.2441,14.372,14.4369,14.4281,13.9363,13.6875,13.6875,13.6875,13.6875,13.6875,13.6942,13.6808,13.652,13.6319,13.6118,13.5849,13.3427,13.1969,13.173,12.9326,12.8114,12.8566,12.8916,12.9358,13.0137,13.1646,13.302,13.4361,13.633,13.6425,13.4061,13.525,13.6347,13.6864,13.7482,13.7461,13.7677,14.0314,14.1987,14.2144,14.437,14.5959,14.567,14.6176,14.6622,14.6622,14.6983,14.7476,14.7693,14.8691,14.9458,14.9702,15.0723,15.1678,15.1509,15.2506,15.3515,15.3976,15.5204,15.607,15.5715,15.6129,15.5815,15.6215,15.5915,15.5701,15.5629,15.5263,15.4976,15.5235,15.4669,15.4642,15.494,15.4834,15.5365,15.6166,15.5953,15.5507,15.5971,15.515,15.4078,12.5927,12.5947,12.5927,12.5401,12.4676,12.4795,12.4453,12.365,12.1288,0.0,0.0,12.1969,12.3311,12.4383,12.4383,12.5054,12.6127,12.492,12.517,12.6596,12.6779,12.7803,12.9278,13.0753,13.2027,13.3148,13.4441,13.5668,13.6808,13.6875,13.7009,13.7191,13.7258,13.7479,13.8015,13.8263,13.8397,13.833,13.7392,13.6875,13.6875,13.6875,13.6875,13.6875,13.6875,13.6319,13.5112,13.3838,13.2631,13.1443,13.0796,12.9974,12.8891,12.7549,12.6679,12.6326,12.5067,12.4827,12.6129,12.8047,12.9529,13.0294,13.3177,13.3339,12.9375,12.9587,13.1049,13.3719,13.5138,13.5872,13.5957,13.7617,13.8628,13.87,13.9121,13.9567,13.9711,14.1758,14.3444,14.3805,14.5611,14.7331,14.7115,14.7489,14.7778,14.7981,14.9222,15.018,15.0041,14.9432,14.9498,15.0667,15.2026,15.305,15.3037,15.3037,15.305,15.305,15.3037,15.3037,15.3037,15.2883,15.2815,15.2832,15.2805,15.3185,15.428,15.4426,15.5057,15.6395,15.6185,15.5761,15.5678,15.42,15.2653,12.3823,12.4395,12.3692,12.3219,0.0,12.2523,12.1026,11.8707,11.7425,11.7309,11.8197,11.969,12.0678,12.1348,12.1348,12.2153,12.3579,12.2823,12.3713,12.5724,12.5773,12.6578,12.8071,12.8828,12.9546,13.0217,13.1022,13.1711,13.2363,13.2449,13.3167,13.4575,13.4575,13.5313,13.6788,13.6875,13.5715,13.3503,13.424,13.4575,13.4575,13.4575,13.4575,13.4575,13.3905,0.0,0.0,0.0,0.0,0.0,0.0,0.0,0.0,0.0,0.0,12.2041,12.1125,12.1038,12.2087,12.2766,12.3249,12.3587,12.5879,12.5773,12.2201,12.3683,12.5776,12.817,12.9747,13.0674,13.0746,13.2852,13.4296,13.4296,13.5018,13.5812,13.6666,13.8063,13.9303,14.0241,14.1601,14.2913,14.3733,14.4455,14.525,14.6104,14.7548,14.8572,14.85,14.785,14.7548,14.8415,14.9354,14.9728,14.9715,14.9715,14.9728,14.9728,14.9728,14.9728,14.9715,14.9715,14.9728,14.98,15.045,15.1173,15.2112,15.2893,15.3628,15.4237,15.4233,15.3664,15.1792,15.1304,15.1028,12.1127,12.2094,12.1006,12.0612,12.0588,11.9184,11.6806,11.3874,11.3907,11.456,11.5851,11.6991,11.7661,11.7929,11.7912,11.8935,12.0628,12.0628,12.2171,12.4902,12.4987,12.5791,12.72,12.7553,12.7687,12.7669,12.7937,12.7956,12.762,12.7956,12.9144,13.107,13.1405,13.2966,13.5447,0.0,0.0,0.0,13.1022,13.1673,13.1941,13.196,13.1941,13.196,13.082,0.0,13.015,12.8559,12.759,12.7402,12.4849,0.0,0.0,0.0,0.0,0.0,0.0,0.0,0.0,0.0,0.0,0.0,11.5926,11.5729,11.3803,11.6874,11.9866,12.1661,12.3249,12.426,12.4621,12.7304,12.9181,12.9458,13.0614,13.1985,13.3502,13.3935,13.4729,13.6305,13.71,13.7918,13.9387,14.0772,14.2348,14.3805,14.5467,14.6189,14.5513,14.5526,14.6031,14.6478,14.6754,14.7056,14.7331,14.7476,14.762,14.7331,14.7331,14.7404,14.7548,14.7476,14.7404,14.7476,14.85,14.9367,14.9439,15.0378,15.1159,15.1317,15.1231,15.0523,14.7995,14.8487,14.9367,11.7444,11.7679,11.7879,11.7413,11.6463,11.4036,11.2255,11.0957,11.0957,11.1075,11.1292,11.1426,11.2231,11.337,11.337,11.4912,11.7544,11.7611,11.922,12.1987,12.2037,12.2774,12.4249,12.5438,12.6041,12.6108,12.7468,12.7401,12.6108,12.7468,12.7602,12.673,12.7937,12.9498,13.0955,12.9833,12.8962,12.8358,12.8559,12.9211,13.0485,13.0485,13.0552,13.0485,13.0351,13.0198,13.0131,12.7516,12.571,12.5053,12.3239,12.1026,11.8169,11.6463,11.4903,0.0,11.1369,0.0,0.0,0.0,0.0,0.0,0.0,0.0,0.0,10.8231,11.214,11.51,11.6751,11.8267,11.9722,12.1455,12.3032,12.4343,12.4765,12.5487,12.7003,12.852,12.9975,13.1552,13.4152,13.58,13.6173,13.7473,13.9086,14.0772,14.2216,14.2132,13.994,14.053,14.1927,14.3155,14.4455,14.5322,14.6465,14.7043,14.6983,14.7115,14.6898,14.7331,14.697,14.7043,14.7187,14.72,14.7187,14.7561,14.7693,14.7765,14.7995,14.8198,14.7909,14.7561,14.7043,14.7187,14.7693,11.3696,11.439,11.404,11.2377,10.9975,10.8999,10.8385,10.7924,10.794,10.794,10.7924,10.7924,10.8275,10.8847,10.8863,11.026,11.2564,11.3131,11.5112,11.8219,11.8788,12.0435,12.2969,12.3643,12.4317,12.5126,12.5413,12.478,12.3431,12.3567,12.402,12.4585,12.5255,12.6108,12.6971,12.5302,12.5676,12.8004,12.7267,12.7535,12.8943,12.901,12.901,12.901,12.8187,12.7736,12.7718,12.492,12.2831,12.1618,11.9083,11.6448,11.3757,10.9812,10.743,0.0,0.0,0.0,0.0,0.0,0.0,0.0,0.0,0.0,0.0,0.0,10.4125,10.7292,11.1346,11.344,11.2346,11.5317,11.7267,11.705,11.7844,11.9361,12.1816,12.2754,12.4487,12.7726,12.9386,13.1191,13.3863,13.4801,13.6113,13.8568,13.8003,13.7196,13.6751,13.7906,13.9158,13.988,14.059,14.1312,14.189,14.2034,14.2034,14.2034,14.2047,14.2022,14.2034,14.2034,14.2034,14.2106,14.2854,14.3661,14.4587,14.5394,14.6406,14.6609,14.4574,14.2323,14.2034,14.2782,14.3805,10.9539,11.0384,10.8036,10.5445,10.2815,10.355,10.4036,10.4356,10.4691,10.4706,10.4289,10.4036,10.3709,10.3493,10.3627,10.4933,10.7158,10.8207,11.0696,11.4234,11.5206,11.7393,12.0474,12.0747,12.1492,12.2592,12.2107,12.108,11.9681,11.9364,12.0157,12.1731,12.1301,12.139,12.205,12.1441,12.2713,12.5926,12.5668,12.6004,12.7017,12.7401,12.7553,12.7535,12.6395,12.5639,12.5255,12.2439,12.003,11.8068,11.4633,11.1306,10.8094,10.2594,0.0,0.0,0.0,0.0,0.0,0.0,0.0,0.0,0.0,8.4203,8.7813,0.0,9.5532,0.0,10.4928,10.788,10.6498,10.9685,0.0,0.0,11.2284,11.4079,11.6906,11.7267,11.8927,12.3166,12.4043,12.5993,13.0325,13.1191,13.2346,13.4573,13.3574,13.2984,13.4224,13.6017,13.7244,13.7316,13.7677,13.7822,13.8038,13.7822,13.7894,13.7316,13.7316,13.7244,13.7244,13.7533,13.7822,13.7894,13.8941,14.005,14.1337,14.242,14.3491,14.3504,14.0157,13.6666,13.6739,13.8075,13.9544,10.4753,10.4468,9.8326,9.5619,9.5504,9.7138,9.8673,9.9933,10.1221,10.1072,9.9813,9.8472,9.7331,9.6464,9.6945,0.0,10.1606,10.3117,10.6112,11.0347,11.1235,11.2854,11.4923,11.5831,11.6609,11.7269,11.718,11.6132,11.4341,11.6033,11.6728,11.6451,11.4685,11.416,11.5112,11.8264,11.9877,11.9926,12.3054,12.4487,12.3999,12.5304,12.5974,12.5926,12.584,12.5103,12.378,12.0879,11.7933,11.4982,11.0916,10.6188,10.0716,0.0,0.0,0.0,0.0,0.0,0.0,0.0,0.0,0.0,0.0,0.0,0.0,0.0,0.0,9.0919,9.5829,0.0,10.4423,10.5126,0.0,0.0,0.0,11.0479,11.214,11.2356,11.3584,11.6823,0.0,0.0,12.3971,12.5632,12.6631,12.6848,12.9314,13.1047,13.1191,13.3706,13.5668,13.5439,13.6811,13.7677,13.7172,13.7244,13.6811,13.5596,13.5668,13.5439,13.5523,13.6534,13.7605,13.7388,13.7834,13.805,13.811,13.805,13.7533,13.4874,13.3791,13.3429,13.3357,13.4513,13.5668,9.6848,9.1462,8.8899,8.8103,8.8525,8.9245,8.9889,9.0521,9.1278,9.1198,9.0386,9.0076,8.9705,8.9293,8.95,0.0,0.0,0.0,9.8561,10.3639,10.4772,10.7779,11.2147,11.2694,11.3446,11.4476,11.4012,11.2935,11.1278,11.1702,11.0126,10.6954,0.0,0.0,11.011,11.2745,11.4927,11.6755,12.0514,12.2811,12.354,12.4946,12.5077,12.3781,12.2852,12.1499,11.969,11.6319,11.2687,10.8926,10.4336,9.9387,0.0,0.0,0.0,0.0,0.0,0.0,0.0,0.0,0.0,0.0,0.0,6.7677,7.0554,0.0,0.0,0.0,8.5807,8.9482,9.4177,9.712,0.0,0.0,0.0,0.0,0.0,0.0,0.0,10.7798,11.1851,11.6194,12.0227,11.9639,11.9567,12.1516,12.4476,12.6859,12.7726,0.0,13.1263,13.1263,13.1769,13.2202,13.2202,13.2202,13.1997,13.1336,13.1275,13.1263,13.1263,13.1769,13.2202,13.2202,13.2202,13.2491,13.3429,13.1191,12.8809,12.7653,12.7437,12.7437,12.7437,12.8664,13.0108,8.7596,0.0,0.0,0.0,0.0,8.1434,8.1976,8.2811,8.3062,8.2745,8.21,8.1986,0.0,0.0,0.0,0.0,0.0,0.0,9.1607,9.6068,9.8502,10.2158,10.6622,10.785,10.8745,10.9517,10.9385,10.8355,10.6405,10.3964,10.0655,9.6788,0.0,0.0,0.0,0.0,11.0648,11.3393,11.7575,12.0769,12.2935,12.4704,12.4682,12.2778,12.044,11.8026,11.5676,11.1438,10.7182,10.3025,9.7679,0.0,0.0,0.0,0.0,0.0,0.0,0.0,0.0,0.0,0.0,0.0,0.0,0.0,0.0,0.0,0.0,0.0,0.0,0.0,8.4409,8.9107,9.1721,0.0,0.0,0.0,0.0,0.0,0.0,0.0,0.0,0.0,11.3796,11.3011,11.355,0.0,0.0,12.3032,12.5043,12.6715,12.7953,12.8459,12.847,0.0,12.847,12.847,12.817,12.7231,12.7087,12.6943,12.6509,12.6798,12.7087,12.7159,12.7076,12.6798,12.6159,12.3318,12.1349,12.1132,12.1132,12.1132,12.1255,12.2646,12.4321,0.0,0.0,0.0,0.0,0.0,0.0,0.0,0.0,7.8382,7.7478,0.0,7.4732,0.0,0.0,0.0,0.0,7.6444,8.2224,0.0,0.0,9.2805,9.5655,9.6579,10.0332,10.168,10.103,10.2341,10.1295,9.7893,9.166,0.0,0.0,0.0,0.0,0.0,0.0,10.7491,10.9262,11.3983,11.8235,12.1804,12.4094,12.4604,12.3354,11.91,11.5341,11.2222,10.6853,10.1998,9.8122,9.1424,0.0,0.0,0.0,0.0,0.0,0.0,0.0,0.0,0.0,0.0,0.0,0.0,0.0,0.0,0.0,0.0,0.0,0.0,0.0,0.0,8.1422,0.0,0.0,0.0,0.0,0.0,0.0,0.0,0.0,0.0,10.2744,10.3263,10.5854,10.9361,11.3634,0.0,0.0,0.0,0.0,12.657,12.8098,12.8459,12.8398,12.8387,12.8387,12.7304,12.426,0.0,0.0,12.1816,12.2744,12.3693,12.3754,12.361,12.1805,11.5925,11.502,11.5156,11.5175,11.5083,11.5165,11.5355,11.7073,11.8939,0.0,0.0,0.0,0.0,0.0,0.0,0.0,0.0,0.0,6.6016,0.0,6.509,0.0,0.0,0.0,0.0,0.0,0.0,0.0,0.0,8.5093,8.7935,8.9246,9.2407,9.3287,0.0,9.2804,8.897,0.0,0.0,0.0,0.0,0.0,0.0,0.0,0.0,10.0618,10.3426,11.1682,11.7562,12.0848,12.3646,12.4699,12.3798,11.8951,11.2831,10.5405,10.0822,9.602,0.0,0.0,0.0,0.0,0.0,0.0,0.0,0.0,0.0,0.0,0.0,0.0,0.0,0.0,0.0,0.0,0.0,0.0,0.0,0.0,0.0,0.0,0.0,7.6888,0.0,0.0,0.0,0.0,0.0,0.0,0.0,0.0,0.0,9.527,10.0483,10.5682,10.9343,11.3228,11.6534,11.8628,0.0,0.0,0.0,0.0,0.0,0.0,0.0,12.1516,11.9278,11.9147,11.8815,11.7231,11.7448,11.7811,11.78,0.0,0.0,10.9844,10.8892,10.9092,10.9028,10.8215,10.785,10.8808,10.9798,11.1107,0.0,0.0,0.0,0.0,0.0,0.0,0.0,0.0,0.0,5.6513,5.6721,0.0,0.0,0.0,0.0,0.0,0.0,0.0,0.0,0.0,0.0,0.0,8.1028,8.4799,0.0,0.0,0.0,0.0,0.0,0.0,0.0,0.0,0.0,0.0,0.0,0.0,9.5527,9.9052,10.8691,11.5451,11.9034,12.2336,12.341,12.1968,11.8331,11.1937,10.2727,0.0,0.0,0.0,0.0,0.0,0.0,0.0,0.0,0.0,0.0,0.0,0.0,0.0,0.0,0.0,0.0,0.0,0.0,0.0,0.0,0.0,0.0,0.0,0.0,0.0,6.8496,0.0,0.0,0.0,0.0,0.0,0.0,0.0,0.0,0.0,0.0,0.0,10.0778,10.5412,10.8927,11.1989,11.4533,11.6328,11.7483,0.0,0.0,0.0,0.0,0.0,0.0,0.0,0.0,0.0,0.0,0.0,0.0,0.0,0.0,10.5353,10.1663,10.1273,10.1368,10.1376,0.0,0.0,0.0,0.0,0.0,0.0,0.0,0.0,0.0,0.0,0.0,0.0,0.0,0.0,0.0,4.841,0.0,0.0,4.6412,0.0,0.0,0.0,0.0,0.0,0.0,0.0,0.0,0.0,0.0,0.0,0.0,0.0,0.0,0.0,0.0,0.0,0.0,0.0,0.0,0.0,0.0,9.2611,9.6173,10.5165,11.1932,11.6454,12.0045,12.0593,11.8122,11.6939,11.2533,10.4244,0.0,0.0,0.0,0.0,0.0,0.0,0.0,0.0,0.0,0.0,0.0,0.0,0.0,0.0,0.0,0.0,0.0,0.0,0.0,0.0,0.0,0.0,0.0,0.0,0.0,0.0,6.0888,6.3747,6.7009,0.0,0.0,0.0,0.0,0.0,0.0,0.0,0.0,0.0,10.1846,10.4129,10.6653,11.1,11.3026,11.4543,11.5957,11.6194,11.6183,11.6173,11.4946,11.343,0.0,0.0,0.0,0.0,0.0,0.0,0.0,0.0,0.0,0.0,0.0,0.0,0.0,0.0,0.0,0.0,0.0,0.0,0.0,0.0,0.0,0.0,0.0,0.0,0.0,0.0,0.0,0.0,0.0,0.0,0.0,0.0,0.0,0.0,0.0,0.0,0.0,0.0,0.0,0.0,0.0,0.0,0.0,0.0,0.0,0.0,0.0,0.0,0.0,0.0,0.0,0.0,0.0,0.0,8.9743,9.3128,10.3327,11.0314,11.3852,11.6057,11.6759,11.593,11.3232,10.8473,0.0,0.0,0.0,0.0,0.0,0.0,0.0,0.0,0.0,0.0,0.0,0.0,0.0,0.0,0.0,0.0,0.0,0.0,0.0,0.0,0.0,0.0,0.0,0.0,0.0,0.0,0.0,0.0,6.2162,6.4103,6.3854,0.0,0.0,0.0,0.0,0.0,0.0,0.0,0.0,0.0,0.0,10.2003,10.6755,10.9537,11.116,11.1457,11.0721,11.0518,11.1395,11.019,10.852,10.6941,0.0,0.0,0.0,0.0,0.0,0.0,0.0,0.0,0.0,0.0,0.0,0.0,0.0,0.0,0.0,0.0,0.0,0.0,0.0,0.0,0.0,0.0,0.0,0.0,0.0,0.0,0.0,0.0,0.0,0.0,0.0,0.0,0.0,0.0,0.0,0.0,0.0,0.0,0.0,0.0,0.0,0.0,0.0,0.0,0.0,0.0,0.0,0.0,0.0,0.0,0.0,0.0,0.0,8.6085,8.9974,10.0728,10.8098,11.1666,11.2796,11.3273,11.3273,11.0532,10.5481,0.0,0.0,0.0,0.0,0.0,0.0,0.0,0.0,0.0,0.0,0.0,0.0,0.0,0.0,0.0,0.0,0.0,0.0,0.0,0.0,0.0,0.0,0.0,0.0,0.0,0.0,0.0,0.0,5.8746,6.0388,5.933,0.0,0.0,0.0,0.0,0.0,0.0,0.0,0.0,0.0,0.0,9.8091,10.2219,10.4689,0.0,0.0,10.6471,10.5864,10.6564,10.5785,10.4378,10.2355,10.2325,0.0,0.0,0.0,0.0,0.0,0.0,0.0,0.0,0.0,0.0,0.0,0.0,0.0,0.0,0.0,0.0,0.0,0.0,0.0,0.0,0.0,0.0,0.0,0.0,0.0,0.0,0.0,0.0,0.0,0.0,0.0,0.0,0.0,0.0,0.0,0.0,0.0,0.0,0.0,0.0,0.0,0.0,0.0,0.0,0.0,0.0,0.0,0.0,0.0,0.0,0.0,0.0,8.2189,8.6995,9.7671,10.5509,10.9871,11.0085,11.0157,11.0228,10.8598,10.3257,0.0,0.0,0.0,0.0,0.0,0.0,0.0,0.0,0.0,0.0,0.0,0.0,0.0,0.0,0.0,0.0,0.0,0.0,0.0,0.0,0.0,0.0,0.0,0.0,0.0,0.0,0.0,0.0,0.0,0.0,0.0,0.0,0.0,0.0,0.0,0.0,0.0,0.0,0.0,0.0,0.0,9.4391,9.759,9.9257,10.1142,0.0,10.3148,10.2166,10.1714,10.1651,10.0656,9.7801,0.0,0.0,0.0,0.0,0.0,0.0,0.0,0.0,0.0,0.0,0.0,0.0,0.0,0.0,0.0,0.0,0.0,0.0,0.0,0.0,0.0,0.0,0.0,0.0,0.0,0.0,0.0,0.0,0.0,0.0,0.0,0.0,0.0,0.0,0.0,0.0,0.0,0.0,0.0,0.0,0.0,0.0,0.0,0.0,0.0,0.0,0.0,0.0,0.0,0.0,0.0,0.0,0.0,0.0,8.5503,9.6154,10.3389,10.6743,10.6946,10.7456,10.8537,10.6029,0.0,0.0,0.0,0.0,0.0,0.0,0.0,0.0,0.0,0.0,0.0,0.0,0.0,0.0,0.0,0.0,0.0,0.0,0.0,0.0,0.0,0.0,0.0,0.0,0.0,0.0,0.0,4.9593,0.0,0.0,0.0,0.0,0.0,0.0,0.0,0.0,0.0,0.0,0.0,0.0,0.0,0.0,8.7454,9.4101,9.7283,9.9144,0.0,0.0,9.8713,9.6089,9.5503,9.4448,0.0,0.0,0.0,0.0,0.0,0.0,0.0,0.0,0.0,0.0,0.0,0.0,0.0,0.0,0.0,0.0,0.0,0.0,0.0,0.0,0.0,0.0,0.0,0.0,0.0,0.0,0.0,0.0,0.0,0.0,0.0,0.0,0.0,0.0,0.0,0.0,0.0,0.0,0.0,0.0,0.0,0.0,0.0,0.0,0.0,0.0,0.0,0.0,0.0,0.0,0.0,0.0,0.0,0.0,7.8606,8.4056,9.2718,9.967,10.4594,10.4155,10.4542,10.6029,10.3664,9.7648,0.0,0.0,0.0,0.0,0.0,0.0,0.0,0.0,0.0,0.0,0.0,0.0,0.0,0.0,0.0,0.0,0.0,0.0,0.0,0.0,0.0,0.0,0.0,0.0,0.0,0.0,0.0,0.0,0.0,0.0,0.0,0.0,0.0,0.0,0.0,0.0,0.0,0.0,0.0,0.0,0.0,0.0,8.9202,9.2059,0.0,0.0,0.0,9.4522,9.1967,0.0,0.0,0.0,0.0,0.0,0.0,0.0,0.0,0.0,0.0,0.0,0.0,0.0,0.0,0.0,0.0,0.0,0.0,0.0,0.0,0.0,0.0,0.0,0.0,0.0,0.0,0.0,0.0,0.0,0.0,0.0,0.0,0.0,0.0,0.0,0.0,0.0,0.0,0.0,0.0,0.0,0.0,0.0,0.0,0.0,0.0,0.0,0.0,0.0,0.0,0.0,0.0,0.0,0.0,0.0,0.0,0.0,8.223,8.895,9.596,10.2815,10.1803,10.1805,10.3369,10.1534,9.5417,0.0,0.0,0.0,0.0,0.0,0.0,0.0,0.0,0.0,0.0,0.0,0.0,0.0,0.0,0.0,0.0,0.0,0.0,0.0,0.0,0.0,0.0,0.0,0.0,0.0,0.0,0.0,0.0,0.0,0.0,0.0,0.0,0.0,0.0,0.0,0.0,0.0,0.0,0.0,0.0,0.0,8.0288,8.3664,8.5561,8.6967,0.0,0.0,8.9837,8.7996,8.7363,0.0,0.0,0.0,0.0,0.0,0.0,0.0,0.0,0.0,0.0,0.0,0.0,0.0,0.0,0.0,0.0,0.0,0.0,0.0,0.0,0.0,0.0,0.0,0.0,0.0,0.0,0.0,0.0,0.0,0.0,0.0,0.0,0.0,0.0,0.0,0.0,0.0,0.0,0.0,0.0,0.0,0.0,0.0,0.0,0.0,0.0,0.0,0.0,0.0,0.0,0.0,0.0,0.0,0.0,0.0,0.0,8.0821,8.9396,9.6347,10.1267,10.0161,10.0713,10.3226,9.9475,9.2831,0.0,0.0,0.0,0.0,0.0,0.0,0.0,0.0,0.0,0.0,0.0,0.0,0.0,0.0,0.0,0.0,0.0,0.0,0.0,0.0,0.0,0.0,0.0,0.0,0.0,0.0,0.0,0.0,0.0,0.0,0.0,0.0,0.0,0.0,0.0,0.0,0.0,0.0,0.0,0.0,0.0,7.5501,7.8634,8.2635,0.0,0.0,0.0,0.0,8.0636,7.98,0.0,0.0,0.0,0.0,0.0,0.0,0.0,0.0,0.0,0.0,0.0,0.0,0.0,0.0,0.0,0.0,0.0,0.0,0.0,0.0,0.0,0.0,0.0,0.0,0.0,0.0,0.0,0.0,0.0,0.0,0.0,0.0,0.0,0.0,0.0,0.0,0.0,0.0,0.0,0.0,0.0,0.0,0.0,0.0,0.0,0.0,0.0,0.0,0.0,0.0,0.0,0.0,0.0,0.0,0.0,0.0,7.9343,8.6386,9.2687,9.7814,9.7957,9.8689,10.0077,9.6992,9.0876,0.0,0.0,0.0,0.0,0.0,0.0,0.0,0.0,0.0,0.0,0.0,0.0,0.0,0.0,0.0,0.0,0.0,0.0,0.0,0.0,0.0,0.0,0.0,0.0,0.0,0.0,0.0,0.0,0.0,0.0,0.0,0.0,0.0,0.0,0.0,0.0,0.0,0.0,0.0,0.0,6.7544,7.1069,7.4947,0.0,0.0,0.0,0.0,0.0,0.0,7.4473,7.2511,0.0,0.0,0.0,0.0,0.0,0.0,0.0,0.0,0.0,0.0,0.0,0.0,0.0,0.0,0.0,0.0,0.0,0.0,0.0,0.0,0.0,0.0,0.0,0.0,0.0,0.0,0.0,0.0,0.0,0.0,0.0,0.0,0.0,0.0,0.0,0.0,0.0,0.0,0.0,0.0,0.0,0.0,0.0,0.0,0.0,0.0,0.0,0.0,0.0,0.0,0.0,0.0,0.0,0.0,0.0,7.8236,8.3023,8.8529,9.4603,9.5854,9.6429,9.6384,9.4336,8.89,7.9888,0.0,0.0,0.0,0.0,0.0,0.0,0.0,0.0,0.0,0.0,0.0,0.0,0.0,0.0,0.0,0.0,0.0,0.0,0.0,0.0,0.0,0.0,0.0,0.0,0.0,0.0,0.0,0.0,0.0,0.0,0.0,0.0,0.0,0.0,0.0,0.0,0.0,0.0,0.0,6.4858,6.6929,0.0,0.0,0.0,0.0,0.0,0.0,0.0,0.0,6.7725,0.0,0.0,0.0,0.0,0.0,0.0,0.0,0.0,0.0,0.0,0.0,0.0,0.0,0.0,0.0,0.0,0.0,0.0,0.0,0.0,0.0,0.0,0.0,0.0,0.0,0.0,0.0,0.0,0.0,0.0,0.0,0.0,0.0,0.0,0.0,0.0,0.0,0.0,0.0,0.0,0.0,0.0,0.0,0.0,0.0,0.0,0.0,0.0,0.0,0.0,0.0,0.0,0.0,0.0,0.0,0.0,8.2896,8.836,9.4212,9.4936,9.5063,9.4805,9.1894,8.5992,7.6957,0.0,0.0,0.0,0.0,0.0,0.0,0.0,0.0,0.0,0.0,0.0,0.0,0.0,0.0,0.0,0.0,0.0,0.0,0.0,0.0,0.0,0.0,0.0,0.0,0.0,0.0,0.0,0.0,0.0,0.0,0.0,0.0,0.0,0.0,0.0,0.0,0.0,0.0,5.5669,5.9551,0.0,0.0,0.0,0.0,0.0,0.0,0.0,0.0,6.6702,0.0,0.0,0.0,0.0,0.0,0.0,0.0,0.0,0.0,0.0,0.0,0.0,0.0,0.0,0.0,0.0,0.0,0.0,0.0,0.0,0.0,0.0,0.0,0.0,0.0,0.0,0.0,0.0,0.0,0.0,0.0,0.0,0.0,0.0,0.0,0.0,0.0,0.0,0.0,0.0,0.0,0.0,0.0,0.0,0.0,0.0,0.0,0.0,0.0,0.0,0.0,0.0,0.0,0.0,0.0,0.0,0.0,0.0,8.5527,9.0685,9.2546,9.3452,9.3377,8.7895,8.0912,0.0,0.0,0.0,0.0,0.0,0.0,0.0,0.0,0.0,0.0,0.0,0.0,0.0,0.0,0.0,0.0,0.0,0.0,0.0,0.0,0.0,0.0,0.0,0.0,0.0,0.0,0.0,0.0,0.0,0.0,0.0,0.0,0.0,0.0,0.0,0.0,0.0,0.0,0.0,0.0,0.0,0.0,0.0,0.0,0.0,0.0,0.0,0.0,0.0,0.0,0.0,0.0,0.0,0.0,0.0,0.0,0.0,0.0,0.0,0.0,0.0,0.0,0.0,0.0,0.0,0.0,0.0,0.0,0.0,0.0,0.0,0.0,0.0,0.0,0.0,0.0,0.0,0.0,0.0,0.0,0.0,0.0,0.0,0.0,0.0,0.0,0.0,0.0,0.0,0.0,0.0,0.0,0.0,0.0,0.0,0.0,0.0,0.0,0.0,0.0,0.0,0.0,0.0,0.0,0.0,0.0,0.0,0.0,8.2209,8.708,9.0159,9.1577,9.1119,8.3654,7.6068,0.0,0.0,0.0,0.0,0.0,0.0,0.0,0.0,0.0,0.0,0.0,0.0,0.0,0.0,0.0,0.0,0.0,0.0,0.0,0.0,0.0,0.0,0.0,0.0,0.0,0.0,0.0,0.0,0.0,0.0,0.0,0.0,0.0,0.0,0.0,0.0,0.0,0.0,0.0,0.0,0.0,0.0,0.0,0.0,0.0,0.0,0.0,0.0,6.0999,0.0,0.0,0.0,0.0,0.0,0.0,0.0,0.0,0.0,0.0,0.0,0.0,0.0,0.0,0.0,0.0,0.0,0.0,0.0,0.0,0.0,0.0,0.0,0.0,0.0,0.0,0.0,0.0,0.0,0.0,0.0,0.0,0.0,0.0,0.0,0.0,0.0,0.0,0.0,0.0,0.0,0.0,0.0,0.0,0.0,0.0,0.0,0.0,0.0,0.0,0.0,0.0,0.0,0.0,0.0,0.0,0.0,0.0,0.0,7.9502,8.5632,8.8929,8.9234,8.6217,7.9711,7.3189,0.0,0.0,0.0,0.0,0.0,0.0,0.0,0.0,0.0,0.0,0.0,0.0,0.0,0.0,0.0,0.0,0.0,0.0,0.0,0.0,0.0,0.0,0.0,0.0,0.0,0.0,0.0,0.0,0.0,0.0,0.0,0.0,0.0,0.0,0.0,0.0,0.0,0.0,0.0,0.0,0.0,0.0,0.0,0.0,0.0,0.0,0.0,0.0,0.0,0.0,0.0,0.0,0.0,0.0,0.0,0.0,0.0,0.0,0.0,0.0,0.0,0.0,0.0,0.0,0.0,0.0,0.0,0.0,0.0,0.0,0.0,0.0,0.0,0.0,0.0,0.0,0.0,0.0,0.0,0.0,0.0,0.0,0.0,0.0,0.0,0.0,0.0,0.0,0.0,0.0,0.0,0.0,0.0,0.0,0.0,0.0,0.0,0.0,0.0,0.0,0.0,0.0,0.0,0.0,0.0,0.0,0.0,0.0,7.4558,7.9806,8.3988,8.3819,7.9,7.3318,6.8259,0.0,0.0,0.0,0.0,0.0,0.0,0.0,0.0,0.0,0.0,0.0,0.0,0.0,0.0,0.0,0.0,0.0,0.0,0.0,0.0,0.0,0.0,0.0,0.0,0.0,0.0,0.0,0.0,0.0,0.0,0.0,0.0,0.0,0.0,0.0,0.0,0.0,0.0,0.0,0.0,0.0,0.0,0.0,0.0,0.0,0.0,0.0,0.0,0.0,0.0,0.0,0.0,0.0,0.0,0.0,0.0,0.0,0.0,0.0,0.0,0.0,0.0,0.0,0.0,0.0,0.0,0.0,0.0,0.0,0.0,0.0,0.0,0.0,0.0,0.0,0.0,0.0,0.0,0.0,0.0,0.0,0.0,0.0,0.0,0.0,0.0,0.0,0.0,0.0,0.0,0.0,0.0,0.0,0.0,0.0,0.0,0.0,0.0,0.0,0.0,0.0,0.0,0.0,0.0,0.0,0.0,0.0,0.0,0.0,7.4597,7.8141,7.7827,7.3487,6.849,6.4433,0.0,0.0,0.0,0.0,0.0,0.0,0.0,0.0,0.0,0.0,0.0,0.0,0.0,0.0,0.0,0.0,0.0,0.0,0.0,0.0,0.0,0.0,0.0,0.0,0.0,0.0,0.0,0.0,0.0,0.0,0.0,0.0,0.0,0.0,0.0,0.0,0.0,0.0,0.0,0.0,0.0,0.0,0.0,0.0,0.0,0.0,0.0,0.0,0.0,0.0,0.0,0.0,0.0,0.0,0.0,0.0,0.0,0.0,0.0,0.0,0.0,0.0,0.0,0.0,0.0,0.0,0.0,0.0,0.0,0.0,0.0,0.0,0.0,0.0,0.0,0.0,0.0,0.0,0.0,0.0,0.0,0.0,0.0,0.0,0.0,0.0,0.0,0.0,0.0,0.0,0.0,0.0,0.0,0.0,0.0,0.0,0.0,0.0,0.0,0.0,0.0,0.0,0.0,0.0,0.0,0.0,0.0,0.0,0.0,7.1912,7.198,7.1807,7.1399,6.6762,6.2838,0.0,0.0,0.0,0.0,0.0,0.0,0.0,0.0,0.0,0.0,0.0,0.0,0.0,0.0,0.0,0.0,0.0,0.0,0.0,0.0,0.0,0.0,0.0,0.0,0.0,0.0,0.0,0.0,0.0,0.0,0.0,0.0,0.0,0.0,0.0,0.0,0.0,0.0,0.0,0.0,0.0,0.0,0.0,0.0,0.0,0.0,0.0,0.0,0.0,0.0,0.0,0.0,0.0,0.0,0.0,0.0,0.0,0.0,0.0,0.0,0.0,0.0,0.0,0.0,0.0,0.0,0.0,0.0,0.0,0.0,0.0,0.0,0.0,0.0,0.0,0.0,0.0,0.0,0.0,0.0,0.0,0.0,0.0,0.0,0.0,0.0,0.0,0.0,0.0,0.0,0.0,0.0,0.0,0.0,0.0,0.0,0.0,0.0,0.0,0.0,0.0,0.0,0.0,0.0,0.0,0.0,0.0,0.0,0.0,6.3141,6.581,6.7223,6.7223,6.2588,5.948,5.8103,0.0,0.0,0.0,0.0,0.0,0.0,0.0,0.0,0.0,0.0,0.0,0.0,0.0,0.0,0.0,0.0,0.0,0.0,0.0,0.0,0.0,0.0,0.0,0.0,0.0,0.0,0.0,0.0,0.0,0.0,0.0,0.0,0.0,0.0,0.0,0.0,0.0,0.0,0.0,0.0,0.0,0.0,0.0,0.0,0.0,0.0,0.0,0.0,0.0,0.0,0.0,0.0,0.0,0.0,0.0,0.0,0.0,0.0,0.0,0.0,0.0,0.0,0.0,0.0,0.0,0.0,0.0,0.0,0.0,0.0,0.0,0.0,0.0,0.0,0.0,0.0,0.0,0.0,0.0,0.0,0.0,0.0,0.0,0.0,0.0,0.0,0.0,0.0,0.0,0.0,0.0,0.0,0.0,0.0,0.0,0.0,0.0,0.0,0.0,0.0,0.0,0.0,0.0,0.0,0.0,0.0,0.0,0.0,5.8558,6.2596,6.4493,6.3909,6.0426,5.7639,0.0,0.0,0.0,0.0,0.0,0.0,0.0,0.0,0.0,0.0,0.0,0.0,0.0,0.0,0.0,0.0,0.0,0.0,0.0,0.0,0.0,0.0,0.0,0.0,0.0,0.0,0.0,0.0,0.0,0.0,0.0,0.0,0.0,0.0,0.0,0.0,0.0,0.0,0.0,0.0,0.0,0.0,0.0,0.0,0.0,0.0,0.0,0.0,0.0,0.0,0.0,0.0,0.0,0.0,0.0,0.0,0.0,0.0,0.0,0.0,0.0,0.0,0.0,0.0,0.0,0.0,0.0,0.0,0.0,0.0,0.0,0.0,0.0,0.0,0.0,0.0,0.0,0.0,0.0,0.0,0.0,0.0,0.0,0.0,0.0,0.0,0.0,0.0,0.0,0.0,0.0,0.0,0.0,0.0,0.0,0.0,0.0,0.0,0.0,0.0,0.0,0.0,0.0,0.0,0.0,0.0,0.0,0.0,5.1876,5.9614,6.2975,6.3851,6.244,6.0786,5.7639,0.0,0.0,0.0,0.0,0.0,0.0,0.0,0.0,0.0,0.0,0.0,0.0,0.0,0.0,0.0,0.0,0.0,0.0,0.0,0.0,0.0,0.0,0.0,0.0,0.0,0.0,0.0,0.0,0.0,0.0,0.0,0.0,0.0,0.0,0.0,0.0,0.0,0.0,0.0,0.0,0.0,0.0,0.0,0.0,0.0,0.0,0.0,0.0,0.0,0.0,0.0,0.0,0.0,0.0,0.0,0.0,0.0,0.0,0.0,0.0,0.0,0.0,0.0,0.0,0.0,0.0,0.0,0.0,0.0,0.0,0.0,0.0,0.0,0.0,0.0,0.0,0.0,0.0,0.0,0.0,0.0,0.0,0.0,0.0,0.0,0.0,0.0,0.0,0.0,0.0,0.0,0.0,0.0,0.0,0.0,0.0,0.0,0.0,0.0,0.0,0.0,0.0,0.0,0.0,0.0,0.0,0.0,0.0,0.0,5.3654,0.0,6.1613,0.0,5.9629,5.6938,0.0,0.0,0.0,0.0,0.0,0.0,0.0,0.0,0.0,0.0,0.0,0.0,0.0,0.0,0.0,0.0,0.0,0.0,0.0,0.0,0.0,0.0,0.0,0.0,0.0,0.0,0.0,0.0,0.0,0.0,0.0,0.0,0.0,0.0,0.0,0.0,0.0,0.0,0.0,0.0,0.0,0.0,0.0,0.0,0.0,0.0,0.0,0.0,0.0,0.0,0.0,0.0,0.0,0.0,0.0,0.0,0.0,0.0,0.0,0.0,0.0,0.0,0.0,0.0,0.0,0.0,0.0,0.0,0.0,0.0,0.0,0.0,0.0,0.0,0.0,0.0,0.0,0.0,0.0,0.0,0.0,0.0,0.0,0.0,0.0,0.0,0.0,0.0,0.0,0.0,0.0,0.0,0.0,0.0,0.0,0.0,0.0,0.0,0.0,0.0,0.0,0.0,0.0,0.0,0.0,0.0,0.0,0.0,0.0,5.1422,5.5177,5.7621,5.8519,5.7322,5.4844,0.0,0.0,0.0,0.0,0.0,0.0,0.0,0.0,0.0,0.0,0.0,0.0,0.0,0.0,0.0,0.0,0.0,0.0,0.0,0.0,0.0,0.0,0.0,0.0,0.0,0.0,0.0,0.0,0.0,0.0,0.0,0.0,0.0,0.0,0.0,0.0,0.0,0.0,0.0,0.0,0.0,0.0,0.0,0.0,0.0,0.0,0.0,0.0,0.0,0.0,0.0,0.0,0.0,0.0,0.0,0.0,0.0,0.0,0.0,0.0,0.0,0.0,0.0,0.0,0.0,0.0,0.0,0.0,0.0,0.0,0.0,0.0,0.0,0.0,0.0,0.0,0.0,0.0,0.0,0.0,0.0,0.0,0.0,0.0,0.0,0.0,0.0,0.0,0.0,0.0,0.0,0.0,0.0,0.0,0.0,0.0,0.0,0.0,0.0,0.0,0.0,0.0,0.0,0.0,0.0,0.0,0.0,0.0,0.0,5.2163,5.1348,5.2306,5.5455,5.4233,5.1741,0.0,0.0,0.0,0.0,0.0,0.0,0.0,0.0,0.0,0.0,0.0,0.0,0.0,0.0,0.0,0.0,0.0,0.0,0.0,0.0,0.0,0.0,0.0,0.0,0.0,0.0,0.0,0.0,0.0,0.0,0.0,0.0,0.0,0.0,0.0,0.0,0.0,0.0,0.0,0.0,0.0,0.0,0.0,0.0,0.0,0.0,0.0,0.0,0.0,0.0,0.0,0.0,0.0,0.0,0.0,0.0,0.0,0.0,0.0,0.0,0.0,0.0,0.0,0.0,0.0,0.0,0.0,0.0,0.0,0.0,0.0,0.0,0.0,0.0,0.0,0.0,0.0,0.0,0.0,0.0,0.0,0.0,0.0,0.0,0.0,0.0,0.0,0.0,0.0,0.0,0.0,0.0,0.0,0.0,0.0,0.0,0.0,0.0,0.0,0.0,0.0,0.0,0.0,0.0,0.0,0.0,0.0,0.0,0.0,0.0,4.6841,4.8907,5.2082,5.3068,5.0724,4.4996,0.0,0.0,0.0,0.0,0.0,0.0,0.0,0.0,0.0,0.0,0.0,0.0,0.0,0.0,0.0,0.0,0.0,0.0,0.0,0.0,0.0,0.0,0.0,0.0,0.0,0.0,0.0,0.0,0.0,0.0,0.0,0.0,0.0,0.0,0.0,0.0,0.0,0.0,0.0,0.0,0.0,0.0,0.0,0.0,0.0,0.0,0.0,0.0,0.0,0.0,0.0,0.0,0.0,0.0,0.0,0.0,0.0,0.0,0.0,0.0,0.0,0.0,0.0,0.0,0.0,0.0,0.0,0.0,0.0,0.0,0.0,0.0,0.0,0.0,0.0,0.0,0.0,0.0,0.0,0.0,0.0,0.0,0.0,0.0,0.0,0.0,0.0,0.0,0.0,0.0,0.0,0.0,0.0,0.0,0.0,0.0,0.0,0.0,0.0,0.0,0.0,0.0,0.0,0.0,0.0,0.0,0.0,0.0,0.0,0.0,4.6226,4.8847,5.1219,4.9939,0.0,0.0,0.0,0.0,0.0,0.0,0.0,0.0,0.0,0.0,0.0,0.0,0.0,0.0,0.0,0.0,0.0,0.0,0.0,0.0,0.0,0.0,0.0,0.0,0.0,0.0,0.0,0.0,0.0,0.0,0.0,0.0,0.0,0.0,0.0,0.0,0.0,0.0,0.0,0.0,0.0,0.0,0.0,0.0,0.0,0.0,0.0,0.0,0.0,0.0,0.0,0.0,0.0,0.0,0.0,0.0,0.0,0.0,0.0,0.0,0.0,0.0,0.0,0.0,0.0,0.0,0.0,0.0,0.0,0.0,0.0,0.0,0.0,0.0,0.0,0.0,0.0,0.0,0.0,0.0,0.0,0.0,0.0,0.0,0.0,0.0,0.0,0.0,0.0,0.0,0.0,0.0,0.0,0.0,0.0,0.0,0.0,0.0,0.0,0.0,0.0,0.0,0.0,0.0,0.0,0.0,0.0,0.0,0.0,0.0,0.0,4.4043,4.5602,4.8636,0.0,4.5974,0.0,0.0,0.0,0.0,0.0,0.0,0.0,0.0,0.0,0.0,0.0,0.0,0.0,0.0,0.0,0.0,0.0,0.0,0.0,0.0,0.0,0.0,0.0,0.0,0.0,0.0,0.0,0.0,0.0,0.0,0.0,0.0,0.0,0.0,0.0,0.0,0.0,0.0,0.0,0.0,0.0,0.0,0.0,0.0,0.0,0.0,0.0,0.0,0.0,0.0,0.0,0.0,0.0,0.0,0.0,0.0,0.0,0.0,0.0,0.0,0.0,0.0,0.0,0.0,0.0,0.0,0.0,0.0,0.0,0.0,0.0,0.0,0.0,0.0,0.0,0.0,0.0,0.0,0.0,0.0,0.0,0.0,0.0,0.0,0.0,0.0,0.0,0.0,0.0,0.0,0.0,0.0,0.0,0.0,0.0,0.0,0.0,0.0,0.0,0.0,0.0,0.0,0.0,0.0,0.0,0.0,0.0,0.0,0.0,0.0,0.0,0.0,4.4282,4.5022,4.4282,0.0,0.0,0.0,0.0,0.0,0.0,0.0,0.0,0.0,0.0,0.0,0.0,0.0,0.0,0.0,0.0,0.0,0.0,0.0,0.0,0.0,0.0,0.0,0.0,0.0,0.0,0.0,0.0,0.0,0.0,0.0,0.0,0.0,0.0,0.0,0.0,0.0,0.0,0.0,0.0,0.0,0.0,0.0,0.0,0.0,0.0,0.0,0.0,0.0,0.0,0.0,0.0,0.0,0.0,0.0,0.0,0.0,0.0,0.0,0.0,0.0,0.0,0.0,0.0,0.0,0.0,0.0,0.0,0.0,0.0,0.0,0.0,0.0,0.0,0.0,0.0,0.0,0.0,0.0,0.0,0.0,0.0,0.0,0.0,0.0,0.0,0.0,0.0,0.0,0.0,0.0,0.0,0.0,0.0,0.0,0.0,0.0,0.0,0.0,0.0,0.0,0.0,0.0,0.0,0.0,0.0,0.0,0.0,0.0,0.0,4.1578,4.0219,4.3914,4.458,4.17,0.0,0.0,0.0,0.0,0.0,0.0,0.0,0.0,0.0,0.0,0.0,0.0,0.0,0.0,0.0,0.0,0.0,0.0,0.0,0.0,0.0,0.0,0.0,0.0,0.0,0.0,0.0,0.0,0.0,0.0,0.0,0.0,0.0,0.0,0.0,0.0,0.0,0.0,0.0,0.0,0.0,0.0,0.0,0.0,0.0,0.0,0.0,0.0,0.0,0.0,0.0,0.0,0.0,0.0,0.0,0.0,0.0,0.0,0.0,0.0,0.0,0.0,0.0,0.0,0.0,0.0,0.0,0.0,0.0,0.0,0.0,0.0,0.0,0.0,0.0,0.0,0.0,0.0,0.0,0.0,0.0,0.0,0.0,0.0,0.0,0.0,0.0,0.0,0.0,0.0,0.0,0.0,0.0,0.0,0.0,0.0,0.0,0.0,0.0,0.0,0.0,0.0,0.0,0.0,0.0,0.0,0.0,0.0,0.0,0.0,0.0,0.0,0.0,0.0,3.9558,0.0,0.0,0.0,0.0,0.0,0.0,0.0,0.0,0.0,0.0,0.0,0.0,0.0,0.0,0.0,0.0,0.0,0.0,0.0,0.0,0.0,0.0,0.0,0.0,0.0,0.0,0.0,0.0,0.0,0.0,0.0,0.0,0.0,0.0,0.0,0.0,0.0,0.0,0.0,0.0,0.0,0.0,0.0,0.0,0.0,0.0,0.0,0.0,0.0,0.0,0.0,0.0,0.0,0.0,0.0,0.0,0.0,0.0,0.0,0.0,0.0,0.0,0.0,0.0,0.0,0.0,0.0,0.0,0.0,0.0,0.0,0.0,0.0,0.0,0.0,0.0,0.0,0.0,0.0,0.0,0.0,0.0,0.0,0.0,0.0,0.0,0.0,0.0,0.0,0.0,0.0,0.0,0.0,0.0,0.0,0.0,0.0,0.0,0.0,0.0,0.0,0.0,0.0,0.0,0.0,0.0,0.0,0.0,0.0,0.0,0.0,0.0,0.0,0.0,0.0,0.0,0.0,0.0,0.0,0.0,0.0,0.0,0.0,0.0,0.0,0.0,0.0,0.0,0.0,0.0,0.0,0.0,0.0,0.0,0.0,0.0,0.0,0.0,0.0,0.0,0.0,0.0,0.0,0.0,0.0,0.0,0.0,0.0,0.0,0.0,0.0,0.0,0.0,0.0,0.0,0.0,0.0,0.0,0.0,0.0,0.0,0.0,0.0,0.0,0.0,0.0,0.0,0.0,0.0,0.0,0.0,0.0,0.0,0.0,0.0,0.0,0.0,0.0,0.0,0.0,0.0,0.0,0.0,0.0,0.0,0.0,0.0,0.0,0.0,0.0,0.0,0.0,0.0,0.0,0.0,0.0,0.0,0.0,0.0,0.0,0.0,0.0,0.0,0.0,0.0,0.0,0.0,0.0,0.0,0.0,0.0,0.0,0.0,0.0,0.0,0.0,0.0,0.0,0.0,0.0,0.0,0.0,0.0,0.0,0.0,0.0,0.0,0.0,0.0,0.0,0.0,0.0,0.0,0.0,0.0,0.0,0.0,0.0,0.0,0.0,0.0,0.0,0.0,0.0,0.0,0.0,0.0,0.0,0.0,0.0,0.0,0.0,0.0,0.0,0.0,0.0,0.0,0.0,0.0,0.0,0.0,0.0,0.0,0.0,0.0,0.0,0.0,0.0,0.0,0.0,0.0,0.0,0.0,0.0,0.0,0.0,0.0,0.0,0.0,0.0,0.0,0.0,0.0,0.0,0.0,0.0,0.0,0.0,0.0,0.0,0.0,0.0,0.0,0.0,0.0,0.0,0.0,0.0,0.0,0.0,0.0,0.0,0.0,0.0,0.0,0.0,0.0,0.0,0.0,0.0,0.0,0.0,0.0,0.0,0.0,0.0,0.0,0.0,0.0,0.0,0.0,0.0,0.0,0.0,0.0,0.0,0.0,0.0,0.0,0.0,0.0,0.0,0.0,0.0,0.0,0.0,0.0,0.0,0.0,0.0,0.0,0.0,0.0,0.0,0.0,0.0,0.0,0.0,0.0,0.0,0.0,0.0,0.0,0.0,0.0,0.0,0.0,0.0,0.0,0.0,0.0,0.0,0.0,0.0,0.0,0.0,0.0,0.0,0.0,0.0,0.0,0.0,0.0,0.0,0.0,0.0,0.0,0.0,0.0,0.0,0.0,0.0,0.0,0.0,0.0,0.0,0.0,0.0,0.0,0.0,0.0,0.0,0.0,0.0,0.0,0.0,0.0,0.0,0.0,0.0,0.0,0.0,0.0,0.0,0.0,0.0,0.0,0.0,0.0,0.0,0.0,0.0,0.0,0.0,0.0,0.0,0.0,0.0,0.0,0.0,0.0,0.0,0.0,0.0,0.0,0.0,0.0,0.0,0.0,0.0,0.0,0.0,0.0,0.0,0.0,0.0,0.0,0.0,0.0,0.0,0.0,0.0,0.0,0.0,0.0,0.0,0.0,0.0,0.0,0.0,0.0,0.0,0.0,0.0,0.0,0.0,0.0,0.0,0.0,0.0,0.0,0.0,0.0,0.0,0.0,0.0,0.0,0.0,0.0,0.0,0.0,0.0,0.0,0.0,0.0,0.0,0.0,0.0,0.0,0.0,0.0,0.0,0.0,0.0,0.0,0.0,0.0,0.0,0.0,0.0,0.0,0.0,0.0,0.0,0.0,0.0,0.0,0.0,0.0,0.0,0.0,0.0,0.0,0.0,0.0,0.0,0.0,0.0,0.0,0.0,0.0,0.0,0.0,0.0,0.0,0.0,0.0,0.0,0.0,0.0,0.0,0.0,0.0,0.0,0.0,0.0,0.0,0.0,0.0,0.0,0.0,0.0,0.0,0.0,0.0,0.0,0.0,0.0,0.0,0.0,0.0,0.0,0.0,0.0,0.0,0.0,0.0,0.0,0.0,0.0,0.0,0.0,0.0,0.0,0.0,0.0,0.0,0.0,0.0,0.0,0.0,0.0,0.0,0.0,0.0,0.0,0.0,0.0,0.0,0.0,0.0,0.0,0.0,0.0,0.0,0.0,0.0,0.0,0.0,0.0,0.0,0.0,0.0,0.0,0.0,0.0,0.0,0.0,0.0,0.0,0.0,0.0,0.0,0.0,0.0,0.0,0.0,0.0,0.0,0.0,0.0,0.0,0.0,0.0,0.0,0.0,0.0,0.0,0.0,0.0,0.0,0.0,0.0,0.0,0.0,0.0,0.0,0.0,0.0,0.0,0.0,0.0,0.0,0.0,0.0,0.0,0.0,0.0,0.0,0.0,0.0,0.0,0.0,0.0,0.0,0.0,0.0,0.0,0.0,0.0,0.0,0.0,0.0,0.0,0.0,0.0,0.0,0.0,0.0,0.0,0.0,0.0,0.0,0.0,0.0,0.0,0.0,0.0,0.0,0.0,0.0,0.0,0.0,0.0,0.0,0.0,0.0,0.0,0.0,0.0,0.0,0.0,0.0,0.0,0.0,0.0,0.0,0.0,0.0,0.0,0.0,0.0,0.0,0.0,0.0,0.0,0.0,0.0,0.0,0.0,0.0,0.0,0.0,0.0,0.0,0.0,0.0,0.0,0.0,0.0,0.0,0.0,0.0,0.0,0.0,0.0,0.0,0.0,0.0,0.0,0.0,0.0,0.0,0.0,0.0,0.0,0.0,0.0,0.0,0.0,0.0,0.0,0.0,0.0,0.0,0.0,0.0,0.0,0.0,0.0,0.0,0.0,0.0,0.0,0.0,0.0,0.0,0.0,0.0,0.0,0.0,0.0,0.0,0.0,0.0,0.0,0.0,0.0,0.0,0.0,0.0,0.0,0.0,0.0,0.0,0.0,0.0,0.0,0.0,0.0,0.0,0.0,0.0,0.0,0.0,0.0,0.0,0.0,0.0,0.0,0.0,0.0,0.0,0.0,0.0,0.0,0.0,0.0,0.0,0.0,0.0,0.0,0.0,0.0,0.0,0.0,0.0,0.0,0.0,0.0,0.0,0.0,0.0,0.0,0.0,0.0,0.0,0.0,0.0,0.0,0.0,0.0,0.0,0.0,0.0,0.0,0.0,0.0,0.0,0.0,0.0,0.0,0.0,0.0,0.0,0.0,0.0,0.0,0.0,0.0,0.0,0.0,0.0,0.0,0.0,0.0,0.0,0.0,0.0,0.0,0.0,0.0,0.0,0.0,0.0,0.0,0.0,0.0,0.0,0.0,0.0,0.0,0.0,0.0,0.0,0.0,0.0,0.0,0.0,0.0,0.0,0.0,0.0,0.0,0.0,0.0,0.0,0.0,0.0,0.0,0.0,0.0,0.0,0.0,0.0,0.0,0.0,0.0,0.0,0.0,0.0,0.0,0.0,0.0,0.0,0.0,0.0,0.0,0.0,0.0,0.0,0.0,0.0,0.0,0.0,0.0,0.0,0.0,0.0,0.0,0.0,0.0,0.0,0.0,0.0,0.0,0.0,0.0,0.0,0.0,0.0,0.0,0.0,0.0,0.0,0.0,0.0,0.0,0.0,0.0,0.0,0.0,0.0,0.0,0.0,0.0,0.0,0.0,0.0,0.0,0.0,0.0,0.0,0.0,0.0,0.0,0.0,0.0,0.0,0.0,0.0,0.0,0.0,0.0,0.0,0.0,0.0,0.0,0.0,0.0,0.0,0.0,0.0,0.0,0.0,0.0,0.0,0.0,0.0,0.0,0.0,0.0,0.0,0.0,0.0,0.0,0.0,0.0,0.0,0.0,0.0,0.0,0.0,0.0,0.0,0.0,0.0,0.0,0.0,0.0,0.0,0.0,0.0,0.0,0.0,0.0,0.0,0.0,0.0,0.0,0.0,0.0,0.0,0.0,0.0,0.0,0.0,0.0]}],[{"header":{"parameterUnit":"kt","parameterCategory":2,"dx":1,"dy":1,"la1":29.587661999999998,"la2":31.0,"lo1":-88.76705300000003,"lo2":-86.6583820000003,"nx":115,"ny":88,"refTime":"2022-10-06T00:00:00:Z","depth":0,"parameterNumber":2,"parameterNumberName":"V-component_of_WINDS"},"data":[10.7053,10.7941,10.71,10.7529,10.8698,10.8315,10.9063,11.0614,11.0801,11.0801,11.0801,11.0801,11.0801,11.0801,11.0801,11.0801,11.0801,11.0801,10.9745,10.802,10.6286,10.4497,10.2411,10.006,9.9038,9.6118,9.2787,9.0836,8.9006,8.7914,8.7545,8.7811,8.8574,8.9105,8.9865,9.0016,9.0016,9.0016,9.0016,9.0016,8.9936,8.9936,9.0016,8.9889,8.9889,8.9761,8.9421,8.8695,8.7839,8.6809,8.5552,8.4737,8.452,8.452,8.452,8.452,8.452,8.4029,8.3358,8.2602,8.1853,8.1003,8.0289,7.9932,7.9897,7.9897,7.9897,7.9897,7.9897,7.9897,7.9897,7.9897,7.9897,7.9897,7.9897,7.9897,7.9897,7.9897,7.9897,7.9897,7.9897,7.9897,7.9897,7.9897,7.9897,7.9897,7.9897,7.9897,7.9897,7.9897,7.9897,7.9897,7.9897,7.9897,7.9897,7.9897,7.9897,7.9897,7.9897,7.9897,7.9897,7.9897,7.9446,7.8913,7.7926,7.6901,7.599,7.5243,7.4702,7.4453,7.4453,7.4453,7.4453,7.4453,7.4453,10.8081,10.9025,10.8885,10.8549,10.8035,10.8651,10.9688,11.0707,11.0801,11.0801,11.0801,11.0801,11.0801,11.0801,11.0801,11.0801,11.0801,11.0801,10.881,10.7082,10.6054,10.4222,10.1969,9.9407,9.7682,9.5001,9.1903,9.0346,8.9173,8.8375,8.8004,8.8578,8.892,8.9223,8.9751,9.0016,9.0016,9.0016,9.0016,9.0016,9.0016,9.0016,8.9931,8.9676,8.9335,8.8866,8.831,8.7496,8.6465,8.5689,8.5249,8.4694,8.452,8.452,8.452,8.452,8.452,8.4171,8.3572,8.2859,8.2038,8.1175,8.0361,7.9932,7.9932,7.9897,7.9897,7.9897,7.9897,7.9897,7.9897,7.9897,7.9897,7.9897,7.9897,7.9897,7.9897,7.9897,7.9897,7.9897,7.9897,7.9897,7.9897,7.9897,7.9897,7.9897,7.9897,7.9897,7.9897,7.9897,7.9897,7.9897,7.9897,7.9897,7.9897,7.9897,7.9897,7.9897,7.9897,7.9897,7.9897,7.9897,7.9528,7.8707,7.7802,7.6894,7.5983,7.5035,7.4702,7.4453,7.4453,7.4453,7.4453,7.4453,7.4453,10.8642,10.9921,10.9501,10.9305,10.939,10.922,10.9866,11.066,11.0801,11.0801,11.0801,11.0801,11.0801,11.0801,11.0801,11.0801,11.0801,11.0801,10.9005,10.7319,10.6168,10.4062,10.1845,9.9447,9.7063,9.5116,9.2215,8.9942,8.9019,8.8384,8.8308,8.8692,8.8844,8.9223,8.9903,9.0016,9.0016,9.0016,9.0016,9.0016,9.0016,8.9931,8.9846,8.9293,8.8823,8.8396,8.7711,8.6766,8.6034,8.5689,8.5076,8.4643,8.452,8.452,8.452,8.452,8.4485,8.4421,8.3993,8.3351,8.2644,8.1853,8.0997,8.0105,8.0075,7.9897,7.9897,7.9897,7.9897,7.9897,7.9897,7.9897,7.9897,7.9897,7.9897,7.9897,7.9897,7.9897,7.9897,7.9897,7.9897,7.9897,7.9897,7.9897,7.9897,7.9897,7.9897,7.9897,7.9897,7.9897,7.9897,7.9897,7.9897,7.9897,7.9897,7.9897,7.9897,7.9897,7.9897,7.9897,7.9897,7.9856,7.9569,7.8666,7.7761,7.6811,7.5941,7.5069,7.4619,7.4453,7.4453,7.4453,7.4453,7.4453,7.4453,10.8923,11.066,10.9641,10.9679,11.0287,10.9866,11.0146,11.0801,11.0801,11.0801,11.0801,11.0801,11.0801,11.0801,11.0801,11.0801,11.0801,11.0685,10.9473,10.7476,10.5528,10.3333,10.136,9.7723,9.5946,9.4447,9.2861,9.0655,8.9548,8.9185,8.9109,8.9105,8.9181,8.9409,8.9936,9.0016,9.0016,9.0016,9.0016,9.0016,9.0016,8.9889,8.9591,8.8909,8.8182,8.7754,8.6938,8.6077,8.5689,8.5559,8.4903,8.4643,8.452,8.452,8.452,8.452,8.452,8.4485,8.4243,8.3708,8.2923,8.221,8.1461,8.0712,8.0177,8.0004,7.9897,7.9897,7.9897,7.9897,7.9897,7.9897,7.9897,7.9897,7.9897,7.9897,7.9897,7.9897,7.9897,7.9897,7.9897,7.9897,7.9897,7.9897,7.9897,7.9897,7.9897,7.9897,7.9897,7.9897,7.9897,7.9897,7.9897,7.9897,7.9897,7.9897,7.9897,7.9897,7.9897,7.9897,7.9897,7.9733,7.9446,7.8584,7.7678,7.6521,7.5568,7.4902,7.4578,7.4494,7.4453,7.4453,7.4453,7.4453,7.4453,10.8923,11.066,10.9688,10.9361,10.9539,11.0333,11.0669,11.0801,11.0801,11.0801,11.0762,11.0801,11.0723,11.0491,11.0762,11.0801,11.0413,11.0336,10.8888,10.5935,10.4214,10.18,9.875,9.5156,9.4113,9.273,9.1423,9.0454,8.9912,8.9751,8.9713,8.9903,8.9827,8.9827,8.9936,9.0016,9.0016,9.0016,9.0016,9.0016,9.0016,8.9889,8.9548,8.8695,8.7839,8.7024,8.612,8.5336,8.465,8.465,8.452,8.4564,8.452,8.452,8.452,8.452,8.452,8.452,8.4342,8.3993,8.3173,8.2317,8.1532,8.0783,8.0212,7.9932,7.9897,7.9897,7.9897,7.9897,7.9897,7.9897,7.9897,7.9897,7.9897,7.9897,7.9897,7.9897,7.9897,7.9897,7.9897,7.9897,7.9897,7.9897,7.9897,7.9897,7.9897,7.9897,7.9897,7.9897,7.9897,7.9897,7.9897,7.9897,7.9897,7.9897,7.9897,7.9897,7.9897,7.9897,7.9897,7.961,7.9206,7.8543,7.7761,7.6521,7.5534,7.4869,7.4494,7.4453,7.4453,7.4453,7.4453,7.4453,7.4453,10.7988,10.9679,10.9407,10.9632,11.0155,11.0575,11.0491,11.0266,11.0607,11.0491,11.0142,11.0491,11.0219,10.9512,11.0095,11.0095,10.9317,10.9161,10.7902,10.5011,10.2807,10.0056,9.7476,9.4741,9.294,9.2056,9.1166,9.0016,8.9979,8.9979,9.0016,9.0016,9.0016,8.9979,9.0016,9.0016,9.0016,9.0016,9.0016,9.0016,9.0016,8.9974,8.9421,8.8652,8.7754,8.6895,8.5991,8.5076,8.4643,8.452,8.452,8.452,8.452,8.452,8.452,8.452,8.452,8.452,8.4485,8.4207,8.3422,8.2566,8.196,8.1068,8.0426,7.9897,7.9897,7.9897,7.9897,7.9897,7.9897,7.9897,7.9897,7.9897,7.9897,7.9897,7.9897,7.9897,7.9897,7.9897,7.9897,7.9897,7.9897,7.9897,7.9897,7.9897,7.9897,7.9897,7.9897,7.9897,7.9897,7.9897,7.9897,7.9897,7.9897,7.9897,7.9897,7.9897,7.9897,7.9897,7.9897,7.9733,7.9487,7.879,7.7808,7.719,7.6446,7.5492,7.4453,7.4453,7.4453,7.4453,7.4453,7.4453,7.4453,10.7343,10.9174,10.8991,10.9674,11.063,11.0297,10.9792,10.9246,10.92,10.9044,10.8543,10.8568,10.766,10.7267,10.8373,10.8177,10.7784,10.7273,10.6083,10.3726,10.0867,9.8503,9.5948,9.332,9.2267,9.1377,9.0785,9.0016,9.0016,9.0016,9.0016,9.0016,9.0016,9.0016,9.0016,9.0016,9.0016,9.0016,9.0016,9.0016,9.0016,8.9676,8.8909,8.8139,8.7239,8.6335,8.5602,8.4816,8.4643,8.452,8.452,8.452,8.452,8.452,8.452,8.452,8.452,8.452,8.452,8.452,8.3843,8.2602,8.1924,8.114,8.0396,7.9897,7.9897,7.9897,7.9897,7.9897,7.9897,7.9897,7.9897,7.9897,7.9897,7.9897,7.9897,7.9897,7.9897,7.9897,7.9897,7.9897,7.9897,7.9897,7.9897,7.9897,7.9897,7.9897,7.9897,7.9897,7.9897,7.9897,7.9897,7.9897,7.9897,7.9897,7.9897,7.9897,7.9897,7.9897,7.9774,7.9651,7.9651,7.9077,7.7967,7.7355,7.6942,7.5866,7.4536,7.4453,7.4453,7.4453,7.4453,7.4453,7.4453,10.7343,10.9004,10.8409,10.912,11.0312,10.9037,10.8412,10.8216,10.6716,10.6083,10.5845,10.4449,10.429,10.4613,10.4812,10.517,10.5453,10.5577,10.3493,10.0828,9.8421,9.5865,9.3278,9.1377,9.0827,9.0356,9.0059,9.0016,9.0016,9.0016,9.0016,9.0016,9.0016,9.0016,9.0016,9.0016,9.0016,8.9931,8.9846,8.9719,8.9506,8.9079,8.831,8.7582,8.6723,8.5854,8.5292,8.4729,8.4564,8.452,8.452,8.452,8.452,8.452,8.452,8.452,8.452,8.452,8.452,8.4421,8.3636,8.2424,8.1639,8.0783,8.0182,7.9897,7.9897,7.9897,7.9897,7.9897,7.9897,7.9897,7.9897,7.9897,7.9897,7.9897,7.9897,7.9897,7.9897,7.9897,7.9897,7.9897,7.9897,7.9897,7.9897,7.9897,7.9897,7.9897,7.9897,7.9897,7.9897,7.9897,7.9897,7.9897,7.9897,7.9897,7.9897,7.9897,7.9897,7.9856,7.9528,7.9405,7.9323,7.8913,7.7967,7.71,7.6356,7.5451,7.4578,7.4453,7.4453,7.4453,7.4453,7.4453,7.4453,10.5941,10.7174,10.7072,10.7801,10.8735,10.7948,10.7784,10.7941,10.6518,10.5409,10.4609,10.3526,10.2888,10.3011,10.3613,10.4134,10.2287,10.2247,10.0464,9.7229,9.5325,9.3404,9.1677,9.0356,9.0016,9.0016,9.0016,9.0016,9.0016,9.0016,9.0016,9.0016,9.0016,9.0016,9.0016,9.0016,9.0016,8.9846,8.9421,8.9207,8.8909,8.8268,8.7539,8.7067,8.6379,8.5768,8.5343,8.491,8.452,8.452,8.452,8.452,8.452,8.452,8.452,8.452,8.452,8.452,8.4342,8.4243,8.3315,8.221,8.1532,8.0712,8.0111,7.9932,7.9897,7.9897,7.9897,7.9897,7.9897,7.9897,7.9897,7.9897,7.9897,7.9897,7.9897,7.9897,7.9897,7.9897,7.9897,7.9897,7.9897,7.9897,7.9897,7.9897,7.9897,7.9897,7.9897,7.9897,7.9897,7.9897,7.9897,7.9897,7.9897,7.9897,7.9897,7.9897,7.9897,7.9897,7.9569,7.8995,7.8913,7.8743,7.7719,7.677,7.59,7.5277,7.4777,7.4494,7.4453,7.4453,7.4453,7.4453,7.4453,10.5083,10.5775,10.6009,10.6345,10.6612,10.6335,10.6648,10.6992,10.5607,10.3854,10.2284,10.095,10.022,10.0385,10.0668,10.0383,9.92,9.8914,9.7476,9.4574,9.3571,9.1634,9.053,9.0102,9.0016,9.0016,9.0016,9.0016,9.0016,9.0016,9.0016,9.0016,9.0016,9.0016,9.0016,9.0016,9.0016,8.9846,8.9165,8.861,8.8482,8.7496,8.6809,8.6766,8.5861,8.5422,8.5249,8.4816,8.4556,8.452,8.452,8.452,8.452,8.452,8.452,8.452,8.452,8.452,8.4306,8.3565,8.2751,8.1853,8.1068,8.0391,8.0039,7.9932,7.9897,7.9897,7.9897,7.9897,7.9897,7.9897,7.9897,7.9897,7.9897,7.9897,7.9897,7.9897,7.9897,7.9897,7.9897,7.9897,7.9897,7.9897,7.9897,7.9897,7.9897,7.9897,7.9897,7.9897,7.9897,7.9897,7.9897,7.9897,7.9897,7.9897,7.9897,7.9897,7.9897,7.9897,7.9282,7.8625,7.8502,7.8578,7.7555,7.6563,7.6024,7.5526,7.4986,7.4569,7.4494,7.4453,7.4453,7.4453,7.4453,10.4668,10.4946,10.5047,10.4622,10.412,10.4252,10.4918,10.5548,10.3962,10.1393,9.834,9.6236,9.5821,9.6319,9.636,9.6402,9.6153,9.5655,9.4447,9.3066,9.2183,9.1504,9.0488,9.0016,9.0016,9.0016,9.0016,9.0016,9.0016,9.0016,9.0016,9.0016,9.0016,9.0016,9.0016,9.0016,9.0016,8.9846,8.8994,8.8567,8.8096,8.6766,8.6034,8.5732,8.5127,8.4859,8.4859,8.4599,8.4556,8.452,8.452,8.452,8.452,8.452,8.452,8.452,8.452,8.452,8.4449,8.3101,8.2138,8.1354,8.0646,8.0111,7.9968,7.9897,7.9897,7.9897,7.9897,7.9897,7.9897,7.9897,7.9897,7.9897,7.9897,7.9897,7.9897,7.9897,7.9897,7.9897,7.9897,7.9932,7.9932,7.9932,7.9932,7.9968,7.9932,7.9897,7.9897,7.9897,7.9897,7.9897,7.9897,7.9897,7.9897,7.9897,7.9897,7.9897,7.9897,7.9897,7.9446,7.8707,7.8337,7.8249,7.7348,7.6148,7.5858,7.5692,7.511,7.4494,7.4453,7.4486,7.4453,7.4453,7.4453,10.3782,10.3865,10.3559,10.2909,10.2365,10.2991,10.3857,10.4346,10.2853,9.9866,9.5906,9.2985,9.2098,9.2856,9.315,9.3485,9.3234,9.3192,9.2264,9.1546,9.0954,9.0488,9.0187,9.0016,9.0016,9.0016,9.0016,9.0016,9.0016,9.0016,9.0016,9.0016,9.0016,9.0016,9.0016,9.0016,9.0016,8.9591,8.8652,8.7711,8.7496,8.6034,8.4997,8.491,8.4737,8.452,8.452,8.452,8.452,8.452,8.452,8.452,8.452,8.452,8.452,8.452,8.452,8.452,8.435,8.3529,8.2459,8.1282,8.0396,8.0004,7.9897,7.9897,7.9897,7.9897,7.9897,7.9897,7.9897,7.9897,7.9897,7.9897,7.9897,7.9897,7.9897,7.9897,7.9897,8.0075,7.9968,8.0004,8.0039,8.007,8.0147,8.0254,8.0218,8.0111,8.0004,7.9897,7.9897,7.9897,7.9897,7.9897,7.9897,7.9897,7.9897,7.9897,7.9897,7.9897,7.9651,7.8948,7.8455,7.7802,7.6852,7.5775,7.5277,7.511,7.4786,7.4528,7.4519,7.4511,7.4477,7.4453,7.4453,10.2786,10.2471,10.1833,10.1538,10.153,10.2065,10.2875,10.3255,10.0851,9.7991,9.5544,9.1904,9.0285,9.0666,9.1212,9.0958,9.0916,9.117,9.0742,9.0106,9.0016,9.0016,9.0016,9.0016,9.0016,9.0016,9.0016,9.0016,9.0016,9.0016,9.0016,9.0016,9.0016,9.0016,9.0016,9.0016,9.0016,8.9548,8.8353,8.7325,8.6895,8.5559,8.452,8.452,8.452,8.452,8.452,8.452,8.452,8.452,8.452,8.452,8.452,8.452,8.452,8.452,8.452,8.452,8.4378,8.3494,8.2566,8.1389,8.0575,7.9897,7.9897,7.9897,7.9897,7.9897,7.9897,7.9897,7.9897,7.9897,7.9897,7.9897,7.9897,7.9897,7.9897,7.9897,7.9968,8.0539,8.0426,8.0319,8.0319,8.0355,8.0539,8.0646,8.0468,8.0289,8.0075,7.9897,7.9897,7.9897,7.9897,7.9897,7.9897,7.9897,7.9897,7.9897,7.9897,7.9897,7.9815,7.9112,7.8049,7.7142,7.6239,7.5443,7.4827,7.4536,7.4519,7.4586,7.4619,7.4677,7.4544,7.4453,7.4453,10.175,10.0977,10.0274,10.0434,10.104,10.1047,10.1389,10.1193,9.7468,9.5586,9.4444,9.1641,8.9364,8.9345,8.8829,8.8999,8.9723,8.8957,8.9383,8.9846,9.0016,9.0016,9.0016,9.0016,9.0016,9.0016,9.0016,9.0016,9.0016,9.0016,9.0016,9.0016,9.0016,9.0016,8.9974,8.9804,8.9676,8.9335,8.7925,8.7067,8.6508,8.5559,8.4564,8.452,8.452,8.452,8.452,8.452,8.452,8.452,8.452,8.452,8.452,8.452,8.452,8.452,8.452,8.4413,8.4021,8.3173,8.2317,8.1752,8.0896,7.9897,7.9897,7.9897,7.9897,7.9897,7.9897,7.9897,7.9897,7.9897,7.9897,7.9897,7.9897,8.0004,8.0218,8.0182,8.0462,8.0961,8.114,8.114,8.114,8.1425,8.1645,8.1425,8.1282,8.089,8.061,8.0039,8.0004,7.9968,7.9932,7.9897,7.9897,7.9897,7.9897,7.9897,7.9897,7.9897,7.9774,7.8831,7.7802,7.6935,7.6273,7.5285,7.4494,7.4519,7.4619,7.4719,7.4918,7.5184,7.5184,7.526,7.516,10.0894,10.0192,9.9967,9.9311,9.8351,9.7007,9.6452,9.5778,9.2303,9.0638,8.9924,8.8251,8.6613,8.6104,8.6514,8.7196,8.8011,8.8482,8.9165,8.9719,9.0016,9.0016,9.0016,9.0016,9.0016,9.0016,9.0016,9.0016,9.0016,9.0016,9.0016,9.0016,9.0016,9.0016,8.9846,8.9463,8.9079,8.8951,8.7368,8.6508,8.612,8.5127,8.465,8.452,8.452,8.452,8.452,8.452,8.452,8.452,8.452,8.452,8.452,8.452,8.452,8.452,8.452,8.4306,8.3636,8.2887,8.2031,8.1282,8.0426,7.9897,7.9897,7.9897,7.9897,7.9897,7.9897,7.9897,7.9897,7.9897,7.9968,8.0004,8.0004,8.0319,8.0605,8.0819,8.1104,8.1603,8.1924,8.196,8.2245,8.2531,8.2531,8.2317,8.196,8.1568,8.0997,8.0284,8.0177,8.0034,8.0039,7.9897,7.9897,7.9897,7.9897,7.9897,7.9897,7.9815,7.9446,7.8625,7.7555,7.6935,7.6314,7.5578,7.5027,7.4819,7.4752,7.5284,7.5759,7.5892,7.5959,7.6234,7.6125,9.9434,9.773,9.773,9.6318,9.413,9.3085,9.2484,9.1484,8.8822,8.7457,8.7066,8.5383,8.4302,8.4423,8.4925,8.5861,8.6723,8.7625,8.8524,8.925,8.9804,9.0016,9.0016,9.0016,9.0016,9.0016,9.0016,9.0016,9.0016,9.0016,9.0016,9.0016,9.0016,8.9974,8.9931,8.9122,8.8738,8.8182,8.7282,8.6335,8.5775,8.5083,8.452,8.452,8.452,8.452,8.452,8.452,8.452,8.452,8.452,8.452,8.452,8.452,8.452,8.452,8.452,8.4171,8.3465,8.2716,8.1924,8.114,8.0391,7.9932,7.9897,7.9897,7.9897,7.9897,7.9897,7.9897,7.9897,7.9897,8.0034,8.0284,8.0539,8.0926,8.1354,8.1455,8.1776,8.2281,8.2745,8.3101,8.3422,8.3565,8.3522,8.3273,8.2994,8.2566,8.1924,8.1175,8.0819,8.0426,8.0141,8.0039,8.0039,7.9916,7.9911,7.9547,7.9547,7.943,7.9107,7.8414,7.7348,7.6563,7.6069,7.589,7.5737,7.5584,7.5674,7.6116,7.6625,7.6534,7.6434,7.6691,7.6288,9.7844,9.486,9.4707,9.262,8.989,8.934,8.9144,8.8514,8.614,8.5263,8.4985,8.3167,8.2664,8.3322,8.4072,8.4976,8.5954,8.6981,8.7968,8.8866,8.9634,9.0016,9.0016,9.0016,9.0016,9.0016,9.0016,9.0016,9.0016,9.0016,9.0016,8.9931,8.9846,8.9804,8.9506,8.8482,8.8316,8.8139,8.7325,8.6465,8.5689,8.491,8.4564,8.452,8.452,8.452,8.452,8.452,8.452,8.452,8.452,8.452,8.452,8.452,8.452,8.452,8.4421,8.4064,8.3208,8.2388,8.1603,8.0819,8.0289,8.0004,7.9897,7.9897,7.9897,7.9897,7.9897,7.9897,7.9897,8.0004,8.0432,8.0753,8.1068,8.1603,8.2096,8.2388,8.2745,8.3173,8.3494,8.3957,8.4128,8.4342,8.452,8.4271,8.4029,8.3601,8.3066,8.2459,8.2031,8.1068,8.0569,8.0391,8.0355,7.9996,7.9748,7.9142,7.9106,7.8995,7.8481,7.7839,7.6878,7.6398,7.5706,7.5411,7.56,7.5978,7.651,7.6527,7.6196,7.6357,7.6656,7.6575,7.6351,9.7307,9.4745,9.3513,9.1066,8.796,8.6413,8.5094,8.368,8.2041,8.1624,8.1873,8.158,8.171,8.2495,8.3372,8.4466,8.5991,8.6809,8.7711,8.8567,8.9463,9.0016,9.0016,9.0016,9.0016,8.9974,8.9931,9.0016,8.9889,8.9804,8.9931,8.9676,8.9122,8.8909,8.8567,8.7496,8.6637,8.6206,8.5602,8.5119,8.4859,8.4643,8.452,8.452,8.452,8.452,8.452,8.452,8.452,8.452,8.452,8.452,8.452,8.452,8.452,8.4413,8.3957,8.328,8.2531,8.1704,8.1104,8.0355,8.0039,7.9932,7.9897,7.9897,7.9897,7.9897,7.9897,7.9897,8.0075,8.0426,8.089,8.1247,8.1746,8.2288,8.2852,8.3244,8.3565,8.385,8.4243,8.4421,8.4378,8.452,8.452,8.4342,8.4306,8.3957,8.3672,8.3244,8.278,8.174,8.1211,8.1033,8.0523,8.0197,7.9746,7.908,7.8796,7.8636,7.8003,7.7486,7.7001,7.6597,7.5877,7.5342,7.5564,7.5882,7.5752,7.5642,7.5651,7.5585,7.5474,7.5403,7.5303,9.4971,9.1222,8.9458,8.6889,8.4007,8.2757,8.1903,8.1122,8.0306,8.0147,8.0432,8.0575,8.0926,8.171,8.2459,8.3708,8.5177,8.6206,8.711,8.8011,8.8909,8.9548,9.0016,9.0016,9.0016,8.9889,8.9548,8.9335,8.9335,8.8951,8.861,8.861,8.8268,8.7968,8.7625,8.6551,8.6077,8.5732,8.5083,8.4564,8.452,8.452,8.452,8.452,8.452,8.452,8.452,8.452,8.452,8.452,8.452,8.452,8.452,8.4485,8.4378,8.3993,8.3601,8.2923,8.1782,8.1312,8.0712,8.0039,7.9897,7.9897,7.9897,7.9897,7.9897,7.9897,7.9897,7.9998,8.0391,8.0783,8.1425,8.1996,8.2495,8.3137,8.3708,8.3922,8.4171,8.4421,8.4492,8.4485,8.452,8.452,8.452,8.452,8.452,8.4306,8.41,8.385,8.3594,8.2852,8.2424,8.185,8.083,8.0465,8.0094,7.9167,7.8627,7.8228,7.7797,7.7688,7.7323,7.6406,7.6034,7.54,7.5307,7.4651,7.4604,7.4534,7.4319,7.411,7.4171,7.4086,7.3943,9.2152,8.6889,8.5134,8.2676,8.0183,7.9938,8.006,7.9897,7.9938,7.9897,7.9932,7.9932,8.0325,8.0926,8.1675,8.2709,8.3865,8.5212,8.6203,8.711,8.8011,8.8909,8.9506,8.9634,8.9804,8.9681,8.917,8.8743,8.8524,8.7754,8.7625,8.7325,8.7153,8.7067,8.6809,8.6163,8.5559,8.5343,8.4867,8.452,8.452,8.452,8.452,8.452,8.452,8.452,8.452,8.452,8.452,8.452,8.452,8.4449,8.435,8.4271,8.3922,8.3315,8.2923,8.2317,8.1354,8.0961,8.0498,8.0111,7.9897,7.9897,7.9897,7.9897,7.9897,7.9897,7.9968,8.0218,8.0997,8.1461,8.2138,8.2923,8.3458,8.385,8.4271,8.4449,8.4485,8.452,8.452,8.452,8.452,8.452,8.452,8.452,8.452,8.4413,8.4271,8.42,8.3813,8.345,8.3209,8.2064,8.0834,8.0389,7.9716,7.8606,7.8187,7.782,7.7489,7.7615,7.6898,7.5425,7.473,7.4281,7.3796,7.3381,7.3072,7.2758,7.2699,7.261,7.2132,7.1637,7.1741,8.985,8.5015,8.3441,8.1655,8.006,7.9897,7.9897,7.9897,7.9897,7.9897,7.9897,7.9897,8.0004,8.0254,8.1003,8.1318,8.2206,8.3706,8.5295,8.6117,8.7006,8.7942,8.8738,8.8909,8.9037,8.9846,8.8829,8.8444,8.8225,8.7754,8.6938,8.7067,8.6551,8.6163,8.5947,8.5256,8.4903,8.4903,8.465,8.452,8.452,8.452,8.452,8.452,8.452,8.452,8.452,8.452,8.452,8.452,8.452,8.4164,8.3779,8.3529,8.3251,8.2459,8.1889,8.1383,8.0961,8.0462,8.0147,7.9968,7.9897,7.9897,7.9897,7.9897,7.9897,7.9897,7.9968,8.0254,8.1068,8.2031,8.2923,8.3458,8.3986,8.4342,8.452,8.452,8.452,8.452,8.452,8.426,8.426,8.4043,8.4347,8.452,8.452,8.452,8.4485,8.4284,8.3323,8.2747,8.2167,8.1138,8.0079,7.945,7.8629,7.7883,7.7753,7.7237,7.6742,7.66,7.6086,7.4579,7.3037,7.2235,7.1697,7.1502,7.1232,7.0872,7.0766,7.0736,7.0179,6.932,6.9788,8.8868,8.5332,8.2305,8.0841,8.0474,8.0066,7.9897,7.9897,7.9897,7.9897,7.9897,7.9897,7.9897,7.9968,8.0676,8.1027,8.1437,8.2751,8.4067,8.5156,8.5716,8.6925,8.8119,8.7882,8.7625,8.8268,8.7668,8.7239,8.6981,8.6292,8.5947,8.5732,8.5465,8.5256,8.504,8.4816,8.452,8.452,8.452,8.452,8.452,8.452,8.452,8.452,8.452,8.452,8.452,8.452,8.452,8.4342,8.3736,8.3101,8.2816,8.2745,8.2352,8.1746,8.1211,8.0961,8.0498,8.0111,7.9968,7.9897,7.9897,7.9897,7.9897,7.9897,7.9897,7.9897,8.0004,8.0432,8.1568,8.2823,8.3572,8.3922,8.4342,8.452,8.452,8.452,8.452,8.452,8.4232,8.3842,8.3313,8.279,8.2712,8.1675,8.1719,8.1657,8.191,8.185,8.1355,8.0948,8.0575,8.0063,7.9019,7.8179,7.7226,7.6743,7.6403,7.5848,7.4845,7.4717,7.4863,7.3326,7.1502,7.0601,6.9863,6.9591,6.9365,6.9229,6.9122,6.8941,6.8669,6.8487,6.8714,8.792,8.5168,8.1614,8.0515,8.0882,8.0229,7.9897,7.9897,7.9897,7.9897,7.9897,7.9897,7.9897,7.9891,8.0462,8.0819,8.0854,8.1651,8.2582,8.3948,8.4207,8.5723,8.671,8.64,8.6222,8.6724,8.6276,8.5991,8.5775,8.5256,8.4564,8.4643,8.4694,8.452,8.4607,8.4599,8.452,8.452,8.452,8.452,8.452,8.452,8.452,8.452,8.452,8.452,8.452,8.4378,8.4271,8.4057,8.3458,8.2994,8.2709,8.2602,8.2245,8.1675,8.1389,8.1104,8.0569,8.0575,8.0432,8.0575,8.061,8.0355,8.0432,8.0361,8.0218,8.0147,8.0039,8.0462,8.1639,8.2745,8.3529,8.4029,8.4342,8.4284,8.3618,8.3339,8.2888,8.2672,8.2456,8.2223,8.08,8.0445,7.9914,7.887,7.8553,7.8522,7.8576,7.8597,7.8245,7.7795,7.7631,7.7576,7.6753,7.6308,7.5422,7.4757,7.4344,7.3786,7.2214,7.1592,7.1367,7.0631,6.9818,6.9184,6.8396,6.8078,6.8396,6.7942,6.7652,6.788,6.7987,6.7789,6.7834,8.6449,8.2747,8.1493,8.0968,8.1045,8.0265,7.9979,7.9938,7.9897,7.9897,7.9897,7.9897,7.9897,7.9897,8.007,8.0075,8.007,8.0854,8.1413,8.192,8.2833,8.3687,8.4442,8.4534,8.5164,8.5784,8.6008,8.5759,8.5415,8.4882,8.4528,8.452,8.452,8.452,8.452,8.452,8.452,8.452,8.452,8.452,8.452,8.452,8.452,8.452,8.452,8.452,8.4378,8.4029,8.3529,8.3494,8.4064,8.3601,8.3137,8.3137,8.2709,8.2031,8.171,8.1746,8.1817,8.1496,8.1746,8.1568,8.1639,8.1996,8.1496,8.1003,8.0676,8.064,8.0248,8.0391,8.1282,8.2495,8.3208,8.3451,8.3877,8.2876,8.0969,8.004,7.9366,7.7878,7.774,7.7621,7.733,7.7244,7.7139,7.5622,7.5828,7.5566,7.5207,7.5161,7.4863,7.4367,7.4363,7.471,7.4452,7.4144,7.3099,7.2461,7.1892,7.1277,6.9684,6.9096,6.8429,6.8215,6.8578,6.8169,6.747,6.747,6.7607,6.747,6.747,6.747,6.747,6.747,6.747,8.6289,8.4525,8.2629,8.2142,8.2426,8.1167,8.0596,8.0515,8.0142,7.9897,7.9897,7.9897,7.9897,7.9897,7.9897,7.9897,7.9891,8.0254,8.0391,8.0569,8.1532,8.2063,8.2278,8.2907,8.3435,8.3845,8.3753,8.4056,8.433,8.4101,8.4171,8.4413,8.452,8.452,8.452,8.452,8.452,8.452,8.452,8.452,8.452,8.452,8.452,8.452,8.452,8.452,8.452,8.4243,8.3601,8.2887,8.2566,8.2388,8.2031,8.1645,8.1217,8.0967,8.0896,8.089,8.0854,8.0854,8.0896,8.0932,8.0896,8.0854,8.0854,8.0605,8.0355,8.0468,8.0111,8.0284,8.0997,8.1639,8.2174,8.2256,8.1082,7.9435,7.8171,7.7822,7.7514,7.7086,7.6701,7.6401,7.4594,7.4465,7.36,7.2604,7.2706,7.2295,7.1779,7.1591,7.1264,7.0285,6.9935,7.0207,7.0108,7.0005,6.9274,6.9431,6.9112,6.8815,6.7956,6.7729,6.7543,6.7686,6.7533,6.747,6.747,6.747,6.747,6.747,6.747,6.747,6.747,6.747,6.747,8.6368,8.5728,8.3717,8.3151,8.3475,8.1818,8.1009,8.0968,8.0224,7.9897,7.9897,7.9897,7.9897,7.9897,7.9897,7.9897,7.9897,7.9932,7.9897,8.0004,8.0533,8.0747,8.089,8.1532,8.1966,8.2044,8.2372,8.2531,8.3073,8.3108,8.3458,8.4243,8.4207,8.4314,8.452,8.452,8.452,8.452,8.452,8.452,8.452,8.452,8.452,8.452,8.4306,8.4243,8.4235,8.41,8.3422,8.2531,8.196,8.1603,8.1496,8.1074,8.086,8.0789,8.0682,8.061,8.0605,8.064,8.061,8.0503,8.0819,8.0503,8.0539,8.0319,8.0218,8.0141,7.9963,7.9941,7.9908,7.9995,8.0015,8.008,7.8103,7.6101,7.5193,7.5036,7.4738,7.4182,7.3775,7.2758,7.1437,7.0823,7.0218,6.8807,6.8492,6.8525,6.8342,6.8171,6.8396,6.7097,6.6584,6.6356,6.6287,6.6279,6.6474,6.693,6.6975,6.6882,6.6735,6.6674,6.6901,6.7242,6.7157,6.7385,6.7413,6.7356,6.7442,6.747,6.747,6.747,6.747,6.747,6.747,8.6449,8.5007,8.408,8.3757,8.3556,8.1899,8.1126,8.0927,8.0188,7.9897,7.9897,7.9897,7.9897,7.9897,7.9897,7.9897,7.9897,7.9897,7.9897,7.9932,8.0004,8.0075,8.0182,8.0783,8.1063,8.1211,8.1746,8.2138,8.2281,8.2281,8.2716,8.3387,8.3494,8.3779,8.42,8.4485,8.4342,8.4306,8.4378,8.4378,8.4421,8.4457,8.4413,8.4421,8.3779,8.3465,8.3315,8.2745,8.2602,8.3215,8.2923,8.2495,8.221,8.2103,8.1746,8.1639,8.2038,8.1782,8.1924,8.1568,8.1639,8.1568,8.1568,8.2145,8.1568,8.0997,8.0676,8.0676,8.0048,7.9153,7.7913,7.7528,7.6924,7.61,7.4899,7.3392,7.1272,7.104,7.0605,6.863,6.7303,6.7089,6.7667,6.7295,6.7038,6.6656,6.6954,6.6522,6.603,6.583,6.5584,6.5337,6.5075,6.5112,6.5567,6.5605,6.5719,6.6032,6.5991,6.5893,6.5735,6.5804,6.6003,6.6486,6.6771,6.7157,6.7299,6.7129,6.71,6.714,6.7254,6.7442,6.747,6.747,6.747,8.549,8.4927,8.4646,8.4281,8.3636,8.2467,8.1574,8.0968,8.0188,7.9897,7.9897,7.9897,7.9897,7.9897,7.9897,7.9897,7.9897,7.9897,7.9897,7.9897,7.9897,7.9897,7.9968,8.0254,8.0361,8.0432,8.0605,8.0997,8.1461,8.1532,8.1847,8.2531,8.2638,8.2852,8.3066,8.3101,8.3101,8.3101,8.3137,8.3101,8.3101,8.3101,8.3101,8.3066,8.2816,8.2638,8.2531,8.1467,8.1104,8.1782,8.1924,8.1817,8.1496,8.1033,8.0747,8.0712,8.0747,8.0825,8.0747,8.0819,8.0747,8.0789,8.0789,8.0789,8.0753,8.0533,8.0319,8.0114,7.9089,7.7891,7.7107,7.6239,7.426,7.1949,7.1346,7.0713,7.0006,6.9626,6.898,6.8259,6.7494,6.7068,6.6471,6.6044,6.5403,6.4889,6.4991,6.4747,6.459,6.4561,6.4446,6.4273,6.4114,6.4411,6.4838,6.4964,6.505,6.5094,6.5094,6.498,6.4951,6.5094,6.5349,6.5833,6.606,6.6344,6.6543,6.6486,6.6572,6.6685,6.6771,6.6941,6.7186,6.7271,6.7157,8.4929,8.4929,8.4929,8.4606,8.404,8.2909,8.2061,8.1411,8.0306,7.9897,7.9897,7.9897,7.9897,7.9897,7.9897,7.9897,7.9897,7.9897,7.9897,7.9897,7.9897,7.9897,7.9897,7.9897,7.9897,7.9897,7.9897,8.0218,8.064,8.0712,8.1068,8.171,8.1853,8.1996,8.2281,8.221,8.221,8.2245,8.2459,8.2566,8.2602,8.2852,8.2952,8.2887,8.2459,8.196,8.1461,8.0468,8.0284,8.1027,8.0819,8.0712,8.0605,8.0182,7.9932,7.9897,7.9897,7.9897,7.9897,7.9932,7.9968,7.9932,7.9932,7.9897,7.9897,7.9932,7.9932,7.9769,7.8296,7.6818,7.6156,7.4702,7.1817,6.7931,6.8004,6.8301,6.7876,6.8089,6.8046,6.7621,6.6983,6.6386,6.5659,6.5146,6.446,6.3988,6.393,6.3959,6.3844,6.3916,6.3773,6.3773,6.383,6.4015,6.4199,6.437,6.4426,6.4455,6.4426,6.4341,6.4398,6.4497,6.4838,6.515,6.5236,6.5334,6.5533,6.5719,6.5918,6.606,6.6145,6.6401,6.6759,6.6759,6.6515,8.4891,8.4815,8.4929,8.4697,8.4299,8.2851,8.2349,8.1866,8.052,7.9825,7.9897,7.9897,7.9897,7.9897,7.9897,7.9825,7.9718,7.9754,7.979,7.9825,7.9861,7.9897,7.9897,7.9897,7.9897,7.9897,7.9897,7.9932,7.9963,8.0039,8.0396,8.0961,8.1063,8.1354,8.2181,8.1996,8.2067,8.2138,8.2566,8.3066,8.3465,8.37,8.3986,8.3986,8.2852,8.1496,8.0147,7.9968,8.0212,8.0819,8.0319,7.9932,8.0004,7.9932,7.9897,7.9897,7.9897,7.9897,7.9897,7.9897,7.9856,7.961,7.9774,7.9446,7.896,7.9001,7.896,7.8426,7.719,7.5907,7.4003,7.2266,6.9175,6.4887,6.5373,6.5916,6.5488,6.5873,6.5788,6.4417,6.4117,6.3816,6.3844,6.3973,6.3945,6.3816,6.3773,6.3773,6.3773,6.3773,6.3773,6.3773,6.3801,6.383,6.3758,6.3758,6.3772,6.3844,6.3901,6.3929,6.4,6.4057,6.4398,6.454,6.4582,6.4667,6.491,6.4995,6.5223,6.5435,6.5447,6.5589,6.5889,6.6088,6.5918,8.3219,8.3219,8.3219,8.2904,8.2311,8.1166,8.0701,8.0571,7.9598,7.9433,7.9861,7.9897,7.9897,7.9897,7.9897,7.9361,7.8398,7.8862,7.9071,7.9183,7.9647,7.9897,7.9897,7.9897,7.9897,7.9897,7.9897,7.9897,7.9897,7.9897,7.9998,8.0248,8.0289,8.0391,8.061,8.0605,8.0646,8.064,8.0896,8.1324,8.1782,8.2067,8.2168,8.2096,8.1704,8.1134,8.067,8.0141,8.0039,8.0177,8.0039,7.9897,7.9897,7.9897,7.9897,7.9897,7.9897,7.9897,7.9897,7.9897,7.9329,7.8179,7.7973,7.6825,7.4561,7.4353,7.3695,7.2443,7.0881,6.9659,6.8626,6.6939,6.489,6.333,6.32,6.3157,6.2355,6.2499,6.237,6.1954,6.2198,6.3272,6.4288,6.4016,6.3758,6.3773,6.3773,6.3773,6.3773,6.3773,6.3773,6.3773,6.3773,6.3773,6.3773,6.3515,6.3371,6.3701,6.3815,6.3787,6.3844,6.3815,6.3901,6.3943,6.4028,6.4157,6.4242,6.4299,6.4512,6.4809,6.4895,6.498,6.5236,6.5406,6.5406,8.2422,8.2422,8.2422,8.2148,8.1562,8.0388,7.9935,7.9814,7.8772,7.8612,7.9005,7.904,7.904,7.904,7.904,7.851,7.7613,7.8041,7.8327,7.8362,7.8791,7.904,7.9076,7.9361,7.9469,7.9499,7.9754,7.9897,7.9897,7.9897,7.9897,7.9897,7.9897,7.9897,7.9897,7.9897,7.9897,7.9932,8.0177,8.0533,8.1063,8.1354,8.1354,8.1063,8.1027,8.0884,8.0682,8.0182,7.9897,7.9897,7.9611,7.9469,7.9469,7.9219,7.904,7.904,7.9081,7.904,7.9,7.8514,7.7376,7.5633,7.4895,7.3151,7.0826,7.0078,6.9631,6.8463,6.6818,6.4445,6.313,6.1421,6.039,6.0207,6.039,6.0292,5.9592,5.9592,5.9635,5.9491,5.9964,6.0956,6.1911,6.2697,6.2697,6.2783,6.3343,6.3687,6.3773,6.3773,6.3773,6.3773,6.3773,6.3773,6.3773,6.3343,6.3085,6.3386,6.3773,6.3773,6.3773,6.3773,6.3773,6.3872,6.3844,6.3901,6.3958,6.4043,6.4043,6.4256,6.4284,6.4455,6.4825,6.4626,6.4711,8.2309,8.2309,8.2309,8.2194,8.2153,8.0517,7.9809,7.9647,7.8223,7.7546,7.7688,7.7613,7.751,7.7327,7.7439,7.7439,7.7403,7.7474,7.747,7.747,7.7617,7.7581,7.7577,7.8291,7.8683,7.8755,7.929,7.9647,7.979,7.9861,7.9897,7.9897,7.9897,7.9897,7.9897,7.9897,7.9897,7.9968,8.0498,8.0956,8.1098,8.171,8.1597,8.1033,8.0961,8.0533,7.9891,7.979,7.9754,7.9754,7.9076,7.8643,7.8648,7.8005,7.7653,7.7653,7.7617,7.7577,7.7454,7.6248,7.4414,7.2459,7.0985,6.8942,6.6895,6.6514,6.6349,6.6566,6.4257,6.1488,5.7531,5.6729,5.6475,5.641,5.7161,5.7119,5.6374,5.6775,5.7083,5.6537,5.6884,5.7642,5.8035,5.9536,6.0752,6.1539,6.2656,6.3701,6.3744,6.3773,6.3773,6.3773,6.3601,6.3644,6.3586,6.2955,6.2583,6.3128,6.3773,6.3773,6.3773,6.3773,6.3773,6.3773,6.3773,6.3773,6.3773,6.3801,6.383,6.3858,6.3872,6.3872,6.4185,6.3872,6.3929,8.0753,8.0715,8.0715,8.0677,8.0639,7.9494,7.9061,7.8919,7.8017,7.7519,7.751,7.7546,7.6614,7.5109,7.5502,7.5712,7.5858,7.6321,7.6571,7.6642,7.7256,7.7546,7.7581,7.7791,7.7903,7.7898,7.8153,7.8505,7.9076,7.9611,7.9897,7.9897,7.9897,7.9897,7.9897,7.9897,7.9897,7.9932,8.0034,8.0498,8.0926,8.0712,8.0426,8.0218,7.9718,7.925,7.9076,7.8545,7.8224,7.8224,7.801,7.7903,7.7863,7.7688,7.7546,7.7546,7.7546,7.7546,7.7506,7.5988,7.3709,7.0773,6.8942,6.6084,6.2432,6.1349,6.0723,5.9609,5.7624,5.6129,5.3991,5.384,5.3762,5.3541,5.3761,5.3548,5.2733,5.2672,5.2879,5.2672,5.3963,5.4887,5.5398,5.7523,5.9965,6.143,6.2451,6.3189,6.3616,6.3687,6.373,6.373,6.2454,6.2281,6.3429,6.2654,6.3171,6.3687,6.3472,6.3429,6.3773,6.3758,6.3758,6.3214,6.3601,6.3773,6.3773,6.3773,6.3801,6.3801,6.3801,6.383,6.3773,6.3773,6.3801,7.9044,7.9044,7.9044,7.9044,7.8857,7.7809,7.728,7.7155,7.6086,7.5571,7.5579,7.5615,7.4753,7.3468,7.3857,7.4071,7.4145,7.4534,7.4747,7.4857,7.5683,7.604,7.615,7.6646,7.7003,7.7003,7.7399,7.7791,7.8255,7.8724,7.8933,7.8933,7.929,7.9433,7.9469,7.9754,7.9897,7.9897,7.9897,7.9749,7.953,7.9143,7.8933,7.8862,7.8505,7.8255,7.8184,7.7831,7.7546,7.7546,7.6899,7.6539,7.6539,7.5897,7.5576,7.5576,7.5576,7.5269,7.4648,7.3051,7.0309,6.623,6.4662,6.1893,5.7493,5.7197,5.651,5.4685,5.3167,5.2155,5.2004,5.2087,5.2193,5.2054,5.1878,5.1554,5.0921,5.0584,5.0312,5.0396,5.1492,5.2357,5.272,5.435,5.6579,5.8607,6.0062,6.0768,6.1672,6.2303,6.2701,6.2803,6.0547,5.9746,6.0812,6.0942,6.071,6.1158,6.1461,6.1461,6.1461,6.192,6.254,6.2525,6.3171,6.3687,6.3573,6.3773,6.3429,6.274,6.2826,6.3773,6.3773,6.3773,6.3445,7.7564,7.7526,7.7602,7.7526,7.7455,7.6057,7.5355,7.4985,7.3575,7.2687,7.2363,7.2434,7.2506,7.2468,7.254,7.2648,7.2611,7.2541,7.2577,7.2755,7.3325,7.3681,7.3966,7.5213,7.5887,7.6069,7.6717,7.7113,7.7399,7.7435,7.7546,7.7613,7.8255,7.8612,7.8719,7.929,7.9647,7.9683,7.9683,7.8929,7.7458,7.7506,7.7546,7.7546,7.751,7.7399,7.7296,7.7256,7.7149,7.7006,7.5608,7.4819,7.4676,7.343,7.2538,7.2424,7.2353,7.1536,6.985,6.8116,6.5163,6.0766,5.9414,5.7342,5.432,5.4159,5.3532,5.1966,5.0889,5.0434,5.0345,5.0667,5.0865,5.08,5.056,5.0472,5.0266,4.9777,4.9285,4.9285,4.9921,5.0101,5.0377,5.1209,5.2241,5.4292,5.6308,5.8013,5.8965,5.9869,6.0776,6.0808,5.8653,5.6819,5.7619,5.6548,5.7072,5.7965,5.8061,5.8285,5.8665,5.9538,6.0423,6.0339,6.1546,6.2374,6.2645,6.3086,6.2256,6.1104,6.1936,6.3386,6.3472,6.3516,6.2948,7.7526,7.7526,7.7526,7.7526,7.7454,7.6535,7.5429,7.4318,7.3911,7.1951,6.9513,7.0368,7.0903,7.0938,7.1544,7.1829,7.1721,7.1151,7.1223,7.1756,7.197,7.2399,7.2969,7.3289,7.3824,7.4358,7.461,7.5323,7.6428,7.6496,7.6896,7.747,7.776,7.7791,7.7827,7.801,7.8041,7.8117,7.8081,7.7938,7.7506,7.7546,7.7546,7.747,7.6896,7.6211,7.5605,7.5002,7.4432,7.3826,7.3432,7.3254,7.3218,7.2326,7.1277,7.0208,6.9573,6.8087,6.5432,6.3039,6.0747,5.8761,5.7237,5.5452,5.34,5.1829,5.0566,4.9886,4.9518,4.9142,4.8558,4.8604,4.8619,4.8619,4.8535,4.8549,4.8509,4.8635,4.877,4.8817,4.9215,4.952,4.9835,5.0887,5.1834,5.2573,5.4492,5.6195,5.7024,5.7703,5.7746,5.7378,5.6813,5.6354,5.6685,5.6311,5.6294,5.6754,5.6822,5.6687,5.6789,5.7078,5.7519,5.7683,5.8082,5.8693,5.8827,5.8907,5.8894,5.8953,6.0131,6.1379,6.1324,6.1949,6.2155,7.5744,7.5817,7.5779,7.5744,7.5744,7.4542,7.3248,7.181,7.1089,6.9474,6.7695,6.8765,6.9299,6.9335,6.9762,6.994,6.9904,6.9513,6.9727,7.0475,7.0831,7.1437,7.2149,7.2577,7.2933,7.3327,7.3325,7.3788,7.4572,7.4608,7.5038,7.5826,7.5861,7.6218,7.6931,7.7363,7.7546,7.7546,7.6114,7.5326,7.5326,7.5326,7.5362,7.5326,7.4857,7.4356,7.3964,7.3574,7.3147,7.2719,7.2007,7.1615,7.1615,7.0582,6.9293,6.7853,6.6716,6.5108,6.2828,6.0058,5.7549,5.5541,5.4431,5.2761,5.024,4.8796,4.7971,4.7797,4.7418,4.7028,4.6537,4.6842,4.7084,4.7147,4.7569,4.7826,4.7833,4.8067,4.8231,4.8255,4.8489,4.8694,4.867,4.9767,5.0485,5.0592,5.1624,5.3147,5.4367,5.4284,5.3775,5.3303,5.3618,5.3941,5.3949,5.3991,5.3991,5.3991,5.3991,5.3991,5.3991,5.4883,5.5247,5.5349,5.6069,5.6579,5.6983,5.7002,5.6679,5.6731,5.7642,5.8243,5.8002,5.8901,5.9249,7.3508,7.3505,7.3505,7.3359,7.3069,7.1628,7.026,6.8731,6.711,6.6342,6.6447,6.7197,6.759,6.7731,6.7696,6.7767,6.7839,6.7767,6.8159,6.8907,6.9584,7.0297,7.1044,7.1827,7.2256,7.2399,7.2468,7.2612,7.2719,7.2718,7.304,7.3646,7.3681,7.4394,7.5638,7.6468,7.6864,7.6867,7.4149,7.2682,7.2682,7.2682,7.2682,7.2682,7.2718,7.2646,7.2541,7.2434,7.2327,7.2185,7.0432,6.9616,6.9904,6.7952,6.6337,6.5287,6.3399,6.1614,5.9951,5.7327,5.4462,5.1703,5.1226,4.9655,4.6325,4.5664,4.5497,4.5628,4.521,4.4788,4.4859,4.5591,4.6092,4.61,4.6865,4.7381,4.7287,4.7451,4.7552,4.7552,4.7669,4.7873,4.7944,4.8312,4.8652,4.8641,4.9428,4.9924,5.1154,5.0566,4.9926,4.9983,5.0382,5.0663,5.1018,5.0729,5.0956,5.071,5.0895,5.106,5.1037,5.2139,5.2985,5.3168,5.4107,5.5094,5.5391,5.5686,5.4875,5.3963,5.5034,5.5833,5.4754,5.4799,5.532,7.2704,7.267,7.2704,7.1945,7.0763,6.9933,6.8675,6.7137,6.4958,0.0,0.0,6.481,6.5522,6.6092,6.6092,6.6449,6.7019,6.6377,6.6554,6.7268,6.741,6.7909,6.8693,6.9477,7.0154,7.0796,7.1437,7.2041,7.2646,7.2682,7.2753,7.2898,7.2933,7.3003,7.3287,7.3468,7.3539,7.3503,7.3004,7.2682,7.2682,7.2682,7.2682,7.2682,7.2682,7.2434,7.1793,7.1116,7.0475,6.9798,6.6599,6.5868,6.8127,6.3593,6.123,6.1955,5.861,5.5291,5.2648,5.1369,4.9884,4.8068,4.8144,4.7013,4.3838,4.2967,4.2897,4.3771,4.4072,4.4271,4.4257,4.4798,4.5127,4.515,4.5329,4.5432,4.5479,4.606,4.6521,4.6638,4.7224,4.7826,4.7756,4.7833,4.7927,4.8037,4.8395,4.8887,4.9068,4.8734,4.853,4.8864,4.935,4.9637,4.9679,4.9679,4.9637,4.9637,4.9679,4.9679,4.9679,4.9905,5.0114,5.0304,5.0388,5.093,5.1247,5.153,5.1318,5.1382,5.297,5.4204,5.3747,5.2203,5.0846,7.1489,7.1865,7.1413,7.0559,0.0,6.8397,6.6397,6.3825,6.2682,6.2415,6.2847,6.3598,6.4166,6.4522,6.4522,6.495,6.5665,6.5306,6.5736,6.6805,6.6875,6.7303,6.8052,6.8409,6.8836,6.9192,6.962,6.994,7.0332,7.0332,7.076,7.1508,7.1508,7.19,7.2684,7.2682,7.2114,7.0938,7.133,7.1508,7.1508,7.1508,7.1508,7.1508,7.1152,0.0,0.0,0.0,0.0,0.0,0.0,0.0,0.0,0.0,0.0,5.7193,5.3336,5.0058,4.7861,4.6091,4.4783,4.4068,4.4422,4.3576,4.111,4.0747,4.0943,4.1684,4.2236,4.2577,4.26,4.3246,4.3716,4.3716,4.3951,4.421,4.4529,4.4901,4.5262,4.5567,4.6052,4.6435,4.6615,4.6849,4.7107,4.7428,4.7897,4.8185,4.8161,4.795,4.7897,4.8178,4.8483,4.8559,4.86,4.86,4.8559,4.8559,4.8559,4.8559,4.86,4.86,4.8559,4.8583,4.8794,4.9028,4.9332,4.9632,4.9824,5.0161,5.0905,5.1415,5.0789,4.9847,4.8981,6.9933,7.0535,6.9687,6.8848,6.7965,6.6277,6.3668,6.0627,6.0565,6.0953,6.1599,6.2205,6.2561,6.2704,6.2736,6.3239,6.4097,6.4097,6.4917,6.6411,6.6413,6.6841,6.7589,6.7732,6.7803,6.7838,6.7981,6.7946,6.7768,6.7946,6.8622,6.9691,6.9869,7.0653,7.1971,0.0,0.0,0.0,6.962,7.0012,7.0154,7.0118,7.0154,7.0118,6.9513,0.0,6.9156,6.8266,6.7663,6.7207,6.5209,0.0,0.0,0.0,0.0,0.0,0.0,0.0,0.0,0.0,0.0,0.0,3.9987,3.939,3.7974,3.8363,3.8983,3.9603,4.012,4.0449,4.0567,4.1402,4.2012,4.2142,4.2518,4.2964,4.3458,4.3599,4.3857,4.4412,4.467,4.4854,4.5248,4.5655,4.6209,4.6638,4.7177,4.7412,4.728,4.724,4.7404,4.7505,4.7639,4.7693,4.7826,4.7873,4.792,4.7826,4.7826,4.785,4.7897,4.7873,4.785,4.7873,4.8161,4.8442,4.8466,4.877,4.9069,4.9075,4.9092,4.8817,4.7997,4.8202,4.8442,6.7807,6.7856,6.7203,6.6176,6.4764,6.2562,6.0593,5.8997,5.8997,5.9098,5.9175,5.9246,5.9674,6.028,6.028,6.11,6.2458,6.2494,6.3349,6.4776,6.4845,6.5237,6.6021,6.6697,6.7017,6.7053,6.7731,6.7696,6.7053,6.7731,6.7803,6.7339,6.7981,6.8765,6.9584,6.8943,6.848,6.8159,6.8266,6.8658,6.9335,6.9335,6.937,6.9335,6.9263,6.9228,6.9192,6.7802,6.6183,6.432,6.0316,5.7565,5.6324,5.2234,4.9366,0.0,4.5421,0.0,0.0,0.0,0.0,0.0,0.0,0.0,0.0,3.5232,3.647,3.7433,3.8005,3.8499,3.8936,3.95,4.005,4.0439,4.0614,4.0849,4.1343,4.1836,4.2271,4.2823,4.3669,4.4247,4.4327,4.4751,4.5192,4.5655,4.6123,4.6138,4.5511,4.5661,4.6029,4.6428,4.6849,4.713,4.7545,4.7733,4.7669,4.7756,4.7686,4.7826,4.7709,4.7733,4.778,4.7739,4.778,4.7857,4.7944,4.7967,4.7997,4.8108,4.8014,4.7857,4.7733,4.778,4.7944,6.5643,6.596,6.4891,6.2894,6.0334,5.8951,5.8009,5.7422,5.7393,5.7393,5.7422,5.7422,5.7571,5.7951,5.7921,5.8203,5.8714,5.9758,6.0724,6.1664,6.2704,6.349,6.3886,6.4236,6.4586,6.5006,6.4117,6.4352,6.5457,6.4711,6.4991,6.6199,6.6555,6.6568,6.6229,6.6143,6.6735,6.8016,6.7624,6.7767,6.8515,6.8551,6.8551,6.8551,6.8158,6.7874,6.7909,6.6377,6.4967,6.3521,5.913,5.5699,5.3576,4.7748,4.4019,0.0,0.0,0.0,0.0,0.0,0.0,0.0,0.0,0.0,0.0,0.0,3.3864,3.4926,3.6212,3.6893,3.6571,3.7504,3.8138,3.8067,3.8325,3.8819,3.9617,3.9922,4.0486,4.1578,4.2118,4.2706,4.3575,4.3881,4.4267,4.5065,4.484,4.4619,4.4516,4.4892,4.5215,4.545,4.5723,4.5958,4.6146,4.6193,4.6193,4.6193,4.6154,4.6231,4.6193,4.6193,4.6193,4.6216,4.6373,4.6592,4.6936,4.7154,4.7482,4.7592,4.6975,4.6286,4.6193,4.6349,4.6638,6.3123,6.333,6.1007,5.8487,5.586,5.5458,5.5353,5.556,5.5739,5.571,5.5524,5.5353,5.4998,5.4595,5.434,5.4298,5.4452,5.6067,5.7204,5.8127,6.0052,6.0949,6.093,6.1399,6.1778,6.1959,6.0382,6.074,6.2801,6.127,6.1719,6.3961,6.3145,6.2478,6.202,6.2379,6.405,6.6912,6.6424,6.6601,6.7447,6.7696,6.7732,6.7767,6.7161,6.6804,6.6555,6.5059,6.3443,6.1626,5.7505,5.3426,4.9546,4.3582,0.0,0.0,0.0,0.0,0.0,0.0,0.0,0.0,0.0,2.7359,2.8532,0.0,3.1069,0.0,3.4093,3.5085,3.4668,3.5672,0.0,0.0,3.6517,3.7135,3.802,3.8138,3.8678,4.013,4.0379,4.1013,4.2424,4.2706,4.3082,4.3847,4.3481,4.333,4.3693,4.4318,4.4717,4.4741,4.4859,4.4906,4.4976,4.4906,4.4929,4.4741,4.4741,4.4717,4.4717,4.4812,4.4906,4.4929,4.5145,4.542,4.5881,4.6232,4.6623,4.6584,4.5582,4.4529,4.4553,4.4863,4.5256,6.0023,5.9143,5.4258,5.2086,5.1821,5.199,5.25,5.3205,5.3855,5.3812,5.3106,5.2393,5.1141,4.9516,4.8566,0.0,5.0279,5.0992,5.2473,5.4529,5.6486,5.7154,5.6752,5.8502,5.8815,5.7831,5.7668,5.7902,5.8417,5.7931,5.8238,5.9295,5.5858,5.5026,5.6884,5.7004,5.9239,6.364,6.3887,6.4588,6.5845,6.6625,6.6982,6.6912,6.691,6.6518,6.5772,6.4273,6.1392,5.6976,5.3537,4.8603,4.1976,0.0,0.0,0.0,0.0,0.0,0.0,0.0,0.0,0.0,0.0,0.0,0.0,0.0,0.0,2.9541,3.1137,0.0,3.3929,3.4221,0.0,0.0,0.0,3.593,3.647,3.6541,3.694,3.8029,0.0,0.0,4.0355,4.0896,4.126,4.133,4.2095,4.2659,4.2706,4.3565,4.4163,4.4129,4.4576,4.4859,4.4694,4.4717,4.4576,4.4139,4.4163,4.4129,4.4116,4.4445,4.4835,4.4764,4.4868,4.4939,4.5,4.4939,4.4812,4.3904,4.3552,4.3434,4.3411,4.3787,4.4163,5.4724,5.0665,4.8708,4.7309,4.6514,4.6613,4.6856,4.7122,4.698,4.697,4.7052,4.633,4.5553,4.4855,4.444,0.0,0.0,0.0,4.6813,4.9746,5.1066,5.2349,5.3604,5.4395,5.4758,5.4717,5.3392,5.3716,5.5557,5.4179,5.2196,4.9661,0.0,0.0,5.0616,5.2874,5.5357,5.8013,6.0004,6.1524,6.2439,6.3192,6.3773,6.4136,6.3783,6.3586,6.3598,6.0875,5.7649,5.3975,4.9521,4.4477,0.0,0.0,0.0,0.0,0.0,0.0,0.0,0.0,0.0,0.0,0.0,2.1949,2.2924,0.0,0.0,0.0,2.7828,2.9048,3.0571,3.1586,0.0,0.0,0.0,0.0,0.0,0.0,0.0,3.5091,3.6376,3.7754,3.91,3.8945,3.8922,3.9556,4.052,4.1296,4.1578,0.0,4.2729,4.2729,4.2894,4.3035,4.3035,4.3035,4.2928,4.2753,4.2693,4.2729,4.2729,4.2894,4.3035,4.3035,4.3035,4.3129,4.3434,4.2706,4.193,4.1554,4.1484,4.1484,4.1484,4.1883,4.2353,4.8555,0.0,0.0,0.0,0.0,4.1549,4.1656,4.2024,4.1526,4.1481,4.1747,4.0961,0.0,0.0,0.0,0.0,0.0,0.0,4.1597,4.4256,4.6227,4.7909,4.9294,5.0256,5.0672,5.0633,4.9275,4.9523,5.1002,4.8169,4.4617,4.0742,0.0,0.0,0.0,0.0,5.09,5.3102,5.5805,5.7927,5.9379,5.9731,6.0475,6.1759,6.083,6.0218,6.0137,5.6589,5.322,5.0144,4.4934,0.0,0.0,0.0,0.0,0.0,0.0,0.0,0.0,0.0,0.0,0.0,0.0,0.0,0.0,0.0,0.0,0.0,0.0,0.0,2.6715,2.8229,2.9278,0.0,0.0,0.0,0.0,0.0,0.0,0.0,0.0,0.0,3.6529,3.6243,3.6552,0.0,0.0,4.005,4.0742,4.1249,4.1613,4.1778,4.1743,0.0,4.1743,4.1743,4.1684,4.1378,4.1331,4.1284,4.1144,4.1237,4.1331,4.1355,4.1366,4.1237,4.0992,3.966,3.8589,3.852,3.852,3.852,3.8632,3.9518,4.0507,0.0,0.0,0.0,0.0,0.0,0.0,0.0,0.0,3.9,3.8602,0.0,3.7133,0.0,0.0,0.0,0.0,3.2893,3.5406,0.0,0.0,4.2447,4.4066,4.3316,4.6254,4.6774,4.5081,4.5498,4.5232,4.4098,3.9025,0.0,0.0,0.0,0.0,0.0,0.0,4.5454,4.9363,5.1271,5.3844,5.7162,5.6553,5.7443,6.0081,5.8411,5.6763,5.519,5.1648,4.8071,4.4879,3.9575,0.0,0.0,0.0,0.0,0.0,0.0,0.0,0.0,0.0,0.0,0.0,0.0,0.0,0.0,0.0,0.0,0.0,0.0,0.0,0.0,2.4022,0.0,0.0,0.0,0.0,0.0,0.0,0.0,0.0,0.0,3.295,3.2064,3.2679,3.4187,3.6785,0.0,0.0,0.0,0.0,4.1202,4.166,4.1778,4.1719,4.1754,4.1754,4.1402,4.0449,0.0,0.0,3.9617,3.9956,4.0228,4.0285,4.0238,3.965,3.7597,3.568,3.4453,3.439,3.4431,3.4421,3.4581,3.6492,3.8395,0.0,0.0,0.0,0.0,0.0,0.0,0.0,0.0,0.0,3.1267,0.0,3.0201,0.0,0.0,0.0,0.0,0.0,0.0,0.0,0.0,3.6422,3.7695,3.7911,4.036,4.0623,0.0,3.9244,3.7394,0.0,0.0,0.0,0.0,0.0,0.0,0.0,0.0,4.0206,4.2576,4.6653,4.9713,5.1686,5.2286,5.3494,5.5361,5.4288,5.2689,5.0629,4.7181,4.3632,0.0,0.0,0.0,0.0,0.0,0.0,0.0,0.0,0.0,0.0,0.0,0.0,0.0,0.0,0.0,0.0,0.0,0.0,0.0,0.0,0.0,0.0,0.0,2.2752,0.0,0.0,0.0,0.0,0.0,0.0,0.0,0.0,0.0,2.8333,3.0511,3.272,3.4246,3.6313,3.7935,3.8616,0.0,0.0,0.0,0.0,0.0,0.0,0.0,3.9556,3.8828,3.7996,3.7284,3.6752,3.682,3.6934,3.6966,0.0,0.0,3.2602,3.1256,3.0831,3.0781,3.0584,3.048,3.0719,3.1679,3.2615,0.0,0.0,0.0,0.0,0.0,0.0,0.0,0.0,0.0,2.5217,2.5681,0.0,0.0,0.0,0.0,0.0,0.0,0.0,0.0,0.0,0.0,0.0,3.3356,3.5559,0.0,0.0,0.0,0.0,0.0,0.0,0.0,0.0,0.0,0.0,0.0,0.0,3.6759,3.7744,4.2712,4.606,4.7528,4.8266,4.947,5.1184,5.0038,4.8382,4.6309,0.0,0.0,0.0,0.0,0.0,0.0,0.0,0.0,0.0,0.0,0.0,0.0,0.0,0.0,0.0,0.0,0.0,0.0,0.0,0.0,0.0,0.0,0.0,0.0,0.0,1.952,0.0,0.0,0.0,0.0,0.0,0.0,0.0,0.0,0.0,0.0,0.0,2.9792,3.1788,3.4051,3.5949,3.7214,3.7832,3.8208,0.0,0.0,0.0,0.0,0.0,0.0,0.0,0.0,0.0,0.0,0.0,0.0,0.0,0.0,3.2241,2.8642,2.7195,2.654,2.6513,0.0,0.0,0.0,0.0,0.0,0.0,0.0,0.0,0.0,0.0,0.0,0.0,0.0,0.0,0.0,2.0037,0.0,0.0,1.9106,0.0,0.0,0.0,0.0,0.0,0.0,0.0,0.0,0.0,0.0,0.0,0.0,0.0,0.0,0.0,0.0,0.0,0.0,0.0,0.0,0.0,0.0,3.5029,3.5034,3.9614,4.2967,4.4958,4.4697,4.5613,4.7762,4.5806,4.3938,4.2382,0.0,0.0,0.0,0.0,0.0,0.0,0.0,0.0,0.0,0.0,0.0,0.0,0.0,0.0,0.0,0.0,0.0,0.0,0.0,0.0,0.0,0.0,0.0,0.0,0.0,0.0,1.5358,1.5176,1.5567,0.0,0.0,0.0,0.0,0.0,0.0,0.0,0.0,0.0,2.9384,3.1308,3.318,3.5799,3.669,3.7183,3.7747,3.7754,3.7785,3.7817,3.7417,3.6924,0.0,0.0,0.0,0.0,0.0,0.0,0.0,0.0,0.0,0.0,0.0,0.0,0.0,0.0,0.0,0.0,0.0,0.0,0.0,0.0,0.0,0.0,0.0,0.0,0.0,0.0,0.0,0.0,0.0,0.0,0.0,0.0,0.0,0.0,0.0,0.0,0.0,0.0,0.0,0.0,0.0,0.0,0.0,0.0,0.0,0.0,0.0,0.0,0.0,0.0,0.0,0.0,0.0,0.0,3.2941,3.3408,3.78,4.08,4.2179,4.2564,4.3075,4.3777,4.3182,4.1808,0.0,0.0,0.0,0.0,0.0,0.0,0.0,0.0,0.0,0.0,0.0,0.0,0.0,0.0,0.0,0.0,0.0,0.0,0.0,0.0,0.0,0.0,0.0,0.0,0.0,0.0,0.0,0.0,1.3941,1.3955,1.4028,0.0,0.0,0.0,0.0,0.0,0.0,0.0,0.0,0.0,0.0,3.073,3.2066,3.362,3.5049,3.6114,3.5176,3.4813,3.606,3.5836,3.5326,3.4779,0.0,0.0,0.0,0.0,0.0,0.0,0.0,0.0,0.0,0.0,0.0,0.0,0.0,0.0,0.0,0.0,0.0,0.0,0.0,0.0,0.0,0.0,0.0,0.0,0.0,0.0,0.0,0.0,0.0,0.0,0.0,0.0,0.0,0.0,0.0,0.0,0.0,0.0,0.0,0.0,0.0,0.0,0.0,0.0,0.0,0.0,0.0,0.0,0.0,0.0,0.0,0.0,0.0,3.1226,3.2304,3.6506,3.9345,4.0643,4.1089,4.1333,4.1333,4.1086,3.9635,0.0,0.0,0.0,0.0,0.0,0.0,0.0,0.0,0.0,0.0,0.0,0.0,0.0,0.0,0.0,0.0,0.0,0.0,0.0,0.0,0.0,0.0,0.0,0.0,0.0,0.0,0.0,0.0,1.2504,1.2441,1.2307,0.0,0.0,0.0,0.0,0.0,0.0,0.0,0.0,0.0,0.0,2.8156,2.9462,3.129,0.0,0.0,3.3506,3.2903,3.4464,3.4404,3.382,3.2672,3.1498,0.0,0.0,0.0,0.0,0.0,0.0,0.0,0.0,0.0,0.0,0.0,0.0,0.0,0.0,0.0,0.0,0.0,0.0,0.0,0.0,0.0,0.0,0.0,0.0,0.0,0.0,0.0,0.0,0.0,0.0,0.0,0.0,0.0,0.0,0.0,0.0,0.0,0.0,0.0,0.0,0.0,0.0,0.0,0.0,0.0,0.0,0.0,0.0,0.0,0.0,0.0,0.0,2.994,3.161,3.558,3.8467,4.0024,4.0102,4.0128,4.0154,3.9526,3.755,0.0,0.0,0.0,0.0,0.0,0.0,0.0,0.0,0.0,0.0,0.0,0.0,0.0,0.0,0.0,0.0,0.0,0.0,0.0,0.0,0.0,0.0,0.0,0.0,0.0,0.0,0.0,0.0,0.0,0.0,0.0,0.0,0.0,0.0,0.0,0.0,0.0,0.0,0.0,0.0,0.0,2.5596,2.7696,2.9578,3.1466,0.0,3.243,3.1754,3.2681,3.2875,3.225,3.0193,0.0,0.0,0.0,0.0,0.0,0.0,0.0,0.0,0.0,0.0,0.0,0.0,0.0,0.0,0.0,0.0,0.0,0.0,0.0,0.0,0.0,0.0,0.0,0.0,0.0,0.0,0.0,0.0,0.0,0.0,0.0,0.0,0.0,0.0,0.0,0.0,0.0,0.0,0.0,0.0,0.0,0.0,0.0,0.0,0.0,0.0,0.0,0.0,0.0,0.0,0.0,0.0,0.0,0.0,3.0147,3.4641,3.7631,3.8851,3.8958,3.9111,3.9471,3.8591,0.0,0.0,0.0,0.0,0.0,0.0,0.0,0.0,0.0,0.0,0.0,0.0,0.0,0.0,0.0,0.0,0.0,0.0,0.0,0.0,0.0,0.0,0.0,0.0,0.0,0.0,0.0,0.9893,0.0,0.0,0.0,0.0,0.0,0.0,0.0,0.0,0.0,0.0,0.0,0.0,0.0,0.0,2.3025,2.5793,2.7666,2.9426,0.0,0.0,2.9006,2.8777,2.9398,2.9214,0.0,0.0,0.0,0.0,0.0,0.0,0.0,0.0,0.0,0.0,0.0,0.0,0.0,0.0,0.0,0.0,0.0,0.0,0.0,0.0,0.0,0.0,0.0,0.0,0.0,0.0,0.0,0.0,0.0,0.0,0.0,0.0,0.0,0.0,0.0,0.0,0.0,0.0,0.0,0.0,0.0,0.0,0.0,0.0,0.0,0.0,0.0,0.0,0.0,0.0,0.0,0.0,0.0,0.0,2.7787,2.9225,3.2748,3.5632,3.765,3.7524,3.7792,3.8591,3.7763,3.542,0.0,0.0,0.0,0.0,0.0,0.0,0.0,0.0,0.0,0.0,0.0,0.0,0.0,0.0,0.0,0.0,0.0,0.0,0.0,0.0,0.0,0.0,0.0,0.0,0.0,0.0,0.0,0.0,0.0,0.0,0.0,0.0,0.0,0.0,0.0,0.0,0.0,0.0,0.0,0.0,0.0,0.0,2.294,2.491,0.0,0.0,0.0,2.7104,2.6371,0.0,0.0,0.0,0.0,0.0,0.0,0.0,0.0,0.0,0.0,0.0,0.0,0.0,0.0,0.0,0.0,0.0,0.0,0.0,0.0,0.0,0.0,0.0,0.0,0.0,0.0,0.0,0.0,0.0,0.0,0.0,0.0,0.0,0.0,0.0,0.0,0.0,0.0,0.0,0.0,0.0,0.0,0.0,0.0,0.0,0.0,0.0,0.0,0.0,0.0,0.0,0.0,0.0,0.0,0.0,0.0,0.0,2.8465,3.0872,3.3599,3.6535,3.6207,3.6427,3.7687,3.6955,3.467,0.0,0.0,0.0,0.0,0.0,0.0,0.0,0.0,0.0,0.0,0.0,0.0,0.0,0.0,0.0,0.0,0.0,0.0,0.0,0.0,0.0,0.0,0.0,0.0,0.0,0.0,0.0,0.0,0.0,0.0,0.0,0.0,0.0,0.0,0.0,0.0,0.0,0.0,0.0,0.0,0.0,1.9461,2.0038,2.1854,2.3379,0.0,0.0,2.5257,2.4507,2.5619,0.0,0.0,0.0,0.0,0.0,0.0,0.0,0.0,0.0,0.0,0.0,0.0,0.0,0.0,0.0,0.0,0.0,0.0,0.0,0.0,0.0,0.0,0.0,0.0,0.0,0.0,0.0,0.0,0.0,0.0,0.0,0.0,0.0,0.0,0.0,0.0,0.0,0.0,0.0,0.0,0.0,0.0,0.0,0.0,0.0,0.0,0.0,0.0,0.0,0.0,0.0,0.0,0.0,0.0,0.0,0.0,2.8125,3.1437,3.4326,3.6577,3.5838,3.6098,3.7635,3.6175,3.3559,0.0,0.0,0.0,0.0,0.0,0.0,0.0,0.0,0.0,0.0,0.0,0.0,0.0,0.0,0.0,0.0,0.0,0.0,0.0,0.0,0.0,0.0,0.0,0.0,0.0,0.0,0.0,0.0,0.0,0.0,0.0,0.0,0.0,0.0,0.0,0.0,0.0,0.0,0.0,0.0,0.0,1.7604,1.9196,2.0412,0.0,0.0,0.0,0.0,2.0268,2.1079,0.0,0.0,0.0,0.0,0.0,0.0,0.0,0.0,0.0,0.0,0.0,0.0,0.0,0.0,0.0,0.0,0.0,0.0,0.0,0.0,0.0,0.0,0.0,0.0,0.0,0.0,0.0,0.0,0.0,0.0,0.0,0.0,0.0,0.0,0.0,0.0,0.0,0.0,0.0,0.0,0.0,0.0,0.0,0.0,0.0,0.0,0.0,0.0,0.0,0.0,0.0,0.0,0.0,0.0,0.0,0.0,2.7054,2.9455,3.1915,3.4278,3.4328,3.4766,3.5623,3.5003,3.2712,0.0,0.0,0.0,0.0,0.0,0.0,0.0,0.0,0.0,0.0,0.0,0.0,0.0,0.0,0.0,0.0,0.0,0.0,0.0,0.0,0.0,0.0,0.0,0.0,0.0,0.0,0.0,0.0,0.0,0.0,0.0,0.0,0.0,0.0,0.0,0.0,0.0,0.0,0.0,0.0,1.4203,1.5512,1.7303,0.0,0.0,0.0,0.0,0.0,0.0,1.831,1.8331,0.0,0.0,0.0,0.0,0.0,0.0,0.0,0.0,0.0,0.0,0.0,0.0,0.0,0.0,0.0,0.0,0.0,0.0,0.0,0.0,0.0,0.0,0.0,0.0,0.0,0.0,0.0,0.0,0.0,0.0,0.0,0.0,0.0,0.0,0.0,0.0,0.0,0.0,0.0,0.0,0.0,0.0,0.0,0.0,0.0,0.0,0.0,0.0,0.0,0.0,0.0,0.0,0.0,0.0,0.0,2.6059,2.7302,2.9273,3.1941,3.2742,3.3174,3.3305,3.3638,3.17,2.7337,0.0,0.0,0.0,0.0,0.0,0.0,0.0,0.0,0.0,0.0,0.0,0.0,0.0,0.0,0.0,0.0,0.0,0.0,0.0,0.0,0.0,0.0,0.0,0.0,0.0,0.0,0.0,0.0,0.0,0.0,0.0,0.0,0.0,0.0,0.0,0.0,0.0,0.0,0.0,1.2938,1.3427,0.0,0.0,0.0,0.0,0.0,0.0,0.0,0.0,1.6494,0.0,0.0,0.0,0.0,0.0,0.0,0.0,0.0,0.0,0.0,0.0,0.0,0.0,0.0,0.0,0.0,0.0,0.0,0.0,0.0,0.0,0.0,0.0,0.0,0.0,0.0,0.0,0.0,0.0,0.0,0.0,0.0,0.0,0.0,0.0,0.0,0.0,0.0,0.0,0.0,0.0,0.0,0.0,0.0,0.0,0.0,0.0,0.0,0.0,0.0,0.0,0.0,0.0,0.0,0.0,0.0,2.7686,2.9779,3.2382,3.214,3.2241,3.276,3.2344,2.9898,2.533,0.0,0.0,0.0,0.0,0.0,0.0,0.0,0.0,0.0,0.0,0.0,0.0,0.0,0.0,0.0,0.0,0.0,0.0,0.0,0.0,0.0,0.0,0.0,0.0,0.0,0.0,0.0,0.0,0.0,0.0,0.0,0.0,0.0,0.0,0.0,0.0,0.0,0.0,0.9613,1.0769,0.0,0.0,0.0,0.0,0.0,0.0,0.0,0.0,1.4864,0.0,0.0,0.0,0.0,0.0,0.0,0.0,0.0,0.0,0.0,0.0,0.0,0.0,0.0,0.0,0.0,0.0,0.0,0.0,0.0,0.0,0.0,0.0,0.0,0.0,0.0,0.0,0.0,0.0,0.0,0.0,0.0,0.0,0.0,0.0,0.0,0.0,0.0,0.0,0.0,0.0,0.0,0.0,0.0,0.0,0.0,0.0,0.0,0.0,0.0,0.0,0.0,0.0,0.0,0.0,0.0,0.0,0.0,2.8436,3.0728,3.1387,3.1552,3.13,2.997,2.7392,0.0,0.0,0.0,0.0,0.0,0.0,0.0,0.0,0.0,0.0,0.0,0.0,0.0,0.0,0.0,0.0,0.0,0.0,0.0,0.0,0.0,0.0,0.0,0.0,0.0,0.0,0.0,0.0,0.0,0.0,0.0,0.0,0.0,0.0,0.0,0.0,0.0,0.0,0.0,0.0,0.0,0.0,0.0,0.0,0.0,0.0,0.0,0.0,0.0,0.0,0.0,0.0,0.0,0.0,0.0,0.0,0.0,0.0,0.0,0.0,0.0,0.0,0.0,0.0,0.0,0.0,0.0,0.0,0.0,0.0,0.0,0.0,0.0,0.0,0.0,0.0,0.0,0.0,0.0,0.0,0.0,0.0,0.0,0.0,0.0,0.0,0.0,0.0,0.0,0.0,0.0,0.0,0.0,0.0,0.0,0.0,0.0,0.0,0.0,0.0,0.0,0.0,0.0,0.0,0.0,0.0,0.0,0.0,2.686,2.882,3.0386,3.0697,2.9661,2.7813,2.536,0.0,0.0,0.0,0.0,0.0,0.0,0.0,0.0,0.0,0.0,0.0,0.0,0.0,0.0,0.0,0.0,0.0,0.0,0.0,0.0,0.0,0.0,0.0,0.0,0.0,0.0,0.0,0.0,0.0,0.0,0.0,0.0,0.0,0.0,0.0,0.0,0.0,0.0,0.0,0.0,0.0,0.0,0.0,0.0,0.0,0.0,0.0,0.0,1.3576,0.0,0.0,0.0,0.0,0.0,0.0,0.0,0.0,0.0,0.0,0.0,0.0,0.0,0.0,0.0,0.0,0.0,0.0,0.0,0.0,0.0,0.0,0.0,0.0,0.0,0.0,0.0,0.0,0.0,0.0,0.0,0.0,0.0,0.0,0.0,0.0,0.0,0.0,0.0,0.0,0.0,0.0,0.0,0.0,0.0,0.0,0.0,0.0,0.0,0.0,0.0,0.0,0.0,0.0,0.0,0.0,0.0,0.0,0.0,2.5856,2.7875,2.9029,2.9075,2.804,2.6913,2.4867,0.0,0.0,0.0,0.0,0.0,0.0,0.0,0.0,0.0,0.0,0.0,0.0,0.0,0.0,0.0,0.0,0.0,0.0,0.0,0.0,0.0,0.0,0.0,0.0,0.0,0.0,0.0,0.0,0.0,0.0,0.0,0.0,0.0,0.0,0.0,0.0,0.0,0.0,0.0,0.0,0.0,0.0,0.0,0.0,0.0,0.0,0.0,0.0,0.0,0.0,0.0,0.0,0.0,0.0,0.0,0.0,0.0,0.0,0.0,0.0,0.0,0.0,0.0,0.0,0.0,0.0,0.0,0.0,0.0,0.0,0.0,0.0,0.0,0.0,0.0,0.0,0.0,0.0,0.0,0.0,0.0,0.0,0.0,0.0,0.0,0.0,0.0,0.0,0.0,0.0,0.0,0.0,0.0,0.0,0.0,0.0,0.0,0.0,0.0,0.0,0.0,0.0,0.0,0.0,0.0,0.0,0.0,0.0,2.436,2.6389,2.7771,2.731,2.4932,2.3999,2.2612,0.0,0.0,0.0,0.0,0.0,0.0,0.0,0.0,0.0,0.0,0.0,0.0,0.0,0.0,0.0,0.0,0.0,0.0,0.0,0.0,0.0,0.0,0.0,0.0,0.0,0.0,0.0,0.0,0.0,0.0,0.0,0.0,0.0,0.0,0.0,0.0,0.0,0.0,0.0,0.0,0.0,0.0,0.0,0.0,0.0,0.0,0.0,0.0,0.0,0.0,0.0,0.0,0.0,0.0,0.0,0.0,0.0,0.0,0.0,0.0,0.0,0.0,0.0,0.0,0.0,0.0,0.0,0.0,0.0,0.0,0.0,0.0,0.0,0.0,0.0,0.0,0.0,0.0,0.0,0.0,0.0,0.0,0.0,0.0,0.0,0.0,0.0,0.0,0.0,0.0,0.0,0.0,0.0,0.0,0.0,0.0,0.0,0.0,0.0,0.0,0.0,0.0,0.0,0.0,0.0,0.0,0.0,0.0,0.0,2.4486,2.5862,2.5358,2.2972,2.1903,2.0877,0.0,0.0,0.0,0.0,0.0,0.0,0.0,0.0,0.0,0.0,0.0,0.0,0.0,0.0,0.0,0.0,0.0,0.0,0.0,0.0,0.0,0.0,0.0,0.0,0.0,0.0,0.0,0.0,0.0,0.0,0.0,0.0,0.0,0.0,0.0,0.0,0.0,0.0,0.0,0.0,0.0,0.0,0.0,0.0,0.0,0.0,0.0,0.0,0.0,0.0,0.0,0.0,0.0,0.0,0.0,0.0,0.0,0.0,0.0,0.0,0.0,0.0,0.0,0.0,0.0,0.0,0.0,0.0,0.0,0.0,0.0,0.0,0.0,0.0,0.0,0.0,0.0,0.0,0.0,0.0,0.0,0.0,0.0,0.0,0.0,0.0,0.0,0.0,0.0,0.0,0.0,0.0,0.0,0.0,0.0,0.0,0.0,0.0,0.0,0.0,0.0,0.0,0.0,0.0,0.0,0.0,0.0,0.0,0.0,2.2157,2.2954,2.3245,2.3027,2.1572,2.0379,0.0,0.0,0.0,0.0,0.0,0.0,0.0,0.0,0.0,0.0,0.0,0.0,0.0,0.0,0.0,0.0,0.0,0.0,0.0,0.0,0.0,0.0,0.0,0.0,0.0,0.0,0.0,0.0,0.0,0.0,0.0,0.0,0.0,0.0,0.0,0.0,0.0,0.0,0.0,0.0,0.0,0.0,0.0,0.0,0.0,0.0,0.0,0.0,0.0,0.0,0.0,0.0,0.0,0.0,0.0,0.0,0.0,0.0,0.0,0.0,0.0,0.0,0.0,0.0,0.0,0.0,0.0,0.0,0.0,0.0,0.0,0.0,0.0,0.0,0.0,0.0,0.0,0.0,0.0,0.0,0.0,0.0,0.0,0.0,0.0,0.0,0.0,0.0,0.0,0.0,0.0,0.0,0.0,0.0,0.0,0.0,0.0,0.0,0.0,0.0,0.0,0.0,0.0,0.0,0.0,0.0,0.0,0.0,0.0,1.8087,1.9513,2.0352,2.0352,1.8893,1.8149,1.8233,0.0,0.0,0.0,0.0,0.0,0.0,0.0,0.0,0.0,0.0,0.0,0.0,0.0,0.0,0.0,0.0,0.0,0.0,0.0,0.0,0.0,0.0,0.0,0.0,0.0,0.0,0.0,0.0,0.0,0.0,0.0,0.0,0.0,0.0,0.0,0.0,0.0,0.0,0.0,0.0,0.0,0.0,0.0,0.0,0.0,0.0,0.0,0.0,0.0,0.0,0.0,0.0,0.0,0.0,0.0,0.0,0.0,0.0,0.0,0.0,0.0,0.0,0.0,0.0,0.0,0.0,0.0,0.0,0.0,0.0,0.0,0.0,0.0,0.0,0.0,0.0,0.0,0.0,0.0,0.0,0.0,0.0,0.0,0.0,0.0,0.0,0.0,0.0,0.0,0.0,0.0,0.0,0.0,0.0,0.0,0.0,0.0,0.0,0.0,0.0,0.0,0.0,0.0,0.0,0.0,0.0,0.0,0.0,1.6154,1.7783,1.8607,1.8439,1.7363,1.6886,0.0,0.0,0.0,0.0,0.0,0.0,0.0,0.0,0.0,0.0,0.0,0.0,0.0,0.0,0.0,0.0,0.0,0.0,0.0,0.0,0.0,0.0,0.0,0.0,0.0,0.0,0.0,0.0,0.0,0.0,0.0,0.0,0.0,0.0,0.0,0.0,0.0,0.0,0.0,0.0,0.0,0.0,0.0,0.0,0.0,0.0,0.0,0.0,0.0,0.0,0.0,0.0,0.0,0.0,0.0,0.0,0.0,0.0,0.0,0.0,0.0,0.0,0.0,0.0,0.0,0.0,0.0,0.0,0.0,0.0,0.0,0.0,0.0,0.0,0.0,0.0,0.0,0.0,0.0,0.0,0.0,0.0,0.0,0.0,0.0,0.0,0.0,0.0,0.0,0.0,0.0,0.0,0.0,0.0,0.0,0.0,0.0,0.0,0.0,0.0,0.0,0.0,0.0,0.0,0.0,0.0,0.0,0.0,1.549,1.7164,1.8114,1.8366,1.8052,1.7484,1.6886,0.0,0.0,0.0,0.0,0.0,0.0,0.0,0.0,0.0,0.0,0.0,0.0,0.0,0.0,0.0,0.0,0.0,0.0,0.0,0.0,0.0,0.0,0.0,0.0,0.0,0.0,0.0,0.0,0.0,0.0,0.0,0.0,0.0,0.0,0.0,0.0,0.0,0.0,0.0,0.0,0.0,0.0,0.0,0.0,0.0,0.0,0.0,0.0,0.0,0.0,0.0,0.0,0.0,0.0,0.0,0.0,0.0,0.0,0.0,0.0,0.0,0.0,0.0,0.0,0.0,0.0,0.0,0.0,0.0,0.0,0.0,0.0,0.0,0.0,0.0,0.0,0.0,0.0,0.0,0.0,0.0,0.0,0.0,0.0,0.0,0.0,0.0,0.0,0.0,0.0,0.0,0.0,0.0,0.0,0.0,0.0,0.0,0.0,0.0,0.0,0.0,0.0,0.0,0.0,0.0,0.0,0.0,0.0,0.0,1.4801,0.0,1.6491,0.0,1.5977,1.5456,0.0,0.0,0.0,0.0,0.0,0.0,0.0,0.0,0.0,0.0,0.0,0.0,0.0,0.0,0.0,0.0,0.0,0.0,0.0,0.0,0.0,0.0,0.0,0.0,0.0,0.0,0.0,0.0,0.0,0.0,0.0,0.0,0.0,0.0,0.0,0.0,0.0,0.0,0.0,0.0,0.0,0.0,0.0,0.0,0.0,0.0,0.0,0.0,0.0,0.0,0.0,0.0,0.0,0.0,0.0,0.0,0.0,0.0,0.0,0.0,0.0,0.0,0.0,0.0,0.0,0.0,0.0,0.0,0.0,0.0,0.0,0.0,0.0,0.0,0.0,0.0,0.0,0.0,0.0,0.0,0.0,0.0,0.0,0.0,0.0,0.0,0.0,0.0,0.0,0.0,0.0,0.0,0.0,0.0,0.0,0.0,0.0,0.0,0.0,0.0,0.0,0.0,0.0,0.0,0.0,0.0,0.0,0.0,0.0,1.3748,1.4093,1.4651,1.5424,1.4591,1.4168,0.0,0.0,0.0,0.0,0.0,0.0,0.0,0.0,0.0,0.0,0.0,0.0,0.0,0.0,0.0,0.0,0.0,0.0,0.0,0.0,0.0,0.0,0.0,0.0,0.0,0.0,0.0,0.0,0.0,0.0,0.0,0.0,0.0,0.0,0.0,0.0,0.0,0.0,0.0,0.0,0.0,0.0,0.0,0.0,0.0,0.0,0.0,0.0,0.0,0.0,0.0,0.0,0.0,0.0,0.0,0.0,0.0,0.0,0.0,0.0,0.0,0.0,0.0,0.0,0.0,0.0,0.0,0.0,0.0,0.0,0.0,0.0,0.0,0.0,0.0,0.0,0.0,0.0,0.0,0.0,0.0,0.0,0.0,0.0,0.0,0.0,0.0,0.0,0.0,0.0,0.0,0.0,0.0,0.0,0.0,0.0,0.0,0.0,0.0,0.0,0.0,0.0,0.0,0.0,0.0,0.0,0.0,0.0,0.0,1.3916,1.313,1.3057,1.3923,1.349,1.3125,0.0,0.0,0.0,0.0,0.0,0.0,0.0,0.0,0.0,0.0,0.0,0.0,0.0,0.0,0.0,0.0,0.0,0.0,0.0,0.0,0.0,0.0,0.0,0.0,0.0,0.0,0.0,0.0,0.0,0.0,0.0,0.0,0.0,0.0,0.0,0.0,0.0,0.0,0.0,0.0,0.0,0.0,0.0,0.0,0.0,0.0,0.0,0.0,0.0,0.0,0.0,0.0,0.0,0.0,0.0,0.0,0.0,0.0,0.0,0.0,0.0,0.0,0.0,0.0,0.0,0.0,0.0,0.0,0.0,0.0,0.0,0.0,0.0,0.0,0.0,0.0,0.0,0.0,0.0,0.0,0.0,0.0,0.0,0.0,0.0,0.0,0.0,0.0,0.0,0.0,0.0,0.0,0.0,0.0,0.0,0.0,0.0,0.0,0.0,0.0,0.0,0.0,0.0,0.0,0.0,0.0,0.0,0.0,0.0,0.0,1.236,1.2563,1.3016,1.3139,1.2809,1.1912,0.0,0.0,0.0,0.0,0.0,0.0,0.0,0.0,0.0,0.0,0.0,0.0,0.0,0.0,0.0,0.0,0.0,0.0,0.0,0.0,0.0,0.0,0.0,0.0,0.0,0.0,0.0,0.0,0.0,0.0,0.0,0.0,0.0,0.0,0.0,0.0,0.0,0.0,0.0,0.0,0.0,0.0,0.0,0.0,0.0,0.0,0.0,0.0,0.0,0.0,0.0,0.0,0.0,0.0,0.0,0.0,0.0,0.0,0.0,0.0,0.0,0.0,0.0,0.0,0.0,0.0,0.0,0.0,0.0,0.0,0.0,0.0,0.0,0.0,0.0,0.0,0.0,0.0,0.0,0.0,0.0,0.0,0.0,0.0,0.0,0.0,0.0,0.0,0.0,0.0,0.0,0.0,0.0,0.0,0.0,0.0,0.0,0.0,0.0,0.0,0.0,0.0,0.0,0.0,0.0,0.0,0.0,0.0,0.0,0.0,1.2009,1.2179,1.2711,1.2509,0.0,0.0,0.0,0.0,0.0,0.0,0.0,0.0,0.0,0.0,0.0,0.0,0.0,0.0,0.0,0.0,0.0,0.0,0.0,0.0,0.0,0.0,0.0,0.0,0.0,0.0,0.0,0.0,0.0,0.0,0.0,0.0,0.0,0.0,0.0,0.0,0.0,0.0,0.0,0.0,0.0,0.0,0.0,0.0,0.0,0.0,0.0,0.0,0.0,0.0,0.0,0.0,0.0,0.0,0.0,0.0,0.0,0.0,0.0,0.0,0.0,0.0,0.0,0.0,0.0,0.0,0.0,0.0,0.0,0.0,0.0,0.0,0.0,0.0,0.0,0.0,0.0,0.0,0.0,0.0,0.0,0.0,0.0,0.0,0.0,0.0,0.0,0.0,0.0,0.0,0.0,0.0,0.0,0.0,0.0,0.0,0.0,0.0,0.0,0.0,0.0,0.0,0.0,0.0,0.0,0.0,0.0,0.0,0.0,0.0,0.0,1.1352,1.1383,1.2084,0.0,1.1463,0.0,0.0,0.0,0.0,0.0,0.0,0.0,0.0,0.0,0.0,0.0,0.0,0.0,0.0,0.0,0.0,0.0,0.0,0.0,0.0,0.0,0.0,0.0,0.0,0.0,0.0,0.0,0.0,0.0,0.0,0.0,0.0,0.0,0.0,0.0,0.0,0.0,0.0,0.0,0.0,0.0,0.0,0.0,0.0,0.0,0.0,0.0,0.0,0.0,0.0,0.0,0.0,0.0,0.0,0.0,0.0,0.0,0.0,0.0,0.0,0.0,0.0,0.0,0.0,0.0,0.0,0.0,0.0,0.0,0.0,0.0,0.0,0.0,0.0,0.0,0.0,0.0,0.0,0.0,0.0,0.0,0.0,0.0,0.0,0.0,0.0,0.0,0.0,0.0,0.0,0.0,0.0,0.0,0.0,0.0,0.0,0.0,0.0,0.0,0.0,0.0,0.0,0.0,0.0,0.0,0.0,0.0,0.0,0.0,0.0,0.0,0.0,1.1028,1.1199,1.1028,0.0,0.0,0.0,0.0,0.0,0.0,0.0,0.0,0.0,0.0,0.0,0.0,0.0,0.0,0.0,0.0,0.0,0.0,0.0,0.0,0.0,0.0,0.0,0.0,0.0,0.0,0.0,0.0,0.0,0.0,0.0,0.0,0.0,0.0,0.0,0.0,0.0,0.0,0.0,0.0,0.0,0.0,0.0,0.0,0.0,0.0,0.0,0.0,0.0,0.0,0.0,0.0,0.0,0.0,0.0,0.0,0.0,0.0,0.0,0.0,0.0,0.0,0.0,0.0,0.0,0.0,0.0,0.0,0.0,0.0,0.0,0.0,0.0,0.0,0.0,0.0,0.0,0.0,0.0,0.0,0.0,0.0,0.0,0.0,0.0,0.0,0.0,0.0,0.0,0.0,0.0,0.0,0.0,0.0,0.0,0.0,0.0,0.0,0.0,0.0,0.0,0.0,0.0,0.0,0.0,0.0,0.0,0.0,0.0,0.0,1.0572,1.0063,1.0936,1.1089,1.0397,0.0,0.0,0.0,0.0,0.0,0.0,0.0,0.0,0.0,0.0,0.0,0.0,0.0,0.0,0.0,0.0,0.0,0.0,0.0,0.0,0.0,0.0,0.0,0.0,0.0,0.0,0.0,0.0,0.0,0.0,0.0,0.0,0.0,0.0,0.0,0.0,0.0,0.0,0.0,0.0,0.0,0.0,0.0,0.0,0.0,0.0,0.0,0.0,0.0,0.0,0.0,0.0,0.0,0.0,0.0,0.0,0.0,0.0,0.0,0.0,0.0,0.0,0.0,0.0,0.0,0.0,0.0,0.0,0.0,0.0,0.0,0.0,0.0,0.0,0.0,0.0,0.0,0.0,0.0,0.0,0.0,0.0,0.0,0.0,0.0,0.0,0.0,0.0,0.0,0.0,0.0,0.0,0.0,0.0,0.0,0.0,0.0,0.0,0.0,0.0,0.0,0.0,0.0,0.0,0.0,0.0,0.0,0.0,0.0,0.0,0.0,0.0,0.0,0.0,0.9886,0.0,0.0,0.0,0.0,0.0,0.0,0.0,0.0,0.0,0.0,0.0,0.0,0.0,0.0,0.0,0.0,0.0,0.0,0.0,0.0,0.0,0.0,0.0,0.0,0.0,0.0,0.0,0.0,0.0,0.0,0.0,0.0,0.0,0.0,0.0,0.0,0.0,0.0,0.0,0.0,0.0,0.0,0.0,0.0,0.0,0.0,0.0,0.0,0.0,0.0,0.0,0.0,0.0,0.0,0.0,0.0,0.0,0.0,0.0,0.0,0.0,0.0,0.0,0.0,0.0,0.0,0.0,0.0,0.0,0.0,0.0,0.0,0.0,0.0,0.0,0.0,0.0,0.0,0.0,0.0,0.0,0.0,0.0,0.0,0.0,0.0,0.0,0.0,0.0,0.0,0.0,0.0,0.0,0.0,0.0,0.0,0.0,0.0,0.0,0.0,0.0,0.0,0.0,0.0,0.0,0.0,0.0,0.0,0.0,0.0,0.0,0.0,0.0,0.0,0.0,0.0,0.0,0.0,0.0,0.0,0.0,0.0,0.0,0.0,0.0,0.0,0.0,0.0,0.0,0.0,0.0,0.0,0.0,0.0,0.0,0.0,0.0,0.0,0.0,0.0,0.0,0.0,0.0,0.0,0.0,0.0,0.0,0.0,0.0,0.0,0.0,0.0,0.0,0.0,0.0,0.0,0.0,0.0,0.0,0.0,0.0,0.0,0.0,0.0,0.0,0.0,0.0,0.0,0.0,0.0,0.0,0.0,0.0,0.0,0.0,0.0,0.0,0.0,0.0,0.0,0.0,0.0,0.0,0.0,0.0,0.0,0.0,0.0,0.0,0.0,0.0,0.0,0.0,0.0,0.0,0.0,0.0,0.0,0.0,0.0,0.0,0.0,0.0,0.0,0.0,0.0,0.0,0.0,0.0,0.0,0.0,0.0,0.0,0.0,0.0,0.0,0.0,0.0,0.0,0.0,0.0,0.0,0.0,0.0,0.0,0.0,0.0,0.0,0.0,0.0,0.0,0.0,0.0,0.0,0.0,0.0,0.0,0.0,0.0,0.0,0.0,0.0,0.0,0.0,0.0,0.0,0.0,0.0,0.0,0.0,0.0,0.0,0.0,0.0,0.0,0.0,0.0,0.0,0.0,0.0,0.0,0.0,0.0,0.0,0.0,0.0,0.0,0.0,0.0,0.0,0.0,0.0,0.0,0.0,0.0,0.0,0.0,0.0,0.0,0.0,0.0,0.0,0.0,0.0,0.0,0.0,0.0,0.0,0.0,0.0,0.0,0.0,0.0,0.0,0.0,0.0,0.0,0.0,0.0,0.0,0.0,0.0,0.0,0.0,0.0,0.0,0.0,0.0,0.0,0.0,0.0,0.0,0.0,0.0,0.0,0.0,0.0,0.0,0.0,0.0,0.0,0.0,0.0,0.0,0.0,0.0,0.0,0.0,0.0,0.0,0.0,0.0,0.0,0.0,0.0,0.0,0.0,0.0,0.0,0.0,0.0,0.0,0.0,0.0,0.0,0.0,0.0,0.0,0.0,0.0,0.0,0.0,0.0,0.0,0.0,0.0,0.0,0.0,0.0,0.0,0.0,0.0,0.0,0.0,0.0,0.0,0.0,0.0,0.0,0.0,0.0,0.0,0.0,0.0,0.0,0.0,0.0,0.0,0.0,0.0,0.0,0.0,0.0,0.0,0.0,0.0,0.0,0.0,0.0,0.0,0.0,0.0,0.0,0.0,0.0,0.0,0.0,0.0,0.0,0.0,0.0,0.0,0.0,0.0,0.0,0.0,0.0,0.0,0.0,0.0,0.0,0.0,0.0,0.0,0.0,0.0,0.0,0.0,0.0,0.0,0.0,0.0,0.0,0.0,0.0,0.0,0.0,0.0,0.0,0.0,0.0,0.0,0.0,0.0,0.0,0.0,0.0,0.0,0.0,0.0,0.0,0.0,0.0,0.0,0.0,0.0,0.0,0.0,0.0,0.0,0.0,0.0,0.0,0.0,0.0,0.0,0.0,0.0,0.0,0.0,0.0,0.0,0.0,0.0,0.0,0.0,0.0,0.0,0.0,0.0,0.0,0.0,0.0,0.0,0.0,0.0,0.0,0.0,0.0,0.0,0.0,0.0,0.0,0.0,0.0,0.0,0.0,0.0,0.0,0.0,0.0,0.0,0.0,0.0,0.0,0.0,0.0,0.0,0.0,0.0,0.0,0.0,0.0,0.0,0.0,0.0,0.0,0.0,0.0,0.0,0.0,0.0,0.0,0.0,0.0,0.0,0.0,0.0,0.0,0.0,0.0,0.0,0.0,0.0,0.0,0.0,0.0,0.0,0.0,0.0,0.0,0.0,0.0,0.0,0.0,0.0,0.0,0.0,0.0,0.0,0.0,0.0,0.0,0.0,0.0,0.0,0.0,0.0,0.0,0.0,0.0,0.0,0.0,0.0,0.0,0.0,0.0,0.0,0.0,0.0,0.0,0.0,0.0,0.0,0.0,0.0,0.0,0.0,0.0,0.0,0.0,0.0,0.0,0.0,0.0,0.0,0.0,0.0,0.0,0.0,0.0,0.0,0.0,0.0,0.0,0.0,0.0,0.0,0.0,0.0,0.0,0.0,0.0,0.0,0.0,0.0,0.0,0.0,0.0,0.0,0.0,0.0,0.0,0.0,0.0,0.0,0.0,0.0,0.0,0.0,0.0,0.0,0.0,0.0,0.0,0.0,0.0,0.0,0.0,0.0,0.0,0.0,0.0,0.0,0.0,0.0,0.0,0.0,0.0,0.0,0.0,0.0,0.0,0.0,0.0,0.0,0.0,0.0,0.0,0.0,0.0,0.0,0.0,0.0,0.0,0.0,0.0,0.0,0.0,0.0,0.0,0.0,0.0,0.0,0.0,0.0,0.0,0.0,0.0,0.0,0.0,0.0,0.0,0.0,0.0,0.0,0.0,0.0,0.0,0.0,0.0,0.0,0.0,0.0,0.0,0.0,0.0,0.0,0.0,0.0,0.0,0.0,0.0,0.0,0.0,0.0,0.0,0.0,0.0,0.0,0.0,0.0,0.0,0.0,0.0,0.0,0.0,0.0,0.0,0.0,0.0,0.0,0.0,0.0,0.0,0.0,0.0,0.0,0.0,0.0,0.0,0.0,0.0,0.0,0.0,0.0,0.0,0.0,0.0,0.0,0.0,0.0,0.0,0.0,0.0,0.0,0.0,0.0,0.0,0.0,0.0,0.0,0.0,0.0,0.0,0.0,0.0,0.0,0.0,0.0,0.0,0.0,0.0,0.0,0.0,0.0,0.0,0.0,0.0,0.0,0.0,0.0,0.0,0.0,0.0,0.0,0.0,0.0,0.0,0.0,0.0,0.0,0.0,0.0,0.0,0.0,0.0,0.0,0.0,0.0,0.0,0.0,0.0,0.0,0.0,0.0,0.0,0.0,0.0,0.0,0.0,0.0,0.0,0.0,0.0,0.0,0.0,0.0,0.0,0.0,0.0,0.0,0.0,0.0,0.0,0.0,0.0,0.0,0.0,0.0,0.0,0.0,0.0,0.0,0.0,0.0,0.0,0.0,0.0,0.0,0.0,0.0,0.0,0.0,0.0,0.0,0.0,0.0,0.0,0.0,0.0,0.0,0.0,0.0,0.0,0.0,0.0,0.0,0.0,0.0,0.0,0.0,0.0,0.0,0.0,0.0,0.0,0.0,0.0,0.0,0.0,0.0,0.0,0.0,0.0,0.0,0.0,0.0,0.0,0.0,0.0,0.0,0.0,0.0,0.0,0.0,0.0,0.0,0.0,0.0,0.0,0.0,0.0,0.0,0.0,0.0,0.0,0.0,0.0,0.0,0.0,0.0,0.0,0.0,0.0,0.0,0.0,0.0,0.0,0.0,0.0,0.0,0.0,0.0,0.0,0.0,0.0,0.0,0.0,0.0,0.0,0.0,0.0,0.0,0.0,0.0,0.0,0.0,0.0,0.0,0.0,0.0,0.0,0.0,0.0,0.0,0.0,0.0,0.0,0.0,0.0,0.0,0.0,0.0,0.0,0.0,0.0,0.0,0.0,0.0,0.0,0.0,0.0,0.0,0.0,0.0,0.0,0.0,0.0,0.0,0.0,0.0,0.0,0.0,0.0,0.0,0.0,0.0,0.0,0.0,0.0,0.0,0.0,0.0,0.0,0.0,0.0,0.0,0.0,0.0,0.0,0.0,0.0,0.0,0.0,0.0,0.0,0.0,0.0,0.0,0.0,0.0,0.0,0.0,0.0,0.0,0.0,0.0,0.0,0.0,0.0,0.0,0.0,0.0,0.0,0.0,0.0,0.0,0.0,0.0,0.0,0.0,0.0,0.0,0.0,0.0,0.0,0.0]}]]]